<?xml version="1.0" encoding="UTF-8" standalone="no" ?>
<gpx xmlns="http://www.topografix.com/GPX/1/1" xmlns:xsi="http://www.w3.org/2001/XMLSchema-instance" xsi:schemaLocation="http://www.topografix.com/GPX/1/1 http://www.topografix.com/GPX/1/1/gpx.xsd" version="1.1" creator="VisuGPX - https://www.visugpx.com">
  <metadata>
    <name>LES ENCANAUX</name>
    <desc><![CDATA[rando facile cheminant parmi les ravins des Infernets              des Encanaux et de la Coutronne.]]></desc>
  </metadata>
  <trk>
    <name><![CDATA[LES ENCANAUX_1]]></name>
    <trkseg>
      <trkpt lat="43.35843" lon="5.66293">
        <ele>240.100006</ele>
        <time>2013-02-27T07:37:26Z</time>
      </trkpt>
      <trkpt lat="43.35849" lon="5.66302">
        <ele>239.100006</ele>
        <time>2013-02-27T07:37:56Z</time>
      </trkpt>
      <trkpt lat="43.35844" lon="5.66312">
        <ele>236.699996</ele>
        <time>2013-02-27T07:38:05Z</time>
      </trkpt>
      <trkpt lat="43.35842" lon="5.66323">
        <ele>234.5</ele>
        <time>2013-02-27T07:38:11Z</time>
      </trkpt>
      <trkpt lat="43.35837" lon="5.66332">
        <ele>237.100006</ele>
        <time>2013-02-27T07:38:18Z</time>
      </trkpt>
      <trkpt lat="43.35837" lon="5.66334">
        <ele>237.100006</ele>
        <time>2013-02-27T07:38:19Z</time>
      </trkpt>
      <trkpt lat="43.35831" lon="5.66353">
        <ele>240</ele>
        <time>2013-02-27T07:38:30Z</time>
      </trkpt>
      <trkpt lat="43.35827" lon="5.66364">
        <ele>241.8</ele>
        <time>2013-02-27T07:38:36Z</time>
      </trkpt>
      <trkpt lat="43.35822" lon="5.66373">
        <ele>244.1</ele>
        <time>2013-02-27T07:38:43Z</time>
      </trkpt>
      <trkpt lat="43.35818" lon="5.66383">
        <ele>244.5</ele>
        <time>2013-02-27T07:38:49Z</time>
      </trkpt>
      <trkpt lat="43.35814" lon="5.66393">
        <ele>244.8</ele>
        <time>2013-02-27T07:38:55Z</time>
      </trkpt>
      <trkpt lat="43.3581" lon="5.66402">
        <ele>244.8</ele>
        <time>2013-02-27T07:39:01Z</time>
      </trkpt>
      <trkpt lat="43.35805" lon="5.66411">
        <ele>245.3</ele>
        <time>2013-02-27T07:39:07Z</time>
      </trkpt>
      <trkpt lat="43.35799" lon="5.6642">
        <ele>247.3</ele>
        <time>2013-02-27T07:39:14Z</time>
      </trkpt>
      <trkpt lat="43.35794" lon="5.66429">
        <ele>247.3</ele>
        <time>2013-02-27T07:39:21Z</time>
      </trkpt>
      <trkpt lat="43.35794" lon="5.6643">
        <ele>247.3</ele>
        <time>2013-02-27T07:39:22Z</time>
      </trkpt>
      <trkpt lat="43.35788" lon="5.66449">
        <ele>248</ele>
        <time>2013-02-27T07:39:34Z</time>
      </trkpt>
      <trkpt lat="43.35785" lon="5.6646">
        <ele>248.6</ele>
        <time>2013-02-27T07:39:40Z</time>
      </trkpt>
      <trkpt lat="43.35781" lon="5.6647">
        <ele>253.3</ele>
        <time>2013-02-27T07:39:47Z</time>
      </trkpt>
      <trkpt lat="43.35778" lon="5.66481">
        <ele>255.5</ele>
        <time>2013-02-27T07:39:56Z</time>
      </trkpt>
      <trkpt lat="43.35774" lon="5.66491">
        <ele>253.1</ele>
        <time>2013-02-27T07:40:04Z</time>
      </trkpt>
      <trkpt lat="43.35772" lon="5.66502">
        <ele>251.5</ele>
        <time>2013-02-27T07:40:11Z</time>
      </trkpt>
      <trkpt lat="43.35768" lon="5.66512">
        <ele>252.8</ele>
        <time>2013-02-27T07:40:18Z</time>
      </trkpt>
      <trkpt lat="43.35764" lon="5.66523">
        <ele>251.8</ele>
        <time>2013-02-27T07:40:30Z</time>
      </trkpt>
      <trkpt lat="43.35764" lon="5.66525">
        <ele>252.6</ele>
        <time>2013-02-27T07:40:31Z</time>
      </trkpt>
      <trkpt lat="43.35758" lon="5.66545">
        <ele>260.1</ele>
        <time>2013-02-27T07:40:46Z</time>
      </trkpt>
      <trkpt lat="43.35757" lon="5.66557">
        <ele>265.2</ele>
        <time>2013-02-27T07:40:58Z</time>
      </trkpt>
      <trkpt lat="43.35754" lon="5.66568">
        <ele>265</ele>
        <time>2013-02-27T07:41:08Z</time>
      </trkpt>
      <trkpt lat="43.35748" lon="5.66577">
        <ele>268.1</ele>
        <time>2013-02-27T07:41:20Z</time>
      </trkpt>
      <trkpt lat="43.35745" lon="5.66587">
        <ele>269</ele>
        <time>2013-02-27T07:41:30Z</time>
      </trkpt>
      <trkpt lat="43.3574" lon="5.66598">
        <ele>271.2</ele>
        <time>2013-02-27T07:41:38Z</time>
      </trkpt>
      <trkpt lat="43.3574" lon="5.66598">
        <ele>271.3</ele>
        <time>2013-02-27T07:41:39Z</time>
      </trkpt>
      <trkpt lat="43.35729" lon="5.66615">
        <ele>276</ele>
        <time>2013-02-27T07:42:08Z</time>
      </trkpt>
      <trkpt lat="43.35724" lon="5.66625">
        <ele>280.7</ele>
        <time>2013-02-27T07:42:24Z</time>
      </trkpt>
      <trkpt lat="43.35718" lon="5.66634">
        <ele>281.3</ele>
        <time>2013-02-27T07:42:37Z</time>
      </trkpt>
      <trkpt lat="43.35711" lon="5.66641">
        <ele>280.7</ele>
        <time>2013-02-27T07:42:52Z</time>
      </trkpt>
      <trkpt lat="43.35711" lon="5.66642">
        <ele>281</ele>
        <time>2013-02-27T07:42:53Z</time>
      </trkpt>
      <trkpt lat="43.357" lon="5.66659">
        <ele>277.3</ele>
        <time>2013-02-27T07:43:24Z</time>
      </trkpt>
      <trkpt lat="43.35695" lon="5.66669">
        <ele>277.2</ele>
        <time>2013-02-27T07:43:34Z</time>
      </trkpt>
      <trkpt lat="43.35689" lon="5.66675">
        <ele>278.7</ele>
        <time>2013-02-27T07:43:44Z</time>
      </trkpt>
      <trkpt lat="43.35681" lon="5.66681">
        <ele>284.2</ele>
        <time>2013-02-27T07:43:53Z</time>
      </trkpt>
      <trkpt lat="43.35681" lon="5.66682">
        <ele>284.2</ele>
        <time>2013-02-27T07:43:54Z</time>
      </trkpt>
      <trkpt lat="43.35666" lon="5.66691">
        <ele>293</ele>
        <time>2013-02-27T07:44:13Z</time>
      </trkpt>
      <trkpt lat="43.35659" lon="5.66698">
        <ele>291.2</ele>
        <time>2013-02-27T07:44:25Z</time>
      </trkpt>
      <trkpt lat="43.35652" lon="5.66704">
        <ele>290.5</ele>
        <time>2013-02-27T07:44:34Z</time>
      </trkpt>
      <trkpt lat="43.35644" lon="5.66707">
        <ele>294.1</ele>
        <time>2013-02-27T07:44:42Z</time>
      </trkpt>
      <trkpt lat="43.35637" lon="5.66715">
        <ele>291.1</ele>
        <time>2013-02-27T07:44:52Z</time>
      </trkpt>
      <trkpt lat="43.35629" lon="5.66718">
        <ele>289.2</ele>
        <time>2013-02-27T07:45:03Z</time>
      </trkpt>
      <trkpt lat="43.35628" lon="5.66718">
        <ele>289.2</ele>
        <time>2013-02-27T07:45:04Z</time>
      </trkpt>
      <trkpt lat="43.35613" lon="5.66713">
        <ele>290.2</ele>
        <time>2013-02-27T07:45:21Z</time>
      </trkpt>
      <trkpt lat="43.35605" lon="5.66712">
        <ele>293.8</ele>
        <time>2013-02-27T07:45:27Z</time>
      </trkpt>
      <trkpt lat="43.35597" lon="5.66708">
        <ele>297.8</ele>
        <time>2013-02-27T07:45:32Z</time>
      </trkpt>
      <trkpt lat="43.35588" lon="5.66708">
        <ele>298.2</ele>
        <time>2013-02-27T07:45:41Z</time>
      </trkpt>
      <trkpt lat="43.35581" lon="5.66705">
        <ele>299.6</ele>
        <time>2013-02-27T07:45:48Z</time>
      </trkpt>
      <trkpt lat="43.35573" lon="5.66699">
        <ele>301.2</ele>
        <time>2013-02-27T07:45:54Z</time>
      </trkpt>
      <trkpt lat="43.35566" lon="5.66693">
        <ele>302.2</ele>
        <time>2013-02-27T07:46:00Z</time>
      </trkpt>
      <trkpt lat="43.35559" lon="5.66687">
        <ele>303.8</ele>
        <time>2013-02-27T07:46:07Z</time>
      </trkpt>
      <trkpt lat="43.35557" lon="5.66686">
        <ele>304</ele>
        <time>2013-02-27T07:46:08Z</time>
      </trkpt>
      <trkpt lat="43.35544" lon="5.66677">
        <ele>304.1</ele>
        <time>2013-02-27T07:46:19Z</time>
      </trkpt>
      <trkpt lat="43.35536" lon="5.66673">
        <ele>304</ele>
        <time>2013-02-27T07:46:27Z</time>
      </trkpt>
      <trkpt lat="43.35527" lon="5.66674">
        <ele>312</ele>
        <time>2013-02-27T07:47:39Z</time>
      </trkpt>
      <trkpt lat="43.35526" lon="5.66674">
        <ele>311.8</ele>
        <time>2013-02-27T07:47:40Z</time>
      </trkpt>
      <trkpt lat="43.3551" lon="5.66668">
        <ele>306.8</ele>
        <time>2013-02-27T07:47:58Z</time>
      </trkpt>
      <trkpt lat="43.35503" lon="5.66664">
        <ele>306.7</ele>
        <time>2013-02-27T07:48:05Z</time>
      </trkpt>
      <trkpt lat="43.35494" lon="5.66659">
        <ele>305.7</ele>
        <time>2013-02-27T07:48:12Z</time>
      </trkpt>
      <trkpt lat="43.35486" lon="5.66655">
        <ele>304.2</ele>
        <time>2013-02-27T07:48:20Z</time>
      </trkpt>
      <trkpt lat="43.35478" lon="5.66654">
        <ele>303</ele>
        <time>2013-02-27T07:48:29Z</time>
      </trkpt>
      <trkpt lat="43.3547" lon="5.66649">
        <ele>303.5</ele>
        <time>2013-02-27T07:48:35Z</time>
      </trkpt>
      <trkpt lat="43.35462" lon="5.66646">
        <ele>304</ele>
        <time>2013-02-27T07:48:43Z</time>
      </trkpt>
      <trkpt lat="43.35461" lon="5.66646">
        <ele>304.3</ele>
        <time>2013-02-27T07:48:44Z</time>
      </trkpt>
      <trkpt lat="43.35446" lon="5.66654">
        <ele>301.1</ele>
        <time>2013-02-27T07:48:58Z</time>
      </trkpt>
      <trkpt lat="43.35439" lon="5.66651">
        <ele>300.8</ele>
        <time>2013-02-27T07:49:04Z</time>
      </trkpt>
      <trkpt lat="43.35433" lon="5.66643">
        <ele>302.2</ele>
        <time>2013-02-27T07:49:09Z</time>
      </trkpt>
      <trkpt lat="43.35427" lon="5.66636">
        <ele>303</ele>
        <time>2013-02-27T07:49:15Z</time>
      </trkpt>
      <trkpt lat="43.3542" lon="5.66631">
        <ele>304.3</ele>
        <time>2013-02-27T07:49:22Z</time>
      </trkpt>
      <trkpt lat="43.35412" lon="5.66627">
        <ele>303</ele>
        <time>2013-02-27T07:49:30Z</time>
      </trkpt>
      <trkpt lat="43.35404" lon="5.66623">
        <ele>305.1</ele>
        <time>2013-02-27T07:49:36Z</time>
      </trkpt>
      <trkpt lat="43.35396" lon="5.66617">
        <ele>307.2</ele>
        <time>2013-02-27T07:49:43Z</time>
      </trkpt>
      <trkpt lat="43.35389" lon="5.66611">
        <ele>308.2</ele>
        <time>2013-02-27T07:49:50Z</time>
      </trkpt>
      <trkpt lat="43.35388" lon="5.66611">
        <ele>308.2</ele>
        <time>2013-02-27T07:49:51Z</time>
      </trkpt>
      <trkpt lat="43.35373" lon="5.66605">
        <ele>305.5</ele>
        <time>2013-02-27T07:50:11Z</time>
      </trkpt>
      <trkpt lat="43.35364" lon="5.66602">
        <ele>305.8</ele>
        <time>2013-02-27T07:50:19Z</time>
      </trkpt>
      <trkpt lat="43.35357" lon="5.66599">
        <ele>307.3</ele>
        <time>2013-02-27T07:50:26Z</time>
      </trkpt>
      <trkpt lat="43.35348" lon="5.66598">
        <ele>307.2</ele>
        <time>2013-02-27T07:50:35Z</time>
      </trkpt>
      <trkpt lat="43.35339" lon="5.66596">
        <ele>308.8</ele>
        <time>2013-02-27T07:50:43Z</time>
      </trkpt>
      <trkpt lat="43.35331" lon="5.66594">
        <ele>309.6</ele>
        <time>2013-02-27T07:50:50Z</time>
      </trkpt>
      <trkpt lat="43.35322" lon="5.66592">
        <ele>310.3</ele>
        <time>2013-02-27T07:50:58Z</time>
      </trkpt>
      <trkpt lat="43.35321" lon="5.66592">
        <ele>310.1</ele>
        <time>2013-02-27T07:50:59Z</time>
      </trkpt>
      <trkpt lat="43.35304" lon="5.66588">
        <ele>309.7</ele>
        <time>2013-02-27T07:51:15Z</time>
      </trkpt>
      <trkpt lat="43.35296" lon="5.66589">
        <ele>308.5</ele>
        <time>2013-02-27T07:51:24Z</time>
      </trkpt>
      <trkpt lat="43.35288" lon="5.66593">
        <ele>303.2</ele>
        <time>2013-02-27T07:51:34Z</time>
      </trkpt>
      <trkpt lat="43.35282" lon="5.666">
        <ele>297</ele>
        <time>2013-02-27T07:51:44Z</time>
      </trkpt>
      <trkpt lat="43.35276" lon="5.66609">
        <ele>293</ele>
        <time>2013-02-27T07:51:53Z</time>
      </trkpt>
      <trkpt lat="43.35269" lon="5.66615">
        <ele>294.8</ele>
        <time>2013-02-27T07:52:01Z</time>
      </trkpt>
      <trkpt lat="43.35269" lon="5.66616">
        <ele>294.2</ele>
        <time>2013-02-27T07:52:02Z</time>
      </trkpt>
      <trkpt lat="43.35258" lon="5.66633">
        <ele>296.5</ele>
        <time>2013-02-27T07:52:18Z</time>
      </trkpt>
      <trkpt lat="43.35254" lon="5.66644">
        <ele>296.2</ele>
        <time>2013-02-27T07:52:26Z</time>
      </trkpt>
      <trkpt lat="43.35246" lon="5.66649">
        <ele>302.2</ele>
        <time>2013-02-27T07:52:35Z</time>
      </trkpt>
      <trkpt lat="43.3524" lon="5.66656">
        <ele>306.7</ele>
        <time>2013-02-27T07:52:42Z</time>
      </trkpt>
      <trkpt lat="43.35234" lon="5.66665">
        <ele>308.3</ele>
        <time>2013-02-27T07:52:51Z</time>
      </trkpt>
      <trkpt lat="43.35231" lon="5.66675">
        <ele>309.1</ele>
        <time>2013-02-27T07:53:01Z</time>
      </trkpt>
      <trkpt lat="43.35224" lon="5.66682">
        <ele>313.7</ele>
        <time>2013-02-27T07:53:10Z</time>
      </trkpt>
      <trkpt lat="43.35224" lon="5.66682">
        <ele>315</ele>
        <time>2013-02-27T07:53:11Z</time>
      </trkpt>
      <trkpt lat="43.35209" lon="5.66691">
        <ele>328.2</ele>
        <time>2013-02-27T07:53:23Z</time>
      </trkpt>
      <trkpt lat="43.35202" lon="5.66698">
        <ele>335.6</ele>
        <time>2013-02-27T07:53:31Z</time>
      </trkpt>
      <trkpt lat="43.35195" lon="5.66704">
        <ele>335.1</ele>
        <time>2013-02-27T07:53:39Z</time>
      </trkpt>
      <trkpt lat="43.35189" lon="5.66695">
        <ele>334.8</ele>
        <time>2013-02-27T07:53:51Z</time>
      </trkpt>
      <trkpt lat="43.3519" lon="5.66683">
        <ele>333.7</ele>
        <time>2013-02-27T07:53:59Z</time>
      </trkpt>
      <trkpt lat="43.3519" lon="5.66671">
        <ele>332.1</ele>
        <time>2013-02-27T07:54:07Z</time>
      </trkpt>
      <trkpt lat="43.35191" lon="5.6666">
        <ele>332.1</ele>
        <time>2013-02-27T07:54:14Z</time>
      </trkpt>
      <trkpt lat="43.35191" lon="5.66658">
        <ele>331.8</ele>
        <time>2013-02-27T07:54:15Z</time>
      </trkpt>
      <trkpt lat="43.35191" lon="5.66636">
        <ele>329.3</ele>
        <time>2013-02-27T07:54:30Z</time>
      </trkpt>
      <trkpt lat="43.35192" lon="5.66626">
        <ele>331.7</ele>
        <time>2013-02-27T07:54:35Z</time>
      </trkpt>
      <trkpt lat="43.35192" lon="5.66615">
        <ele>335.7</ele>
        <time>2013-02-27T07:54:40Z</time>
      </trkpt>
      <trkpt lat="43.35193" lon="5.66604">
        <ele>337.5</ele>
        <time>2013-02-27T07:54:46Z</time>
      </trkpt>
      <trkpt lat="43.35193" lon="5.66592">
        <ele>335.5</ele>
        <time>2013-02-27T07:54:54Z</time>
      </trkpt>
      <trkpt lat="43.3519" lon="5.66581">
        <ele>331</ele>
        <time>2013-02-27T07:55:05Z</time>
      </trkpt>
      <trkpt lat="43.35188" lon="5.66569">
        <ele>331.3</ele>
        <time>2013-02-27T07:55:12Z</time>
      </trkpt>
      <trkpt lat="43.35186" lon="5.66558">
        <ele>332.7</ele>
        <time>2013-02-27T07:55:18Z</time>
      </trkpt>
      <trkpt lat="43.35186" lon="5.66557">
        <ele>332.8</ele>
        <time>2013-02-27T07:55:19Z</time>
      </trkpt>
      <trkpt lat="43.3518" lon="5.66536">
        <ele>332.7</ele>
        <time>2013-02-27T07:55:33Z</time>
      </trkpt>
      <trkpt lat="43.35174" lon="5.66527">
        <ele>332.1</ele>
        <time>2013-02-27T07:55:42Z</time>
      </trkpt>
      <trkpt lat="43.35167" lon="5.66521">
        <ele>331.6</ele>
        <time>2013-02-27T07:55:49Z</time>
      </trkpt>
      <trkpt lat="43.3516" lon="5.66519">
        <ele>329.3</ele>
        <time>2013-02-27T07:55:58Z</time>
      </trkpt>
      <trkpt lat="43.35152" lon="5.66517">
        <ele>327.3</ele>
        <time>2013-02-27T07:56:05Z</time>
      </trkpt>
      <trkpt lat="43.35145" lon="5.6651">
        <ele>325.7</ele>
        <time>2013-02-27T07:56:14Z</time>
      </trkpt>
      <trkpt lat="43.35138" lon="5.66504">
        <ele>325.1</ele>
        <time>2013-02-27T07:56:22Z</time>
      </trkpt>
      <trkpt lat="43.35137" lon="5.66503">
        <ele>324.7</ele>
        <time>2013-02-27T07:56:23Z</time>
      </trkpt>
      <trkpt lat="43.35124" lon="5.66492">
        <ele>322.7</ele>
        <time>2013-02-27T07:56:36Z</time>
      </trkpt>
      <trkpt lat="43.35117" lon="5.66485">
        <ele>322.2</ele>
        <time>2013-02-27T07:56:43Z</time>
      </trkpt>
      <trkpt lat="43.35111" lon="5.66478">
        <ele>321.7</ele>
        <time>2013-02-27T07:56:50Z</time>
      </trkpt>
      <trkpt lat="43.35104" lon="5.6647">
        <ele>321.1</ele>
        <time>2013-02-27T07:56:58Z</time>
      </trkpt>
      <trkpt lat="43.35097" lon="5.66463">
        <ele>320.7</ele>
        <time>2013-02-27T07:57:06Z</time>
      </trkpt>
      <trkpt lat="43.3509" lon="5.66456">
        <ele>320</ele>
        <time>2013-02-27T07:57:14Z</time>
      </trkpt>
      <trkpt lat="43.35082" lon="5.66451">
        <ele>318.3</ele>
        <time>2013-02-27T07:57:23Z</time>
      </trkpt>
      <trkpt lat="43.35081" lon="5.66451">
        <ele>318</ele>
        <time>2013-02-27T07:57:24Z</time>
      </trkpt>
      <trkpt lat="43.35065" lon="5.66446">
        <ele>313.2</ele>
        <time>2013-02-27T07:57:41Z</time>
      </trkpt>
      <trkpt lat="43.35057" lon="5.66442">
        <ele>309.3</ele>
        <time>2013-02-27T07:57:50Z</time>
      </trkpt>
      <trkpt lat="43.35049" lon="5.6644">
        <ele>310.1</ele>
        <time>2013-02-27T07:57:57Z</time>
      </trkpt>
      <trkpt lat="43.3504" lon="5.66439">
        <ele>312.3</ele>
        <time>2013-02-27T07:58:03Z</time>
      </trkpt>
      <trkpt lat="43.35032" lon="5.66439">
        <ele>309.2</ele>
        <time>2013-02-27T07:58:12Z</time>
      </trkpt>
      <trkpt lat="43.35023" lon="5.66439">
        <ele>305.1</ele>
        <time>2013-02-27T07:58:21Z</time>
      </trkpt>
      <trkpt lat="43.35014" lon="5.66439">
        <ele>301.8</ele>
        <time>2013-02-27T07:58:29Z</time>
      </trkpt>
      <trkpt lat="43.35013" lon="5.66439">
        <ele>301.1</ele>
        <time>2013-02-27T07:58:30Z</time>
      </trkpt>
      <trkpt lat="43.35002" lon="5.66453">
        <ele>288.7</ele>
        <time>2013-02-27T07:58:48Z</time>
      </trkpt>
      <trkpt lat="43.34993" lon="5.66458">
        <ele>287.7</ele>
        <time>2013-02-27T07:58:56Z</time>
      </trkpt>
      <trkpt lat="43.34986" lon="5.66465">
        <ele>284.7</ele>
        <time>2013-02-27T07:59:05Z</time>
      </trkpt>
      <trkpt lat="43.34979" lon="5.66469">
        <ele>285.6</ele>
        <time>2013-02-27T07:59:11Z</time>
      </trkpt>
      <trkpt lat="43.34972" lon="5.66472">
        <ele>289.1</ele>
        <time>2013-02-27T07:59:16Z</time>
      </trkpt>
      <trkpt lat="43.34964" lon="5.66477">
        <ele>291.7</ele>
        <time>2013-02-27T07:59:22Z</time>
      </trkpt>
      <trkpt lat="43.34957" lon="5.66485">
        <ele>288.1</ele>
        <time>2013-02-27T07:59:31Z</time>
      </trkpt>
      <trkpt lat="43.34957" lon="5.66486">
        <ele>287.2</ele>
        <time>2013-02-27T07:59:32Z</time>
      </trkpt>
      <trkpt lat="43.34946" lon="5.665">
        <ele>284.2</ele>
        <time>2013-02-27T07:59:46Z</time>
      </trkpt>
      <trkpt lat="43.34939" lon="5.66506">
        <ele>287.1</ele>
        <time>2013-02-27T07:59:52Z</time>
      </trkpt>
      <trkpt lat="43.34935" lon="5.66516">
        <ele>283.7</ele>
        <time>2013-02-27T07:59:59Z</time>
      </trkpt>
      <trkpt lat="43.3493" lon="5.66526">
        <ele>281</ele>
        <time>2013-02-27T08:00:07Z</time>
      </trkpt>
      <trkpt lat="43.34926" lon="5.66536">
        <ele>275.7</ele>
        <time>2013-02-27T08:00:15Z</time>
      </trkpt>
      <trkpt lat="43.34923" lon="5.66547">
        <ele>268.6</ele>
        <time>2013-02-27T08:00:23Z</time>
      </trkpt>
      <trkpt lat="43.34917" lon="5.66554">
        <ele>268.1</ele>
        <time>2013-02-27T08:00:30Z</time>
      </trkpt>
      <trkpt lat="43.34909" lon="5.66558">
        <ele>274.2</ele>
        <time>2013-02-27T08:00:35Z</time>
      </trkpt>
      <trkpt lat="43.34907" lon="5.66559">
        <ele>274.2</ele>
        <time>2013-02-27T08:00:36Z</time>
      </trkpt>
      <trkpt lat="43.34894" lon="5.6657">
        <ele>271.6</ele>
        <time>2013-02-27T08:00:51Z</time>
      </trkpt>
      <trkpt lat="43.34886" lon="5.66576">
        <ele>272.7</ele>
        <time>2013-02-27T08:00:57Z</time>
      </trkpt>
      <trkpt lat="43.3488" lon="5.66579">
        <ele>274</ele>
        <time>2013-02-27T08:01:03Z</time>
      </trkpt>
      <trkpt lat="43.34872" lon="5.66584">
        <ele>275.1</ele>
        <time>2013-02-27T08:01:10Z</time>
      </trkpt>
      <trkpt lat="43.34865" lon="5.66589">
        <ele>275.6</ele>
        <time>2013-02-27T08:01:17Z</time>
      </trkpt>
      <trkpt lat="43.34857" lon="5.66596">
        <ele>277.1</ele>
        <time>2013-02-27T08:01:24Z</time>
      </trkpt>
      <trkpt lat="43.3485" lon="5.66603">
        <ele>276.2</ele>
        <time>2013-02-27T08:01:32Z</time>
      </trkpt>
      <trkpt lat="43.34843" lon="5.66609">
        <ele>275.7</ele>
        <time>2013-02-27T08:01:40Z</time>
      </trkpt>
      <trkpt lat="43.34835" lon="5.66612">
        <ele>275.7</ele>
        <time>2013-02-27T08:01:47Z</time>
      </trkpt>
      <trkpt lat="43.34826" lon="5.66613">
        <ele>277.2</ele>
        <time>2013-02-27T08:01:54Z</time>
      </trkpt>
      <trkpt lat="43.34819" lon="5.66612">
        <ele>278.8</ele>
        <time>2013-02-27T08:01:59Z</time>
      </trkpt>
      <trkpt lat="43.34816" lon="5.66612">
        <ele>280.2</ele>
        <time>2013-02-27T08:02:00Z</time>
      </trkpt>
      <trkpt lat="43.34803" lon="5.66615">
        <ele>275.2</ele>
        <time>2013-02-27T08:02:15Z</time>
      </trkpt>
      <trkpt lat="43.34795" lon="5.66615">
        <ele>278.8</ele>
        <time>2013-02-27T08:02:20Z</time>
      </trkpt>
      <trkpt lat="43.34786" lon="5.66615">
        <ele>285.5</ele>
        <time>2013-02-27T08:02:25Z</time>
      </trkpt>
      <trkpt lat="43.3478" lon="5.66624">
        <ele>280.6</ele>
        <time>2013-02-27T08:02:33Z</time>
      </trkpt>
      <trkpt lat="43.34776" lon="5.66634">
        <ele>271</ele>
        <time>2013-02-27T08:02:43Z</time>
      </trkpt>
      <trkpt lat="43.34769" lon="5.66631">
        <ele>274.5</ele>
        <time>2013-02-27T08:02:49Z</time>
      </trkpt>
      <trkpt lat="43.34762" lon="5.66625">
        <ele>278.2</ele>
        <time>2013-02-27T08:02:54Z</time>
      </trkpt>
      <trkpt lat="43.34755" lon="5.66619">
        <ele>279.8</ele>
        <time>2013-02-27T08:03:00Z</time>
      </trkpt>
      <trkpt lat="43.34754" lon="5.66618">
        <ele>279.7</ele>
        <time>2013-02-27T08:03:01Z</time>
      </trkpt>
      <trkpt lat="43.34739" lon="5.66614">
        <ele>281.1</ele>
        <time>2013-02-27T08:03:14Z</time>
      </trkpt>
      <trkpt lat="43.34731" lon="5.66614">
        <ele>280.7</ele>
        <time>2013-02-27T08:03:21Z</time>
      </trkpt>
      <trkpt lat="43.34722" lon="5.66612">
        <ele>276.1</ele>
        <time>2013-02-27T08:03:29Z</time>
      </trkpt>
      <trkpt lat="43.34713" lon="5.66612">
        <ele>270.7</ele>
        <time>2013-02-27T08:03:39Z</time>
      </trkpt>
      <trkpt lat="43.34706" lon="5.66613">
        <ele>270.3</ele>
        <time>2013-02-27T08:03:46Z</time>
      </trkpt>
      <trkpt lat="43.34698" lon="5.66613">
        <ele>272.1</ele>
        <time>2013-02-27T08:03:52Z</time>
      </trkpt>
      <trkpt lat="43.3469" lon="5.66614">
        <ele>271.7</ele>
        <time>2013-02-27T08:03:59Z</time>
      </trkpt>
      <trkpt lat="43.34681" lon="5.66615">
        <ele>272.2</ele>
        <time>2013-02-27T08:04:06Z</time>
      </trkpt>
      <trkpt lat="43.3468" lon="5.66615">
        <ele>272</ele>
        <time>2013-02-27T08:04:07Z</time>
      </trkpt>
      <trkpt lat="43.34665" lon="5.6661">
        <ele>272.7</ele>
        <time>2013-02-27T08:04:23Z</time>
      </trkpt>
      <trkpt lat="43.34663" lon="5.66599">
        <ele>270.8</ele>
        <time>2013-02-27T08:04:30Z</time>
      </trkpt>
      <trkpt lat="43.34662" lon="5.66588">
        <ele>271.6</ele>
        <time>2013-02-27T08:04:37Z</time>
      </trkpt>
      <trkpt lat="43.34666" lon="5.66577">
        <ele>271.2</ele>
        <time>2013-02-27T08:04:47Z</time>
      </trkpt>
      <trkpt lat="43.34673" lon="5.6657">
        <ele>269.8</ele>
        <time>2013-02-27T08:04:57Z</time>
      </trkpt>
      <trkpt lat="43.34681" lon="5.66566">
        <ele>269.7</ele>
        <time>2013-02-27T08:05:05Z</time>
      </trkpt>
      <trkpt lat="43.34687" lon="5.66558">
        <ele>272.5</ele>
        <time>2013-02-27T08:05:13Z</time>
      </trkpt>
      <trkpt lat="43.34688" lon="5.66557">
        <ele>273.3</ele>
        <time>2013-02-27T08:05:14Z</time>
      </trkpt>
      <trkpt lat="43.34698" lon="5.66558">
        <ele>276.7</ele>
        <time>2013-02-27T08:05:50Z</time>
      </trkpt>
      <trkpt lat="43.34692" lon="5.66549">
        <ele>283</ele>
        <time>2013-02-27T08:06:25Z</time>
      </trkpt>
      <trkpt lat="43.34691" lon="5.66549">
        <ele>283.3</ele>
        <time>2013-02-27T08:06:26Z</time>
      </trkpt>
      <trkpt lat="43.34675" lon="5.66548">
        <ele>275</ele>
        <time>2013-02-27T08:07:09Z</time>
      </trkpt>
      <trkpt lat="43.34666" lon="5.66551">
        <ele>273.7</ele>
        <time>2013-02-27T08:07:23Z</time>
      </trkpt>
      <trkpt lat="43.34658" lon="5.66549">
        <ele>276.5</ele>
        <time>2013-02-27T08:07:35Z</time>
      </trkpt>
      <trkpt lat="43.34657" lon="5.66549">
        <ele>276.3</ele>
        <time>2013-02-27T08:07:36Z</time>
      </trkpt>
      <trkpt lat="43.34641" lon="5.66543">
        <ele>281.2</ele>
        <time>2013-02-27T08:08:00Z</time>
      </trkpt>
      <trkpt lat="43.34633" lon="5.66539">
        <ele>283.7</ele>
        <time>2013-02-27T08:08:12Z</time>
      </trkpt>
      <trkpt lat="43.34626" lon="5.66539">
        <ele>288.7</ele>
        <time>2013-02-27T08:08:18Z</time>
      </trkpt>
      <trkpt lat="43.34619" lon="5.66534">
        <ele>295.7</ele>
        <time>2013-02-27T08:08:25Z</time>
      </trkpt>
      <trkpt lat="43.34614" lon="5.66526">
        <ele>296.1</ele>
        <time>2013-02-27T08:08:32Z</time>
      </trkpt>
      <trkpt lat="43.34608" lon="5.66517">
        <ele>294.6</ele>
        <time>2013-02-27T08:08:42Z</time>
      </trkpt>
      <trkpt lat="43.34608" lon="5.66517">
        <ele>295</ele>
        <time>2013-02-27T08:08:43Z</time>
      </trkpt>
      <trkpt lat="43.34594" lon="5.66506">
        <ele>302.1</ele>
        <time>2013-02-27T08:08:58Z</time>
      </trkpt>
      <trkpt lat="43.34585" lon="5.66504">
        <ele>298.3</ele>
        <time>2013-02-27T08:09:09Z</time>
      </trkpt>
      <trkpt lat="43.34577" lon="5.66503">
        <ele>292.1</ele>
        <time>2013-02-27T08:09:22Z</time>
      </trkpt>
      <trkpt lat="43.34569" lon="5.66504">
        <ele>292.7</ele>
        <time>2013-02-27T08:09:31Z</time>
      </trkpt>
      <trkpt lat="43.34561" lon="5.66505">
        <ele>293.2</ele>
        <time>2013-02-27T08:09:38Z</time>
      </trkpt>
      <trkpt lat="43.34553" lon="5.66505">
        <ele>292.6</ele>
        <time>2013-02-27T08:09:45Z</time>
      </trkpt>
      <trkpt lat="43.34552" lon="5.66505">
        <ele>292.7</ele>
        <time>2013-02-27T08:09:46Z</time>
      </trkpt>
      <trkpt lat="43.34536" lon="5.66499">
        <ele>292.2</ele>
        <time>2013-02-27T08:10:01Z</time>
      </trkpt>
      <trkpt lat="43.34529" lon="5.66493">
        <ele>292.6</ele>
        <time>2013-02-27T08:10:10Z</time>
      </trkpt>
      <trkpt lat="43.34522" lon="5.66487">
        <ele>293.8</ele>
        <time>2013-02-27T08:10:19Z</time>
      </trkpt>
      <trkpt lat="43.34517" lon="5.66477">
        <ele>291.1</ele>
        <time>2013-02-27T08:10:31Z</time>
      </trkpt>
      <trkpt lat="43.34512" lon="5.66468">
        <ele>293.7</ele>
        <time>2013-02-27T08:10:40Z</time>
      </trkpt>
      <trkpt lat="43.34505" lon="5.66461">
        <ele>298.8</ele>
        <time>2013-02-27T08:10:47Z</time>
      </trkpt>
      <trkpt lat="43.34504" lon="5.66459">
        <ele>298.3</ele>
        <time>2013-02-27T08:10:48Z</time>
      </trkpt>
      <trkpt lat="43.34503" lon="5.66439">
        <ele>314.1</ele>
        <time>2013-02-27T08:11:04Z</time>
      </trkpt>
      <trkpt lat="43.34498" lon="5.66429">
        <ele>328.7</ele>
        <time>2013-02-27T08:11:10Z</time>
      </trkpt>
      <trkpt lat="43.34492" lon="5.66421">
        <ele>344.6</ele>
        <time>2013-02-27T08:11:19Z</time>
      </trkpt>
      <trkpt lat="43.34495" lon="5.6641">
        <ele>341</ele>
        <time>2013-02-27T08:11:33Z</time>
      </trkpt>
      <trkpt lat="43.34499" lon="5.66399">
        <ele>344.7</ele>
        <time>2013-02-27T08:11:44Z</time>
      </trkpt>
      <trkpt lat="43.34501" lon="5.66387">
        <ele>345.8</ele>
        <time>2013-02-27T08:11:49Z</time>
      </trkpt>
      <trkpt lat="43.34501" lon="5.66386">
        <ele>346.2</ele>
        <time>2013-02-27T08:11:50Z</time>
      </trkpt>
      <trkpt lat="43.34493" lon="5.66367">
        <ele>332.1</ele>
        <time>2013-02-27T08:12:01Z</time>
      </trkpt>
      <trkpt lat="43.34491" lon="5.66355">
        <ele>325.6</ele>
        <time>2013-02-27T08:12:07Z</time>
      </trkpt>
      <trkpt lat="43.34486" lon="5.66347">
        <ele>321.5</ele>
        <time>2013-02-27T08:12:16Z</time>
      </trkpt>
      <trkpt lat="43.34482" lon="5.66336">
        <ele>318.8</ele>
        <time>2013-02-27T08:12:25Z</time>
      </trkpt>
      <trkpt lat="43.3448" lon="5.66326">
        <ele>321.8</ele>
        <time>2013-02-27T08:12:33Z</time>
      </trkpt>
      <trkpt lat="43.34476" lon="5.66316">
        <ele>317.8</ele>
        <time>2013-02-27T08:12:43Z</time>
      </trkpt>
      <trkpt lat="43.34473" lon="5.66305">
        <ele>315.5</ele>
        <time>2013-02-27T08:12:59Z</time>
      </trkpt>
      <trkpt lat="43.34473" lon="5.66304">
        <ele>315.8</ele>
        <time>2013-02-27T08:13:00Z</time>
      </trkpt>
      <trkpt lat="43.34459" lon="5.66292">
        <ele>314.7</ele>
        <time>2013-02-27T08:13:16Z</time>
      </trkpt>
      <trkpt lat="43.34453" lon="5.66284">
        <ele>317.5</ele>
        <time>2013-02-27T08:13:27Z</time>
      </trkpt>
      <trkpt lat="43.34449" lon="5.66273">
        <ele>314.7</ele>
        <time>2013-02-27T08:13:39Z</time>
      </trkpt>
      <trkpt lat="43.34441" lon="5.6627">
        <ele>311.2</ele>
        <time>2013-02-27T08:13:57Z</time>
      </trkpt>
      <trkpt lat="43.34433" lon="5.66267">
        <ele>313.5</ele>
        <time>2013-02-27T08:14:13Z</time>
      </trkpt>
      <trkpt lat="43.34432" lon="5.66268">
        <ele>313.3</ele>
        <time>2013-02-27T08:14:14Z</time>
      </trkpt>
      <trkpt lat="43.34426" lon="5.66246">
        <ele>310.1</ele>
        <time>2013-02-27T08:14:44Z</time>
      </trkpt>
      <trkpt lat="43.34419" lon="5.66244">
        <ele>309.1</ele>
        <time>2013-02-27T08:15:25Z</time>
      </trkpt>
      <trkpt lat="43.34417" lon="5.66245">
        <ele>311</ele>
        <time>2013-02-27T08:15:26Z</time>
      </trkpt>
      <trkpt lat="43.34416" lon="5.66232">
        <ele>311.6</ele>
        <time>2013-02-27T08:16:38Z</time>
      </trkpt>
      <trkpt lat="43.34411" lon="5.66235">
        <ele>318.8</ele>
        <time>2013-02-27T08:17:56Z</time>
      </trkpt>
      <trkpt lat="43.34411" lon="5.66234">
        <ele>318.7</ele>
        <time>2013-02-27T08:17:57Z</time>
      </trkpt>
      <trkpt lat="43.34408" lon="5.66213">
        <ele>305.7</ele>
        <time>2013-02-27T08:18:21Z</time>
      </trkpt>
      <trkpt lat="43.34401" lon="5.66207">
        <ele>302.7</ele>
        <time>2013-02-27T08:18:29Z</time>
      </trkpt>
      <trkpt lat="43.34397" lon="5.66197">
        <ele>299.5</ele>
        <time>2013-02-27T08:18:39Z</time>
      </trkpt>
      <trkpt lat="43.34394" lon="5.66187">
        <ele>297.8</ele>
        <time>2013-02-27T08:18:47Z</time>
      </trkpt>
      <trkpt lat="43.34388" lon="5.66178">
        <ele>296</ele>
        <time>2013-02-27T08:18:55Z</time>
      </trkpt>
      <trkpt lat="43.34381" lon="5.6617">
        <ele>297</ele>
        <time>2013-02-27T08:19:05Z</time>
      </trkpt>
      <trkpt lat="43.3438" lon="5.66169">
        <ele>297.1</ele>
        <time>2013-02-27T08:19:06Z</time>
      </trkpt>
      <trkpt lat="43.34371" lon="5.66153">
        <ele>299.3</ele>
        <time>2013-02-27T08:19:19Z</time>
      </trkpt>
      <trkpt lat="43.34365" lon="5.66147">
        <ele>304.2</ele>
        <time>2013-02-27T08:19:25Z</time>
      </trkpt>
      <trkpt lat="43.34358" lon="5.66141">
        <ele>308.3</ele>
        <time>2013-02-27T08:19:32Z</time>
      </trkpt>
      <trkpt lat="43.34351" lon="5.66134">
        <ele>312.8</ele>
        <time>2013-02-27T08:19:40Z</time>
      </trkpt>
      <trkpt lat="43.34343" lon="5.66129">
        <ele>313.3</ele>
        <time>2013-02-27T08:19:50Z</time>
      </trkpt>
      <trkpt lat="43.34334" lon="5.66127">
        <ele>313.5</ele>
        <time>2013-02-27T08:20:00Z</time>
      </trkpt>
      <trkpt lat="43.34327" lon="5.66126">
        <ele>317.2</ele>
        <time>2013-02-27T08:20:06Z</time>
      </trkpt>
      <trkpt lat="43.34325" lon="5.66127">
        <ele>319.1</ele>
        <time>2013-02-27T08:20:07Z</time>
      </trkpt>
      <trkpt lat="43.34311" lon="5.66132">
        <ele>316.7</ele>
        <time>2013-02-27T08:20:33Z</time>
      </trkpt>
      <trkpt lat="43.34303" lon="5.66136">
        <ele>311.3</ele>
        <time>2013-02-27T08:20:41Z</time>
      </trkpt>
      <trkpt lat="43.34295" lon="5.6614">
        <ele>309.7</ele>
        <time>2013-02-27T08:20:50Z</time>
      </trkpt>
      <trkpt lat="43.34287" lon="5.66141">
        <ele>305.8</ele>
        <time>2013-02-27T08:20:59Z</time>
      </trkpt>
      <trkpt lat="43.34279" lon="5.66143">
        <ele>303.2</ele>
        <time>2013-02-27T08:21:08Z</time>
      </trkpt>
      <trkpt lat="43.34278" lon="5.66144">
        <ele>302.6</ele>
        <time>2013-02-27T08:21:09Z</time>
      </trkpt>
      <trkpt lat="43.34263" lon="5.66145">
        <ele>319.1</ele>
        <time>2013-02-27T08:21:28Z</time>
      </trkpt>
      <trkpt lat="43.34255" lon="5.66148">
        <ele>330.7</ele>
        <time>2013-02-27T08:21:39Z</time>
      </trkpt>
      <trkpt lat="43.34254" lon="5.6616">
        <ele>329</ele>
        <time>2013-02-27T08:21:49Z</time>
      </trkpt>
      <trkpt lat="43.34247" lon="5.66167">
        <ele>328.3</ele>
        <time>2013-02-27T08:22:01Z</time>
      </trkpt>
      <trkpt lat="43.34239" lon="5.66171">
        <ele>331.1</ele>
        <time>2013-02-27T08:22:10Z</time>
      </trkpt>
      <trkpt lat="43.34238" lon="5.66172">
        <ele>330.7</ele>
        <time>2013-02-27T08:22:11Z</time>
      </trkpt>
      <trkpt lat="43.34226" lon="5.66186">
        <ele>331.7</ele>
        <time>2013-02-27T08:22:32Z</time>
      </trkpt>
      <trkpt lat="43.34224" lon="5.66198">
        <ele>336.7</ele>
        <time>2013-02-27T08:22:44Z</time>
      </trkpt>
      <trkpt lat="43.3422" lon="5.66209">
        <ele>342.6</ele>
        <time>2013-02-27T08:22:56Z</time>
      </trkpt>
      <trkpt lat="43.34214" lon="5.66217">
        <ele>346.3</ele>
        <time>2013-02-27T08:23:04Z</time>
      </trkpt>
      <trkpt lat="43.3421" lon="5.66226">
        <ele>343.7</ele>
        <time>2013-02-27T08:23:12Z</time>
      </trkpt>
      <trkpt lat="43.34209" lon="5.66227">
        <ele>343.3</ele>
        <time>2013-02-27T08:23:13Z</time>
      </trkpt>
      <trkpt lat="43.34197" lon="5.66241">
        <ele>341.7</ele>
        <time>2013-02-27T08:23:27Z</time>
      </trkpt>
      <trkpt lat="43.34191" lon="5.66249">
        <ele>334.2</ele>
        <time>2013-02-27T08:23:41Z</time>
      </trkpt>
      <trkpt lat="43.34184" lon="5.66256">
        <ele>334.2</ele>
        <time>2013-02-27T08:23:54Z</time>
      </trkpt>
      <trkpt lat="43.34179" lon="5.66265">
        <ele>333.8</ele>
        <time>2013-02-27T08:24:06Z</time>
      </trkpt>
      <trkpt lat="43.34181" lon="5.66277">
        <ele>337.6</ele>
        <time>2013-02-27T08:24:14Z</time>
      </trkpt>
      <trkpt lat="43.34181" lon="5.66278">
        <ele>338</ele>
        <time>2013-02-27T08:24:15Z</time>
      </trkpt>
      <trkpt lat="43.34164" lon="5.66283">
        <ele>347.8</ele>
        <time>2013-02-27T08:24:39Z</time>
      </trkpt>
      <trkpt lat="43.34158" lon="5.66292">
        <ele>350.3</ele>
        <time>2013-02-27T08:24:50Z</time>
      </trkpt>
      <trkpt lat="43.34152" lon="5.66301">
        <ele>350.8</ele>
        <time>2013-02-27T08:25:00Z</time>
      </trkpt>
      <trkpt lat="43.34145" lon="5.66308">
        <ele>348.8</ele>
        <time>2013-02-27T08:25:12Z</time>
      </trkpt>
      <trkpt lat="43.34142" lon="5.66319">
        <ele>352.3</ele>
        <time>2013-02-27T08:25:24Z</time>
      </trkpt>
      <trkpt lat="43.34142" lon="5.6632">
        <ele>352.3</ele>
        <time>2013-02-27T08:25:25Z</time>
      </trkpt>
      <trkpt lat="43.34133" lon="5.66338">
        <ele>356</ele>
        <time>2013-02-27T08:25:49Z</time>
      </trkpt>
      <trkpt lat="43.34125" lon="5.66342">
        <ele>353.3</ele>
        <time>2013-02-27T08:25:58Z</time>
      </trkpt>
      <trkpt lat="43.34119" lon="5.66349">
        <ele>355.3</ele>
        <time>2013-02-27T08:26:08Z</time>
      </trkpt>
      <trkpt lat="43.34111" lon="5.66347">
        <ele>358.6</ele>
        <time>2013-02-27T08:26:16Z</time>
      </trkpt>
      <trkpt lat="43.34102" lon="5.66349">
        <ele>366.2</ele>
        <time>2013-02-27T08:26:25Z</time>
      </trkpt>
      <trkpt lat="43.34101" lon="5.66349">
        <ele>366.8</ele>
        <time>2013-02-27T08:26:26Z</time>
      </trkpt>
      <trkpt lat="43.3409" lon="5.66366">
        <ele>357.3</ele>
        <time>2013-02-27T08:26:47Z</time>
      </trkpt>
      <trkpt lat="43.34084" lon="5.66359">
        <ele>354</ele>
        <time>2013-02-27T08:28:41Z</time>
      </trkpt>
      <trkpt lat="43.34083" lon="5.66357">
        <ele>354.6</ele>
        <time>2013-02-27T08:28:42Z</time>
      </trkpt>
      <trkpt lat="43.34068" lon="5.66367">
        <ele>374.1</ele>
        <time>2013-02-27T08:29:52Z</time>
      </trkpt>
      <trkpt lat="43.34067" lon="5.66367">
        <ele>375.3</ele>
        <time>2013-02-27T08:29:53Z</time>
      </trkpt>
      <trkpt lat="43.34052" lon="5.66363">
        <ele>366.6</ele>
        <time>2013-02-27T08:31:10Z</time>
      </trkpt>
      <trkpt lat="43.34051" lon="5.66363">
        <ele>367.2</ele>
        <time>2013-02-27T08:31:11Z</time>
      </trkpt>
      <trkpt lat="43.34036" lon="5.66353">
        <ele>383</ele>
        <time>2013-02-27T08:31:41Z</time>
      </trkpt>
      <trkpt lat="43.34028" lon="5.6635">
        <ele>394.6</ele>
        <time>2013-02-27T08:31:51Z</time>
      </trkpt>
      <trkpt lat="43.34019" lon="5.66346">
        <ele>387.3</ele>
        <time>2013-02-27T08:32:17Z</time>
      </trkpt>
      <trkpt lat="43.34018" lon="5.66346">
        <ele>389.2</ele>
        <time>2013-02-27T08:32:18Z</time>
      </trkpt>
      <trkpt lat="43.34004" lon="5.66338">
        <ele>389.1</ele>
        <time>2013-02-27T08:32:47Z</time>
      </trkpt>
      <trkpt lat="43.33998" lon="5.66332">
        <ele>393.7</ele>
        <time>2013-02-27T08:32:55Z</time>
      </trkpt>
      <trkpt lat="43.3399" lon="5.66327">
        <ele>402.6</ele>
        <time>2013-02-27T08:33:05Z</time>
      </trkpt>
      <trkpt lat="43.33981" lon="5.66326">
        <ele>401.2</ele>
        <time>2013-02-27T08:33:18Z</time>
      </trkpt>
      <trkpt lat="43.3398" lon="5.66326">
        <ele>401.7</ele>
        <time>2013-02-27T08:33:19Z</time>
      </trkpt>
      <trkpt lat="43.33968" lon="5.66316">
        <ele>378.8</ele>
        <time>2013-02-27T08:33:52Z</time>
      </trkpt>
      <trkpt lat="43.3396" lon="5.66313">
        <ele>382.7</ele>
        <time>2013-02-27T08:34:05Z</time>
      </trkpt>
      <trkpt lat="43.33953" lon="5.66305">
        <ele>381.5</ele>
        <time>2013-02-27T08:34:24Z</time>
      </trkpt>
      <trkpt lat="43.33953" lon="5.66305">
        <ele>381.7</ele>
        <time>2013-02-27T08:34:25Z</time>
      </trkpt>
      <trkpt lat="43.33941" lon="5.66293">
        <ele>395.2</ele>
        <time>2013-02-27T08:35:00Z</time>
      </trkpt>
      <trkpt lat="43.33935" lon="5.6629">
        <ele>415.5</ele>
        <time>2013-02-27T08:35:03Z</time>
      </trkpt>
      <trkpt lat="43.33927" lon="5.66289">
        <ele>438</ele>
        <time>2013-02-27T08:35:07Z</time>
      </trkpt>
      <trkpt lat="43.33925" lon="5.66301">
        <ele>391</ele>
        <time>2013-02-27T08:36:16Z</time>
      </trkpt>
      <trkpt lat="43.33926" lon="5.66301">
        <ele>389.8</ele>
        <time>2013-02-27T08:36:17Z</time>
      </trkpt>
      <trkpt lat="43.33934" lon="5.66319">
        <ele>375.2</ele>
        <time>2013-02-27T08:36:33Z</time>
      </trkpt>
      <trkpt lat="43.33928" lon="5.66312">
        <ele>394.7</ele>
        <time>2013-02-27T08:37:04Z</time>
      </trkpt>
      <trkpt lat="43.3392" lon="5.66307">
        <ele>404.7</ele>
        <time>2013-02-27T08:37:13Z</time>
      </trkpt>
      <trkpt lat="43.33915" lon="5.66297">
        <ele>414.2</ele>
        <time>2013-02-27T08:37:23Z</time>
      </trkpt>
      <trkpt lat="43.33914" lon="5.66296">
        <ele>416.2</ele>
        <time>2013-02-27T08:37:24Z</time>
      </trkpt>
      <trkpt lat="43.33901" lon="5.66287">
        <ele>419.7</ele>
        <time>2013-02-27T08:37:43Z</time>
      </trkpt>
      <trkpt lat="43.33895" lon="5.66278">
        <ele>426.6</ele>
        <time>2013-02-27T08:37:48Z</time>
      </trkpt>
      <trkpt lat="43.33889" lon="5.66272">
        <ele>430.2</ele>
        <time>2013-02-27T08:37:55Z</time>
      </trkpt>
      <trkpt lat="43.33881" lon="5.66269">
        <ele>427.2</ele>
        <time>2013-02-27T08:38:04Z</time>
      </trkpt>
      <trkpt lat="43.33873" lon="5.6627">
        <ele>433.2</ele>
        <time>2013-02-27T08:38:09Z</time>
      </trkpt>
      <trkpt lat="43.33866" lon="5.66267">
        <ele>440.5</ele>
        <time>2013-02-27T08:38:14Z</time>
      </trkpt>
      <trkpt lat="43.3386" lon="5.66258">
        <ele>431.8</ele>
        <time>2013-02-27T08:38:23Z</time>
      </trkpt>
      <trkpt lat="43.33859" lon="5.66247">
        <ele>413.5</ele>
        <time>2013-02-27T08:38:31Z</time>
      </trkpt>
      <trkpt lat="43.33859" lon="5.66246">
        <ele>412.7</ele>
        <time>2013-02-27T08:38:32Z</time>
      </trkpt>
      <trkpt lat="43.33847" lon="5.66231">
        <ele>428.7</ele>
        <time>2013-02-27T08:39:09Z</time>
      </trkpt>
      <trkpt lat="43.33846" lon="5.66219">
        <ele>431.7</ele>
        <time>2013-02-27T08:39:26Z</time>
      </trkpt>
      <trkpt lat="43.33843" lon="5.66209">
        <ele>428.2</ele>
        <time>2013-02-27T08:39:38Z</time>
      </trkpt>
      <trkpt lat="43.33843" lon="5.66208">
        <ele>429.1</ele>
        <time>2013-02-27T08:39:39Z</time>
      </trkpt>
      <trkpt lat="43.3383" lon="5.66197">
        <ele>420.7</ele>
        <time>2013-02-27T08:40:03Z</time>
      </trkpt>
      <trkpt lat="43.33822" lon="5.66199">
        <ele>415</ele>
        <time>2013-02-27T08:40:16Z</time>
      </trkpt>
      <trkpt lat="43.33813" lon="5.66194">
        <ele>425.3</ele>
        <time>2013-02-27T08:40:28Z</time>
      </trkpt>
      <trkpt lat="43.33805" lon="5.66196">
        <ele>422.1</ele>
        <time>2013-02-27T08:40:42Z</time>
      </trkpt>
      <trkpt lat="43.33804" lon="5.66197">
        <ele>422</ele>
        <time>2013-02-27T08:40:43Z</time>
      </trkpt>
      <trkpt lat="43.33793" lon="5.66212">
        <ele>424.6</ele>
        <time>2013-02-27T08:41:00Z</time>
      </trkpt>
      <trkpt lat="43.33789" lon="5.66222">
        <ele>428.8</ele>
        <time>2013-02-27T08:41:09Z</time>
      </trkpt>
      <trkpt lat="43.33785" lon="5.66232">
        <ele>431.3</ele>
        <time>2013-02-27T08:41:18Z</time>
      </trkpt>
      <trkpt lat="43.33781" lon="5.66243">
        <ele>429.7</ele>
        <time>2013-02-27T08:41:29Z</time>
      </trkpt>
      <trkpt lat="43.33777" lon="5.66253">
        <ele>423.1</ele>
        <time>2013-02-27T08:41:44Z</time>
      </trkpt>
      <trkpt lat="43.33777" lon="5.66254">
        <ele>423.2</ele>
        <time>2013-02-27T08:41:45Z</time>
      </trkpt>
      <trkpt lat="43.33768" lon="5.66275">
        <ele>420.6</ele>
        <time>2013-02-27T08:42:09Z</time>
      </trkpt>
      <trkpt lat="43.33763" lon="5.66283">
        <ele>423.2</ele>
        <time>2013-02-27T08:42:18Z</time>
      </trkpt>
      <trkpt lat="43.33758" lon="5.66292">
        <ele>421.2</ele>
        <time>2013-02-27T08:42:28Z</time>
      </trkpt>
      <trkpt lat="43.33754" lon="5.66302">
        <ele>420.7</ele>
        <time>2013-02-27T08:42:38Z</time>
      </trkpt>
      <trkpt lat="43.33749" lon="5.66312">
        <ele>420.2</ele>
        <time>2013-02-27T08:42:48Z</time>
      </trkpt>
      <trkpt lat="43.33749" lon="5.66313">
        <ele>420.5</ele>
        <time>2013-02-27T08:42:49Z</time>
      </trkpt>
      <trkpt lat="43.33737" lon="5.66327">
        <ele>425.7</ele>
        <time>2013-02-27T08:43:08Z</time>
      </trkpt>
      <trkpt lat="43.33731" lon="5.66336">
        <ele>426.7</ele>
        <time>2013-02-27T08:43:18Z</time>
      </trkpt>
      <trkpt lat="43.33725" lon="5.66346">
        <ele>432.7</ele>
        <time>2013-02-27T08:43:27Z</time>
      </trkpt>
      <trkpt lat="43.3372" lon="5.66355">
        <ele>434</ele>
        <time>2013-02-27T08:43:37Z</time>
      </trkpt>
      <trkpt lat="43.33711" lon="5.66359">
        <ele>435.7</ele>
        <time>2013-02-27T08:43:49Z</time>
      </trkpt>
      <trkpt lat="43.33711" lon="5.66359">
        <ele>436</ele>
        <time>2013-02-27T08:43:50Z</time>
      </trkpt>
      <trkpt lat="43.33695" lon="5.66367">
        <ele>439.2</ele>
        <time>2013-02-27T08:44:18Z</time>
      </trkpt>
      <trkpt lat="43.33687" lon="5.66372">
        <ele>439.8</ele>
        <time>2013-02-27T08:44:33Z</time>
      </trkpt>
      <trkpt lat="43.33684" lon="5.66383">
        <ele>441.6</ele>
        <time>2013-02-27T08:44:42Z</time>
      </trkpt>
      <trkpt lat="43.3368" lon="5.66393">
        <ele>443.8</ele>
        <time>2013-02-27T08:44:54Z</time>
      </trkpt>
      <trkpt lat="43.33679" lon="5.66394">
        <ele>443.8</ele>
        <time>2013-02-27T08:44:55Z</time>
      </trkpt>
      <trkpt lat="43.33668" lon="5.66409">
        <ele>451.2</ele>
        <time>2013-02-27T08:45:26Z</time>
      </trkpt>
      <trkpt lat="43.33662" lon="5.66418">
        <ele>453.6</ele>
        <time>2013-02-27T08:45:43Z</time>
      </trkpt>
      <trkpt lat="43.33655" lon="5.66427">
        <ele>455.7</ele>
        <time>2013-02-27T08:45:59Z</time>
      </trkpt>
      <trkpt lat="43.33655" lon="5.66427">
        <ele>456.1</ele>
        <time>2013-02-27T08:46:00Z</time>
      </trkpt>
      <trkpt lat="43.33643" lon="5.66444">
        <ele>460.1</ele>
        <time>2013-02-27T08:46:36Z</time>
      </trkpt>
      <trkpt lat="43.33636" lon="5.66451">
        <ele>462.7</ele>
        <time>2013-02-27T08:46:46Z</time>
      </trkpt>
      <trkpt lat="43.33631" lon="5.6646">
        <ele>462.8</ele>
        <time>2013-02-27T08:46:58Z</time>
      </trkpt>
      <trkpt lat="43.33625" lon="5.66468">
        <ele>461.5</ele>
        <time>2013-02-27T08:47:10Z</time>
      </trkpt>
      <trkpt lat="43.33625" lon="5.66469">
        <ele>461.8</ele>
        <time>2013-02-27T08:47:11Z</time>
      </trkpt>
      <trkpt lat="43.33612" lon="5.66484">
        <ele>457.1</ele>
        <time>2013-02-27T08:47:34Z</time>
      </trkpt>
      <trkpt lat="43.33604" lon="5.66491">
        <ele>457.5</ele>
        <time>2013-02-27T08:47:46Z</time>
      </trkpt>
      <trkpt lat="43.33597" lon="5.66496">
        <ele>459.3</ele>
        <time>2013-02-27T08:47:55Z</time>
      </trkpt>
      <trkpt lat="43.3359" lon="5.66503">
        <ele>463.7</ele>
        <time>2013-02-27T08:48:06Z</time>
      </trkpt>
      <trkpt lat="43.33583" lon="5.66509">
        <ele>466.1</ele>
        <time>2013-02-27T08:48:16Z</time>
      </trkpt>
      <trkpt lat="43.33582" lon="5.6651">
        <ele>465.7</ele>
        <time>2013-02-27T08:48:17Z</time>
      </trkpt>
      <trkpt lat="43.33572" lon="5.66527">
        <ele>470.2</ele>
        <time>2013-02-27T08:48:32Z</time>
      </trkpt>
      <trkpt lat="43.33568" lon="5.66537">
        <ele>470.3</ele>
        <time>2013-02-27T08:48:41Z</time>
      </trkpt>
      <trkpt lat="43.33563" lon="5.66547">
        <ele>468.2</ele>
        <time>2013-02-27T08:48:50Z</time>
      </trkpt>
      <trkpt lat="43.33562" lon="5.66559">
        <ele>467.5</ele>
        <time>2013-02-27T08:49:02Z</time>
      </trkpt>
      <trkpt lat="43.33561" lon="5.66571">
        <ele>467.5</ele>
        <time>2013-02-27T08:49:13Z</time>
      </trkpt>
      <trkpt lat="43.33557" lon="5.66581">
        <ele>467.2</ele>
        <time>2013-02-27T08:49:26Z</time>
      </trkpt>
      <trkpt lat="43.33556" lon="5.66582">
        <ele>467.7</ele>
        <time>2013-02-27T08:49:27Z</time>
      </trkpt>
      <trkpt lat="43.33543" lon="5.66595">
        <ele>471.8</ele>
        <time>2013-02-27T08:49:48Z</time>
      </trkpt>
      <trkpt lat="43.33537" lon="5.66602">
        <ele>474.6</ele>
        <time>2013-02-27T08:49:58Z</time>
      </trkpt>
      <trkpt lat="43.33534" lon="5.66614">
        <ele>480.7</ele>
        <time>2013-02-27T08:50:09Z</time>
      </trkpt>
      <trkpt lat="43.33529" lon="5.66624">
        <ele>484.5</ele>
        <time>2013-02-27T08:50:19Z</time>
      </trkpt>
      <trkpt lat="43.33522" lon="5.66631">
        <ele>488.2</ele>
        <time>2013-02-27T08:50:31Z</time>
      </trkpt>
      <trkpt lat="43.33522" lon="5.66632">
        <ele>488.2</ele>
        <time>2013-02-27T08:50:32Z</time>
      </trkpt>
      <trkpt lat="43.3351" lon="5.66646">
        <ele>485.3</ele>
        <time>2013-02-27T08:51:11Z</time>
      </trkpt>
      <trkpt lat="43.33503" lon="5.66654">
        <ele>485.1</ele>
        <time>2013-02-27T08:51:26Z</time>
      </trkpt>
      <trkpt lat="43.33498" lon="5.66664">
        <ele>484.3</ele>
        <time>2013-02-27T08:51:39Z</time>
      </trkpt>
      <trkpt lat="43.33498" lon="5.66664">
        <ele>484.2</ele>
        <time>2013-02-27T08:51:40Z</time>
      </trkpt>
      <trkpt lat="43.33491" lon="5.6667">
        <ele>486.7</ele>
        <time>2013-02-27T08:59:36Z</time>
      </trkpt>
      <trkpt lat="43.33485" lon="5.6668">
        <ele>482.5</ele>
        <time>2013-02-27T09:01:30Z</time>
      </trkpt>
      <trkpt lat="43.33474" lon="5.66695">
        <ele>480.7</ele>
        <time>2013-02-27T09:01:48Z</time>
      </trkpt>
      <trkpt lat="43.33466" lon="5.66701">
        <ele>478.6</ele>
        <time>2013-02-27T09:01:59Z</time>
      </trkpt>
      <trkpt lat="43.33459" lon="5.66708">
        <ele>481.8</ele>
        <time>2013-02-27T09:02:10Z</time>
      </trkpt>
      <trkpt lat="43.33453" lon="5.66717">
        <ele>484.7</ele>
        <time>2013-02-27T09:02:18Z</time>
      </trkpt>
      <trkpt lat="43.33449" lon="5.66727">
        <ele>487.7</ele>
        <time>2013-02-27T09:02:27Z</time>
      </trkpt>
      <trkpt lat="43.33447" lon="5.66739">
        <ele>489.1</ele>
        <time>2013-02-27T09:02:39Z</time>
      </trkpt>
      <trkpt lat="43.33447" lon="5.66739">
        <ele>488.7</ele>
        <time>2013-02-27T09:02:40Z</time>
      </trkpt>
      <trkpt lat="43.33451" lon="5.66762">
        <ele>489.3</ele>
        <time>2013-02-27T09:03:13Z</time>
      </trkpt>
      <trkpt lat="43.33455" lon="5.66771">
        <ele>490.1</ele>
        <time>2013-02-27T09:03:28Z</time>
      </trkpt>
      <trkpt lat="43.33458" lon="5.66783">
        <ele>491.5</ele>
        <time>2013-02-27T09:03:46Z</time>
      </trkpt>
      <trkpt lat="43.33458" lon="5.66784">
        <ele>491.7</ele>
        <time>2013-02-27T09:03:47Z</time>
      </trkpt>
      <trkpt lat="43.33461" lon="5.66806">
        <ele>494.3</ele>
        <time>2013-02-27T09:04:18Z</time>
      </trkpt>
      <trkpt lat="43.33461" lon="5.66818">
        <ele>494.1</ele>
        <time>2013-02-27T09:04:29Z</time>
      </trkpt>
      <trkpt lat="43.33458" lon="5.66828">
        <ele>493.7</ele>
        <time>2013-02-27T09:04:39Z</time>
      </trkpt>
      <trkpt lat="43.33452" lon="5.66838">
        <ele>495.2</ele>
        <time>2013-02-27T09:04:49Z</time>
      </trkpt>
      <trkpt lat="43.33452" lon="5.66839">
        <ele>495.7</ele>
        <time>2013-02-27T09:04:50Z</time>
      </trkpt>
      <trkpt lat="43.33444" lon="5.66858">
        <ele>499.8</ele>
        <time>2013-02-27T09:05:09Z</time>
      </trkpt>
      <trkpt lat="43.33439" lon="5.66867">
        <ele>501.2</ele>
        <time>2013-02-27T09:05:17Z</time>
      </trkpt>
      <trkpt lat="43.33434" lon="5.66876">
        <ele>502.3</ele>
        <time>2013-02-27T09:05:25Z</time>
      </trkpt>
      <trkpt lat="43.33429" lon="5.66887">
        <ele>502.7</ele>
        <time>2013-02-27T09:05:35Z</time>
      </trkpt>
      <trkpt lat="43.33426" lon="5.66898">
        <ele>501.7</ele>
        <time>2013-02-27T09:05:48Z</time>
      </trkpt>
      <trkpt lat="43.33423" lon="5.66909">
        <ele>503.2</ele>
        <time>2013-02-27T09:05:59Z</time>
      </trkpt>
      <trkpt lat="43.33423" lon="5.66909">
        <ele>503.2</ele>
        <time>2013-02-27T09:06:00Z</time>
      </trkpt>
      <trkpt lat="43.33417" lon="5.66931">
        <ele>507.3</ele>
        <time>2013-02-27T09:06:23Z</time>
      </trkpt>
      <trkpt lat="43.33413" lon="5.66941">
        <ele>509.1</ele>
        <time>2013-02-27T09:06:35Z</time>
      </trkpt>
      <trkpt lat="43.3341" lon="5.66951">
        <ele>510.7</ele>
        <time>2013-02-27T09:06:44Z</time>
      </trkpt>
      <trkpt lat="43.3341" lon="5.66963">
        <ele>512.2</ele>
        <time>2013-02-27T09:06:53Z</time>
      </trkpt>
      <trkpt lat="43.33409" lon="5.66976">
        <ele>512.9</ele>
        <time>2013-02-27T09:07:05Z</time>
      </trkpt>
      <trkpt lat="43.33409" lon="5.66977">
        <ele>513</ele>
        <time>2013-02-27T09:07:06Z</time>
      </trkpt>
      <trkpt lat="43.33403" lon="5.66998">
        <ele>516.2</ele>
        <time>2013-02-27T09:07:32Z</time>
      </trkpt>
      <trkpt lat="43.33399" lon="5.67009">
        <ele>517.5</ele>
        <time>2013-02-27T09:07:43Z</time>
      </trkpt>
      <trkpt lat="43.33396" lon="5.67019">
        <ele>519.7</ele>
        <time>2013-02-27T09:07:54Z</time>
      </trkpt>
      <trkpt lat="43.33392" lon="5.6703">
        <ele>522.7</ele>
        <time>2013-02-27T09:08:03Z</time>
      </trkpt>
      <trkpt lat="43.33387" lon="5.67039">
        <ele>524.4</ele>
        <time>2013-02-27T09:08:15Z</time>
      </trkpt>
      <trkpt lat="43.33386" lon="5.6704">
        <ele>524.5</ele>
        <time>2013-02-27T09:08:16Z</time>
      </trkpt>
      <trkpt lat="43.33374" lon="5.67056">
        <ele>527.2</ele>
        <time>2013-02-27T09:08:43Z</time>
      </trkpt>
      <trkpt lat="43.33367" lon="5.67064">
        <ele>528.2</ele>
        <time>2013-02-27T09:08:57Z</time>
      </trkpt>
      <trkpt lat="43.33361" lon="5.67072">
        <ele>528.2</ele>
        <time>2013-02-27T09:09:13Z</time>
      </trkpt>
      <trkpt lat="43.33356" lon="5.67081">
        <ele>531.5</ele>
        <time>2013-02-27T09:09:28Z</time>
      </trkpt>
      <trkpt lat="43.33355" lon="5.67082">
        <ele>531.7</ele>
        <time>2013-02-27T09:09:29Z</time>
      </trkpt>
      <trkpt lat="43.33351" lon="5.67103">
        <ele>537.9</ele>
        <time>2013-02-27T09:09:54Z</time>
      </trkpt>
      <trkpt lat="43.33344" lon="5.67111">
        <ele>539.5</ele>
        <time>2013-02-27T09:10:04Z</time>
      </trkpt>
      <trkpt lat="43.33336" lon="5.67114">
        <ele>541.7</ele>
        <time>2013-02-27T09:10:16Z</time>
      </trkpt>
      <trkpt lat="43.33329" lon="5.67122">
        <ele>543.4</ele>
        <time>2013-02-27T09:10:28Z</time>
      </trkpt>
      <trkpt lat="43.33324" lon="5.67132">
        <ele>544.2</ele>
        <time>2013-02-27T09:10:40Z</time>
      </trkpt>
      <trkpt lat="43.33324" lon="5.67133">
        <ele>544.4</ele>
        <time>2013-02-27T09:10:41Z</time>
      </trkpt>
      <trkpt lat="43.33314" lon="5.67151">
        <ele>545.5</ele>
        <time>2013-02-27T09:11:10Z</time>
      </trkpt>
      <trkpt lat="43.3331" lon="5.67162">
        <ele>546.4</ele>
        <time>2013-02-27T09:11:23Z</time>
      </trkpt>
      <trkpt lat="43.33304" lon="5.6717">
        <ele>546.9</ele>
        <time>2013-02-27T09:11:36Z</time>
      </trkpt>
      <trkpt lat="43.33297" lon="5.67177">
        <ele>549.2</ele>
        <time>2013-02-27T09:11:51Z</time>
      </trkpt>
      <trkpt lat="43.33297" lon="5.67177">
        <ele>549.7</ele>
        <time>2013-02-27T09:11:52Z</time>
      </trkpt>
      <trkpt lat="43.33286" lon="5.67193">
        <ele>552</ele>
        <time>2013-02-27T09:12:18Z</time>
      </trkpt>
      <trkpt lat="43.33278" lon="5.67199">
        <ele>553.9</ele>
        <time>2013-02-27T09:12:31Z</time>
      </trkpt>
      <trkpt lat="43.33272" lon="5.67207">
        <ele>556.9</ele>
        <time>2013-02-27T09:12:47Z</time>
      </trkpt>
      <trkpt lat="43.33265" lon="5.67214">
        <ele>560.4</ele>
        <time>2013-02-27T09:13:03Z</time>
      </trkpt>
      <trkpt lat="43.33264" lon="5.67215">
        <ele>560.2</ele>
        <time>2013-02-27T09:13:04Z</time>
      </trkpt>
      <trkpt lat="43.33259" lon="5.67237">
        <ele>565.4</ele>
        <time>2013-02-27T09:13:41Z</time>
      </trkpt>
      <trkpt lat="43.33257" lon="5.67249">
        <ele>567.5</ele>
        <time>2013-02-27T09:13:58Z</time>
      </trkpt>
      <trkpt lat="43.33249" lon="5.67247">
        <ele>571</ele>
        <time>2013-02-27T09:14:14Z</time>
      </trkpt>
      <trkpt lat="43.33248" lon="5.67247">
        <ele>570.7</ele>
        <time>2013-02-27T09:14:15Z</time>
      </trkpt>
      <trkpt lat="43.33232" lon="5.67252">
        <ele>573.2</ele>
        <time>2013-02-27T09:14:43Z</time>
      </trkpt>
      <trkpt lat="43.33223" lon="5.67256">
        <ele>573.7</ele>
        <time>2013-02-27T09:14:56Z</time>
      </trkpt>
      <trkpt lat="43.33216" lon="5.67262">
        <ele>576.5</ele>
        <time>2013-02-27T09:15:07Z</time>
      </trkpt>
      <trkpt lat="43.33209" lon="5.67269">
        <ele>578</ele>
        <time>2013-02-27T09:15:19Z</time>
      </trkpt>
      <trkpt lat="43.33208" lon="5.67271">
        <ele>578.2</ele>
        <time>2013-02-27T09:15:20Z</time>
      </trkpt>
      <trkpt lat="43.332" lon="5.67289">
        <ele>580.9</ele>
        <time>2013-02-27T09:15:39Z</time>
      </trkpt>
      <trkpt lat="43.33195" lon="5.67299">
        <ele>581.5</ele>
        <time>2013-02-27T09:15:50Z</time>
      </trkpt>
      <trkpt lat="43.33192" lon="5.67311">
        <ele>583</ele>
        <time>2013-02-27T09:16:00Z</time>
      </trkpt>
      <trkpt lat="43.33186" lon="5.6732">
        <ele>585.2</ele>
        <time>2013-02-27T09:16:12Z</time>
      </trkpt>
      <trkpt lat="43.33183" lon="5.67331">
        <ele>586.5</ele>
        <time>2013-02-27T09:16:24Z</time>
      </trkpt>
      <trkpt lat="43.33182" lon="5.67332">
        <ele>586.5</ele>
        <time>2013-02-27T09:16:25Z</time>
      </trkpt>
      <trkpt lat="43.33174" lon="5.67352">
        <ele>589.4</ele>
        <time>2013-02-27T09:16:47Z</time>
      </trkpt>
      <trkpt lat="43.33172" lon="5.67363">
        <ele>590.7</ele>
        <time>2013-02-27T09:17:00Z</time>
      </trkpt>
      <trkpt lat="43.3317" lon="5.67375">
        <ele>592.9</ele>
        <time>2013-02-27T09:17:13Z</time>
      </trkpt>
      <trkpt lat="43.33166" lon="5.67386">
        <ele>593.7</ele>
        <time>2013-02-27T09:17:26Z</time>
      </trkpt>
      <trkpt lat="43.33166" lon="5.67387">
        <ele>593.7</ele>
        <time>2013-02-27T09:17:27Z</time>
      </trkpt>
      <trkpt lat="43.33162" lon="5.67407">
        <ele>596.4</ele>
        <time>2013-02-27T09:24:37Z</time>
      </trkpt>
      <trkpt lat="43.33162" lon="5.67408">
        <ele>596.4</ele>
        <time>2013-02-27T09:24:38Z</time>
      </trkpt>
      <trkpt lat="43.3316" lon="5.67431">
        <ele>594.7</ele>
        <time>2013-02-27T09:25:10Z</time>
      </trkpt>
      <trkpt lat="43.3316" lon="5.67442">
        <ele>595</ele>
        <time>2013-02-27T09:25:20Z</time>
      </trkpt>
      <trkpt lat="43.33161" lon="5.67454">
        <ele>595.7</ele>
        <time>2013-02-27T09:25:29Z</time>
      </trkpt>
      <trkpt lat="43.33161" lon="5.67465">
        <ele>595.2</ele>
        <time>2013-02-27T09:25:40Z</time>
      </trkpt>
      <trkpt lat="43.33161" lon="5.67466">
        <ele>595.4</ele>
        <time>2013-02-27T09:25:41Z</time>
      </trkpt>
      <trkpt lat="43.33161" lon="5.67489">
        <ele>597.9</ele>
        <time>2013-02-27T09:26:04Z</time>
      </trkpt>
      <trkpt lat="43.33158" lon="5.67499">
        <ele>598.2</ele>
        <time>2013-02-27T09:26:11Z</time>
      </trkpt>
      <trkpt lat="43.33156" lon="5.6751">
        <ele>598.2</ele>
        <time>2013-02-27T09:26:19Z</time>
      </trkpt>
      <trkpt lat="43.33154" lon="5.67521">
        <ele>597.7</ele>
        <time>2013-02-27T09:26:26Z</time>
      </trkpt>
      <trkpt lat="43.33153" lon="5.67532">
        <ele>597.5</ele>
        <time>2013-02-27T09:26:34Z</time>
      </trkpt>
      <trkpt lat="43.33151" lon="5.67543">
        <ele>598</ele>
        <time>2013-02-27T09:26:43Z</time>
      </trkpt>
      <trkpt lat="43.33151" lon="5.67544">
        <ele>598</ele>
        <time>2013-02-27T09:26:44Z</time>
      </trkpt>
      <trkpt lat="43.33147" lon="5.67566">
        <ele>597.5</ele>
        <time>2013-02-27T09:27:03Z</time>
      </trkpt>
      <trkpt lat="43.33152" lon="5.67576">
        <ele>599.9</ele>
        <time>2013-02-27T09:27:14Z</time>
      </trkpt>
      <trkpt lat="43.33157" lon="5.67586">
        <ele>601.5</ele>
        <time>2013-02-27T09:27:23Z</time>
      </trkpt>
      <trkpt lat="43.3316" lon="5.67596">
        <ele>604.7</ele>
        <time>2013-02-27T09:27:30Z</time>
      </trkpt>
      <trkpt lat="43.33165" lon="5.67606">
        <ele>606.9</ele>
        <time>2013-02-27T09:27:39Z</time>
      </trkpt>
      <trkpt lat="43.33172" lon="5.67615">
        <ele>608.4</ele>
        <time>2013-02-27T09:27:49Z</time>
      </trkpt>
      <trkpt lat="43.33172" lon="5.67615">
        <ele>608.5</ele>
        <time>2013-02-27T09:27:50Z</time>
      </trkpt>
      <trkpt lat="43.33178" lon="5.67636">
        <ele>609.4</ele>
        <time>2013-02-27T09:28:06Z</time>
      </trkpt>
      <trkpt lat="43.33181" lon="5.67647">
        <ele>609.2</ele>
        <time>2013-02-27T09:28:14Z</time>
      </trkpt>
      <trkpt lat="43.33183" lon="5.67659">
        <ele>607.7</ele>
        <time>2013-02-27T09:28:22Z</time>
      </trkpt>
      <trkpt lat="43.33185" lon="5.6767">
        <ele>607.2</ele>
        <time>2013-02-27T09:28:29Z</time>
      </trkpt>
      <trkpt lat="43.33188" lon="5.67681">
        <ele>606.9</ele>
        <time>2013-02-27T09:28:42Z</time>
      </trkpt>
      <trkpt lat="43.33182" lon="5.6769">
        <ele>608</ele>
        <time>2013-02-27T09:29:02Z</time>
      </trkpt>
      <trkpt lat="43.33182" lon="5.6769">
        <ele>608</ele>
        <time>2013-02-27T09:29:03Z</time>
      </trkpt>
      <trkpt lat="43.33172" lon="5.67708">
        <ele>608.5</ele>
        <time>2013-02-27T09:29:22Z</time>
      </trkpt>
      <trkpt lat="43.33167" lon="5.67717">
        <ele>609</ele>
        <time>2013-02-27T09:29:31Z</time>
      </trkpt>
      <trkpt lat="43.33159" lon="5.67717">
        <ele>611.5</ele>
        <time>2013-02-27T09:29:42Z</time>
      </trkpt>
      <trkpt lat="43.33151" lon="5.67723">
        <ele>612.5</ele>
        <time>2013-02-27T09:29:58Z</time>
      </trkpt>
      <trkpt lat="43.33146" lon="5.67733">
        <ele>612.5</ele>
        <time>2013-02-27T09:30:15Z</time>
      </trkpt>
      <trkpt lat="43.33145" lon="5.67734">
        <ele>612.5</ele>
        <time>2013-02-27T09:30:16Z</time>
      </trkpt>
      <trkpt lat="43.33134" lon="5.67751">
        <ele>611.9</ele>
        <time>2013-02-27T09:30:35Z</time>
      </trkpt>
      <trkpt lat="43.3313" lon="5.67761">
        <ele>612.4</ele>
        <time>2013-02-27T09:30:46Z</time>
      </trkpt>
      <trkpt lat="43.33127" lon="5.67772">
        <ele>610.2</ele>
        <time>2013-02-27T09:30:55Z</time>
      </trkpt>
      <trkpt lat="43.33122" lon="5.67782">
        <ele>611.5</ele>
        <time>2013-02-27T09:31:02Z</time>
      </trkpt>
      <trkpt lat="43.33116" lon="5.67788">
        <ele>609.4</ele>
        <time>2013-02-27T09:31:12Z</time>
      </trkpt>
      <trkpt lat="43.33115" lon="5.678">
        <ele>607.7</ele>
        <time>2013-02-27T09:31:24Z</time>
      </trkpt>
      <trkpt lat="43.33116" lon="5.67801">
        <ele>607.5</ele>
        <time>2013-02-27T09:31:25Z</time>
      </trkpt>
      <trkpt lat="43.33122" lon="5.67821">
        <ele>607.7</ele>
        <time>2013-02-27T09:31:43Z</time>
      </trkpt>
      <trkpt lat="43.33128" lon="5.67831">
        <ele>607</ele>
        <time>2013-02-27T09:31:53Z</time>
      </trkpt>
      <trkpt lat="43.33131" lon="5.67841">
        <ele>606.4</ele>
        <time>2013-02-27T09:32:02Z</time>
      </trkpt>
      <trkpt lat="43.33136" lon="5.67851">
        <ele>605.2</ele>
        <time>2013-02-27T09:32:11Z</time>
      </trkpt>
      <trkpt lat="43.3314" lon="5.67861">
        <ele>608</ele>
        <time>2013-02-27T09:32:19Z</time>
      </trkpt>
      <trkpt lat="43.33143" lon="5.67871">
        <ele>608.9</ele>
        <time>2013-02-27T09:32:26Z</time>
      </trkpt>
      <trkpt lat="43.33143" lon="5.67873">
        <ele>608.7</ele>
        <time>2013-02-27T09:32:27Z</time>
      </trkpt>
      <trkpt lat="43.33152" lon="5.67892">
        <ele>606</ele>
        <time>2013-02-27T09:32:44Z</time>
      </trkpt>
      <trkpt lat="43.33155" lon="5.67903">
        <ele>605.2</ele>
        <time>2013-02-27T09:32:53Z</time>
      </trkpt>
      <trkpt lat="43.33158" lon="5.67913">
        <ele>605.2</ele>
        <time>2013-02-27T09:33:00Z</time>
      </trkpt>
      <trkpt lat="43.33161" lon="5.67925">
        <ele>604.5</ele>
        <time>2013-02-27T09:33:08Z</time>
      </trkpt>
      <trkpt lat="43.33161" lon="5.67936">
        <ele>604</ele>
        <time>2013-02-27T09:33:15Z</time>
      </trkpt>
      <trkpt lat="43.33161" lon="5.67947">
        <ele>603.7</ele>
        <time>2013-02-27T09:33:22Z</time>
      </trkpt>
      <trkpt lat="43.33162" lon="5.67958">
        <ele>602.7</ele>
        <time>2013-02-27T09:33:30Z</time>
      </trkpt>
      <trkpt lat="43.33162" lon="5.6796">
        <ele>602.5</ele>
        <time>2013-02-27T09:33:31Z</time>
      </trkpt>
      <trkpt lat="43.33167" lon="5.67981">
        <ele>601.2</ele>
        <time>2013-02-27T09:33:47Z</time>
      </trkpt>
      <trkpt lat="43.33168" lon="5.67993">
        <ele>601</ele>
        <time>2013-02-27T09:33:56Z</time>
      </trkpt>
      <trkpt lat="43.33171" lon="5.68004">
        <ele>597.5</ele>
        <time>2013-02-27T09:34:07Z</time>
      </trkpt>
      <trkpt lat="43.33173" lon="5.68014">
        <ele>597.2</ele>
        <time>2013-02-27T09:34:14Z</time>
      </trkpt>
      <trkpt lat="43.33175" lon="5.68026">
        <ele>596.5</ele>
        <time>2013-02-27T09:34:22Z</time>
      </trkpt>
      <trkpt lat="43.33179" lon="5.68037">
        <ele>593.7</ele>
        <time>2013-02-27T09:34:31Z</time>
      </trkpt>
      <trkpt lat="43.33179" lon="5.68038">
        <ele>593.5</ele>
        <time>2013-02-27T09:34:32Z</time>
      </trkpt>
      <trkpt lat="43.33184" lon="5.68059">
        <ele>591</ele>
        <time>2013-02-27T09:34:47Z</time>
      </trkpt>
      <trkpt lat="43.33187" lon="5.6807">
        <ele>589.9</ele>
        <time>2013-02-27T09:34:55Z</time>
      </trkpt>
      <trkpt lat="43.33189" lon="5.68082">
        <ele>591.4</ele>
        <time>2013-02-27T09:35:03Z</time>
      </trkpt>
      <trkpt lat="43.33194" lon="5.68092">
        <ele>590</ele>
        <time>2013-02-27T09:35:11Z</time>
      </trkpt>
      <trkpt lat="43.33199" lon="5.681">
        <ele>590.5</ele>
        <time>2013-02-27T09:35:19Z</time>
      </trkpt>
      <trkpt lat="43.33207" lon="5.68106">
        <ele>588.7</ele>
        <time>2013-02-27T09:35:27Z</time>
      </trkpt>
      <trkpt lat="43.33214" lon="5.68111">
        <ele>588.5</ele>
        <time>2013-02-27T09:35:35Z</time>
      </trkpt>
      <trkpt lat="43.33215" lon="5.68112">
        <ele>588.5</ele>
        <time>2013-02-27T09:35:36Z</time>
      </trkpt>
      <trkpt lat="43.33229" lon="5.68124">
        <ele>587.5</ele>
        <time>2013-02-27T09:35:52Z</time>
      </trkpt>
      <trkpt lat="43.33233" lon="5.68135">
        <ele>586.7</ele>
        <time>2013-02-27T09:36:01Z</time>
      </trkpt>
      <trkpt lat="43.33237" lon="5.68144">
        <ele>587.7</ele>
        <time>2013-02-27T09:36:07Z</time>
      </trkpt>
      <trkpt lat="43.33243" lon="5.68153">
        <ele>589.4</ele>
        <time>2013-02-27T09:36:16Z</time>
      </trkpt>
      <trkpt lat="43.33248" lon="5.68163">
        <ele>591.9</ele>
        <time>2013-02-27T09:36:26Z</time>
      </trkpt>
      <trkpt lat="43.33251" lon="5.68173">
        <ele>593.5</ele>
        <time>2013-02-27T09:36:35Z</time>
      </trkpt>
      <trkpt lat="43.33256" lon="5.68183">
        <ele>593.4</ele>
        <time>2013-02-27T09:36:44Z</time>
      </trkpt>
      <trkpt lat="43.33256" lon="5.68184">
        <ele>593.5</ele>
        <time>2013-02-27T09:36:45Z</time>
      </trkpt>
      <trkpt lat="43.33262" lon="5.68203">
        <ele>594.7</ele>
        <time>2013-02-27T09:37:00Z</time>
      </trkpt>
      <trkpt lat="43.33266" lon="5.68213">
        <ele>594</ele>
        <time>2013-02-27T09:37:09Z</time>
      </trkpt>
      <trkpt lat="43.33271" lon="5.68223">
        <ele>593.7</ele>
        <time>2013-02-27T09:37:17Z</time>
      </trkpt>
      <trkpt lat="43.33276" lon="5.68233">
        <ele>593.7</ele>
        <time>2013-02-27T09:37:26Z</time>
      </trkpt>
      <trkpt lat="43.3328" lon="5.68243">
        <ele>593.2</ele>
        <time>2013-02-27T09:37:35Z</time>
      </trkpt>
      <trkpt lat="43.33285" lon="5.68253">
        <ele>593.5</ele>
        <time>2013-02-27T09:37:44Z</time>
      </trkpt>
      <trkpt lat="43.33288" lon="5.68264">
        <ele>594.5</ele>
        <time>2013-02-27T09:37:52Z</time>
      </trkpt>
      <trkpt lat="43.33288" lon="5.68265">
        <ele>594.4</ele>
        <time>2013-02-27T09:37:53Z</time>
      </trkpt>
      <trkpt lat="43.33298" lon="5.68283">
        <ele>595.4</ele>
        <time>2013-02-27T09:38:10Z</time>
      </trkpt>
      <trkpt lat="43.33302" lon="5.68293">
        <ele>596.5</ele>
        <time>2013-02-27T09:38:18Z</time>
      </trkpt>
      <trkpt lat="43.33307" lon="5.68303">
        <ele>596.9</ele>
        <time>2013-02-27T09:38:26Z</time>
      </trkpt>
      <trkpt lat="43.33313" lon="5.68312">
        <ele>597.7</ele>
        <time>2013-02-27T09:38:34Z</time>
      </trkpt>
      <trkpt lat="43.33317" lon="5.68321">
        <ele>598</ele>
        <time>2013-02-27T09:38:42Z</time>
      </trkpt>
      <trkpt lat="43.33323" lon="5.6833">
        <ele>598</ele>
        <time>2013-02-27T09:38:50Z</time>
      </trkpt>
      <trkpt lat="43.3333" lon="5.68337">
        <ele>597.9</ele>
        <time>2013-02-27T09:38:59Z</time>
      </trkpt>
      <trkpt lat="43.3333" lon="5.68338">
        <ele>597.9</ele>
        <time>2013-02-27T09:39:00Z</time>
      </trkpt>
      <trkpt lat="43.33343" lon="5.6835">
        <ele>600</ele>
        <time>2013-02-27T09:39:15Z</time>
      </trkpt>
      <trkpt lat="43.33351" lon="5.68357">
        <ele>600</ele>
        <time>2013-02-27T09:39:23Z</time>
      </trkpt>
      <trkpt lat="43.33357" lon="5.68365">
        <ele>600.9</ele>
        <time>2013-02-27T09:39:31Z</time>
      </trkpt>
      <trkpt lat="43.33363" lon="5.68374">
        <ele>600.4</ele>
        <time>2013-02-27T09:39:40Z</time>
      </trkpt>
      <trkpt lat="43.33368" lon="5.68384">
        <ele>600.5</ele>
        <time>2013-02-27T09:39:49Z</time>
      </trkpt>
      <trkpt lat="43.33373" lon="5.68393">
        <ele>601.9</ele>
        <time>2013-02-27T09:39:57Z</time>
      </trkpt>
      <trkpt lat="43.33378" lon="5.68403">
        <ele>603.5</ele>
        <time>2013-02-27T09:40:05Z</time>
      </trkpt>
      <trkpt lat="43.33379" lon="5.68404">
        <ele>603.9</ele>
        <time>2013-02-27T09:40:06Z</time>
      </trkpt>
      <trkpt lat="43.33389" lon="5.68421">
        <ele>607.2</ele>
        <time>2013-02-27T09:40:21Z</time>
      </trkpt>
      <trkpt lat="43.33394" lon="5.6843">
        <ele>608.4</ele>
        <time>2013-02-27T09:40:30Z</time>
      </trkpt>
      <trkpt lat="43.334" lon="5.68437">
        <ele>608.9</ele>
        <time>2013-02-27T09:40:39Z</time>
      </trkpt>
      <trkpt lat="43.33406" lon="5.68446">
        <ele>610</ele>
        <time>2013-02-27T09:40:48Z</time>
      </trkpt>
      <trkpt lat="43.3341" lon="5.68457">
        <ele>610.7</ele>
        <time>2013-02-27T09:40:57Z</time>
      </trkpt>
      <trkpt lat="43.33414" lon="5.68466">
        <ele>611.5</ele>
        <time>2013-02-27T09:41:06Z</time>
      </trkpt>
      <trkpt lat="43.33415" lon="5.68467">
        <ele>611.5</ele>
        <time>2013-02-27T09:41:07Z</time>
      </trkpt>
      <trkpt lat="43.33423" lon="5.68487">
        <ele>613.9</ele>
        <time>2013-02-27T09:41:27Z</time>
      </trkpt>
      <trkpt lat="43.33426" lon="5.68498">
        <ele>615</ele>
        <time>2013-02-27T09:41:37Z</time>
      </trkpt>
      <trkpt lat="43.33431" lon="5.68509">
        <ele>617.2</ele>
        <time>2013-02-27T09:41:47Z</time>
      </trkpt>
      <trkpt lat="43.33435" lon="5.68518">
        <ele>618.2</ele>
        <time>2013-02-27T09:41:57Z</time>
      </trkpt>
      <trkpt lat="43.3344" lon="5.68528">
        <ele>619.5</ele>
        <time>2013-02-27T09:42:07Z</time>
      </trkpt>
      <trkpt lat="43.3344" lon="5.68529">
        <ele>619.7</ele>
        <time>2013-02-27T09:42:08Z</time>
      </trkpt>
      <trkpt lat="43.33445" lon="5.6855">
        <ele>619.4</ele>
        <time>2013-02-27T09:42:37Z</time>
      </trkpt>
      <trkpt lat="43.33448" lon="5.68561">
        <ele>620.2</ele>
        <time>2013-02-27T09:48:06Z</time>
      </trkpt>
      <trkpt lat="43.33449" lon="5.68562">
        <ele>620.2</ele>
        <time>2013-02-27T09:48:07Z</time>
      </trkpt>
      <trkpt lat="43.33455" lon="5.68582">
        <ele>619.5</ele>
        <time>2013-02-27T09:48:26Z</time>
      </trkpt>
      <trkpt lat="43.33454" lon="5.68595">
        <ele>621</ele>
        <time>2013-02-27T09:48:42Z</time>
      </trkpt>
      <trkpt lat="43.33454" lon="5.68607">
        <ele>621.9</ele>
        <time>2013-02-27T09:48:56Z</time>
      </trkpt>
      <trkpt lat="43.33451" lon="5.68617">
        <ele>622</ele>
        <time>2013-02-27T09:49:09Z</time>
      </trkpt>
      <trkpt lat="43.33451" lon="5.68618">
        <ele>622.5</ele>
        <time>2013-02-27T09:49:10Z</time>
      </trkpt>
      <trkpt lat="43.3345" lon="5.68638">
        <ele>626.4</ele>
        <time>2013-02-27T09:49:29Z</time>
      </trkpt>
      <trkpt lat="43.33453" lon="5.68649">
        <ele>627.2</ele>
        <time>2013-02-27T09:49:39Z</time>
      </trkpt>
      <trkpt lat="43.33456" lon="5.6866">
        <ele>627</ele>
        <time>2013-02-27T09:49:52Z</time>
      </trkpt>
      <trkpt lat="43.33461" lon="5.68668">
        <ele>626.2</ele>
        <time>2013-02-27T09:50:00Z</time>
      </trkpt>
      <trkpt lat="43.33466" lon="5.68678">
        <ele>626.2</ele>
        <time>2013-02-27T09:50:08Z</time>
      </trkpt>
      <trkpt lat="43.33471" lon="5.68688">
        <ele>627.2</ele>
        <time>2013-02-27T09:50:15Z</time>
      </trkpt>
      <trkpt lat="43.33472" lon="5.68689">
        <ele>627.4</ele>
        <time>2013-02-27T09:50:16Z</time>
      </trkpt>
      <trkpt lat="43.3348" lon="5.68709">
        <ele>627.9</ele>
        <time>2013-02-27T09:50:44Z</time>
      </trkpt>
      <trkpt lat="43.33479" lon="5.6872">
        <ele>631.2</ele>
        <time>2013-02-27T09:51:53Z</time>
      </trkpt>
      <trkpt lat="43.33479" lon="5.68722">
        <ele>631.7</ele>
        <time>2013-02-27T09:51:54Z</time>
      </trkpt>
      <trkpt lat="43.33471" lon="5.68742">
        <ele>630.4</ele>
        <time>2013-02-27T09:52:36Z</time>
      </trkpt>
      <trkpt lat="43.33469" lon="5.68753">
        <ele>630.2</ele>
        <time>2013-02-27T09:52:47Z</time>
      </trkpt>
      <trkpt lat="43.33466" lon="5.68764">
        <ele>630</ele>
        <time>2013-02-27T09:52:57Z</time>
      </trkpt>
      <trkpt lat="43.33466" lon="5.68765">
        <ele>630.2</ele>
        <time>2013-02-27T09:52:58Z</time>
      </trkpt>
      <trkpt lat="43.33473" lon="5.68784">
        <ele>634</ele>
        <time>2013-02-27T09:53:19Z</time>
      </trkpt>
      <trkpt lat="43.33474" lon="5.68796">
        <ele>634.7</ele>
        <time>2013-02-27T09:53:32Z</time>
      </trkpt>
      <trkpt lat="43.3347" lon="5.68804">
        <ele>633.7</ele>
        <time>2013-02-27T09:53:40Z</time>
      </trkpt>
      <trkpt lat="43.3347" lon="5.68816">
        <ele>634.9</ele>
        <time>2013-02-27T09:53:49Z</time>
      </trkpt>
      <trkpt lat="43.33468" lon="5.68828">
        <ele>635.2</ele>
        <time>2013-02-27T09:53:58Z</time>
      </trkpt>
      <trkpt lat="43.33468" lon="5.6883">
        <ele>635.2</ele>
        <time>2013-02-27T09:53:59Z</time>
      </trkpt>
      <trkpt lat="43.33465" lon="5.68852">
        <ele>636.2</ele>
        <time>2013-02-27T09:54:58Z</time>
      </trkpt>
      <trkpt lat="43.33469" lon="5.68861">
        <ele>635.7</ele>
        <time>2013-02-27T09:55:11Z</time>
      </trkpt>
      <trkpt lat="43.33469" lon="5.68862">
        <ele>635.9</ele>
        <time>2013-02-27T09:55:12Z</time>
      </trkpt>
      <trkpt lat="43.33478" lon="5.68882">
        <ele>635.9</ele>
        <time>2013-02-27T09:55:32Z</time>
      </trkpt>
      <trkpt lat="43.33483" lon="5.68891">
        <ele>635.7</ele>
        <time>2013-02-27T09:55:42Z</time>
      </trkpt>
      <trkpt lat="43.33486" lon="5.68901">
        <ele>636.9</ele>
        <time>2013-02-27T09:55:50Z</time>
      </trkpt>
      <trkpt lat="43.33489" lon="5.68912">
        <ele>638.2</ele>
        <time>2013-02-27T09:55:58Z</time>
      </trkpt>
      <trkpt lat="43.33495" lon="5.68921">
        <ele>638</ele>
        <time>2013-02-27T09:56:07Z</time>
      </trkpt>
      <trkpt lat="43.335" lon="5.68929">
        <ele>637.5</ele>
        <time>2013-02-27T09:56:16Z</time>
      </trkpt>
      <trkpt lat="43.33501" lon="5.6893">
        <ele>637.5</ele>
        <time>2013-02-27T09:56:17Z</time>
      </trkpt>
      <trkpt lat="43.33509" lon="5.68949">
        <ele>637.4</ele>
        <time>2013-02-27T09:56:32Z</time>
      </trkpt>
      <trkpt lat="43.33512" lon="5.6896">
        <ele>637.7</ele>
        <time>2013-02-27T09:56:40Z</time>
      </trkpt>
      <trkpt lat="43.33514" lon="5.68972">
        <ele>639.9</ele>
        <time>2013-02-27T09:56:47Z</time>
      </trkpt>
      <trkpt lat="43.33517" lon="5.68982">
        <ele>640.5</ele>
        <time>2013-02-27T09:56:54Z</time>
      </trkpt>
      <trkpt lat="43.33521" lon="5.68993">
        <ele>640.2</ele>
        <time>2013-02-27T09:57:02Z</time>
      </trkpt>
      <trkpt lat="43.33524" lon="5.69003">
        <ele>639.4</ele>
        <time>2013-02-27T09:57:10Z</time>
      </trkpt>
      <trkpt lat="43.33526" lon="5.69014">
        <ele>638.5</ele>
        <time>2013-02-27T09:57:18Z</time>
      </trkpt>
      <trkpt lat="43.33527" lon="5.69016">
        <ele>638.5</ele>
        <time>2013-02-27T09:57:19Z</time>
      </trkpt>
      <trkpt lat="43.33533" lon="5.69036">
        <ele>637.4</ele>
        <time>2013-02-27T09:57:33Z</time>
      </trkpt>
      <trkpt lat="43.33537" lon="5.69045">
        <ele>636.2</ele>
        <time>2013-02-27T09:57:41Z</time>
      </trkpt>
      <trkpt lat="43.33538" lon="5.69057">
        <ele>634.5</ele>
        <time>2013-02-27T09:57:49Z</time>
      </trkpt>
      <trkpt lat="43.3354" lon="5.69069">
        <ele>634</ele>
        <time>2013-02-27T09:57:56Z</time>
      </trkpt>
      <trkpt lat="43.33542" lon="5.6908">
        <ele>633.9</ele>
        <time>2013-02-27T09:58:03Z</time>
      </trkpt>
      <trkpt lat="43.33546" lon="5.69091">
        <ele>633.2</ele>
        <time>2013-02-27T09:58:11Z</time>
      </trkpt>
      <trkpt lat="43.33549" lon="5.69103">
        <ele>632.5</ele>
        <time>2013-02-27T09:58:19Z</time>
      </trkpt>
      <trkpt lat="43.33549" lon="5.69104">
        <ele>632.5</ele>
        <time>2013-02-27T09:58:20Z</time>
      </trkpt>
      <trkpt lat="43.33554" lon="5.69124">
        <ele>631</ele>
        <time>2013-02-27T09:58:34Z</time>
      </trkpt>
      <trkpt lat="43.33558" lon="5.69134">
        <ele>630.9</ele>
        <time>2013-02-27T09:58:41Z</time>
      </trkpt>
      <trkpt lat="43.33562" lon="5.69145">
        <ele>630.5</ele>
        <time>2013-02-27T09:58:49Z</time>
      </trkpt>
      <trkpt lat="43.33567" lon="5.69154">
        <ele>630.5</ele>
        <time>2013-02-27T09:58:56Z</time>
      </trkpt>
      <trkpt lat="43.33571" lon="5.69165">
        <ele>630.7</ele>
        <time>2013-02-27T09:59:04Z</time>
      </trkpt>
      <trkpt lat="43.33575" lon="5.69175">
        <ele>630.4</ele>
        <time>2013-02-27T09:59:12Z</time>
      </trkpt>
      <trkpt lat="43.3358" lon="5.69185">
        <ele>629.4</ele>
        <time>2013-02-27T09:59:20Z</time>
      </trkpt>
      <trkpt lat="43.33581" lon="5.69186">
        <ele>629.2</ele>
        <time>2013-02-27T09:59:21Z</time>
      </trkpt>
      <trkpt lat="43.33588" lon="5.69204">
        <ele>629.7</ele>
        <time>2013-02-27T09:59:34Z</time>
      </trkpt>
      <trkpt lat="43.33593" lon="5.69213">
        <ele>628.7</ele>
        <time>2013-02-27T09:59:42Z</time>
      </trkpt>
      <trkpt lat="43.33597" lon="5.69223">
        <ele>626.7</ele>
        <time>2013-02-27T09:59:50Z</time>
      </trkpt>
      <trkpt lat="43.33603" lon="5.69233">
        <ele>624.4</ele>
        <time>2013-02-27T09:59:59Z</time>
      </trkpt>
      <trkpt lat="43.33605" lon="5.69244">
        <ele>624.4</ele>
        <time>2013-02-27T10:00:06Z</time>
      </trkpt>
      <trkpt lat="43.33607" lon="5.69255">
        <ele>622.9</ele>
        <time>2013-02-27T10:00:13Z</time>
      </trkpt>
      <trkpt lat="43.33611" lon="5.69265">
        <ele>620.7</ele>
        <time>2013-02-27T10:00:21Z</time>
      </trkpt>
      <trkpt lat="43.33612" lon="5.69267">
        <ele>620.7</ele>
        <time>2013-02-27T10:00:22Z</time>
      </trkpt>
      <trkpt lat="43.33618" lon="5.69283">
        <ele>619.4</ele>
        <time>2013-02-27T10:00:34Z</time>
      </trkpt>
      <trkpt lat="43.33621" lon="5.69295">
        <ele>620.2</ele>
        <time>2013-02-27T10:00:43Z</time>
      </trkpt>
      <trkpt lat="43.33624" lon="5.69306">
        <ele>622</ele>
        <time>2013-02-27T10:00:54Z</time>
      </trkpt>
      <trkpt lat="43.3363" lon="5.69315">
        <ele>622.7</ele>
        <time>2013-02-27T10:01:02Z</time>
      </trkpt>
      <trkpt lat="43.33635" lon="5.69323">
        <ele>623</ele>
        <time>2013-02-27T10:01:09Z</time>
      </trkpt>
      <trkpt lat="43.33642" lon="5.6933">
        <ele>622.9</ele>
        <time>2013-02-27T10:01:17Z</time>
      </trkpt>
      <trkpt lat="43.33649" lon="5.69336">
        <ele>624</ele>
        <time>2013-02-27T10:01:26Z</time>
      </trkpt>
      <trkpt lat="43.3365" lon="5.69337">
        <ele>624</ele>
        <time>2013-02-27T10:01:27Z</time>
      </trkpt>
      <trkpt lat="43.33662" lon="5.69351">
        <ele>625.2</ele>
        <time>2013-02-27T10:01:45Z</time>
      </trkpt>
      <trkpt lat="43.33667" lon="5.6936">
        <ele>627.5</ele>
        <time>2013-02-27T10:01:54Z</time>
      </trkpt>
      <trkpt lat="43.33672" lon="5.69369">
        <ele>629</ele>
        <time>2013-02-27T10:02:02Z</time>
      </trkpt>
      <trkpt lat="43.33678" lon="5.69377">
        <ele>630</ele>
        <time>2013-02-27T10:02:10Z</time>
      </trkpt>
      <trkpt lat="43.33683" lon="5.69386">
        <ele>630.4</ele>
        <time>2013-02-27T10:02:18Z</time>
      </trkpt>
      <trkpt lat="43.33686" lon="5.69397">
        <ele>630.5</ele>
        <time>2013-02-27T10:02:26Z</time>
      </trkpt>
      <trkpt lat="43.33689" lon="5.69407">
        <ele>631.2</ele>
        <time>2013-02-27T10:02:33Z</time>
      </trkpt>
      <trkpt lat="43.3369" lon="5.69409">
        <ele>631.2</ele>
        <time>2013-02-27T10:02:34Z</time>
      </trkpt>
      <trkpt lat="43.33696" lon="5.69429">
        <ele>632</ele>
        <time>2013-02-27T10:02:48Z</time>
      </trkpt>
      <trkpt lat="43.337" lon="5.69439">
        <ele>632.5</ele>
        <time>2013-02-27T10:02:56Z</time>
      </trkpt>
      <trkpt lat="43.33705" lon="5.69449">
        <ele>632.2</ele>
        <time>2013-02-27T10:03:05Z</time>
      </trkpt>
      <trkpt lat="43.33709" lon="5.69458">
        <ele>632</ele>
        <time>2013-02-27T10:03:13Z</time>
      </trkpt>
      <trkpt lat="43.33713" lon="5.69468">
        <ele>632.2</ele>
        <time>2013-02-27T10:03:20Z</time>
      </trkpt>
      <trkpt lat="43.33717" lon="5.69478">
        <ele>632.7</ele>
        <time>2013-02-27T10:03:27Z</time>
      </trkpt>
      <trkpt lat="43.33722" lon="5.69487">
        <ele>633</ele>
        <time>2013-02-27T10:03:35Z</time>
      </trkpt>
      <trkpt lat="43.33723" lon="5.69488">
        <ele>633</ele>
        <time>2013-02-27T10:03:36Z</time>
      </trkpt>
      <trkpt lat="43.33735" lon="5.69504">
        <ele>632.5</ele>
        <time>2013-02-27T10:03:53Z</time>
      </trkpt>
      <trkpt lat="43.33741" lon="5.69512">
        <ele>633.7</ele>
        <time>2013-02-27T10:04:02Z</time>
      </trkpt>
      <trkpt lat="43.33745" lon="5.69522">
        <ele>636</ele>
        <time>2013-02-27T10:04:09Z</time>
      </trkpt>
      <trkpt lat="43.33751" lon="5.6953">
        <ele>637</ele>
        <time>2013-02-27T10:04:17Z</time>
      </trkpt>
      <trkpt lat="43.33757" lon="5.69538">
        <ele>636.5</ele>
        <time>2013-02-27T10:04:25Z</time>
      </trkpt>
      <trkpt lat="43.33762" lon="5.69548">
        <ele>636.5</ele>
        <time>2013-02-27T10:04:33Z</time>
      </trkpt>
      <trkpt lat="43.33766" lon="5.69557">
        <ele>637.2</ele>
        <time>2013-02-27T10:04:40Z</time>
      </trkpt>
      <trkpt lat="43.33767" lon="5.69559">
        <ele>637.9</ele>
        <time>2013-02-27T10:04:41Z</time>
      </trkpt>
      <trkpt lat="43.33777" lon="5.69575">
        <ele>640</ele>
        <time>2013-02-27T10:05:00Z</time>
      </trkpt>
      <trkpt lat="43.33783" lon="5.69584">
        <ele>639</ele>
        <time>2013-02-27T10:05:11Z</time>
      </trkpt>
      <trkpt lat="43.33789" lon="5.69591">
        <ele>637.4</ele>
        <time>2013-02-27T10:05:21Z</time>
      </trkpt>
      <trkpt lat="43.33795" lon="5.69601">
        <ele>636.7</ele>
        <time>2013-02-27T10:05:31Z</time>
      </trkpt>
      <trkpt lat="43.33798" lon="5.69611">
        <ele>637.7</ele>
        <time>2013-02-27T10:05:38Z</time>
      </trkpt>
      <trkpt lat="43.338" lon="5.69622">
        <ele>639.7</ele>
        <time>2013-02-27T10:05:45Z</time>
      </trkpt>
      <trkpt lat="43.338" lon="5.69623">
        <ele>639.9</ele>
        <time>2013-02-27T10:05:46Z</time>
      </trkpt>
      <trkpt lat="43.33809" lon="5.69642">
        <ele>638.7</ele>
        <time>2013-02-27T10:06:04Z</time>
      </trkpt>
      <trkpt lat="43.33813" lon="5.69652">
        <ele>638.7</ele>
        <time>2013-02-27T10:06:12Z</time>
      </trkpt>
      <trkpt lat="43.33818" lon="5.69661">
        <ele>639.2</ele>
        <time>2013-02-27T10:06:20Z</time>
      </trkpt>
      <trkpt lat="43.33823" lon="5.69669">
        <ele>639.9</ele>
        <time>2013-02-27T10:06:28Z</time>
      </trkpt>
      <trkpt lat="43.33829" lon="5.69678">
        <ele>640.9</ele>
        <time>2013-02-27T10:06:36Z</time>
      </trkpt>
      <trkpt lat="43.33834" lon="5.69688">
        <ele>641.7</ele>
        <time>2013-02-27T10:06:44Z</time>
      </trkpt>
      <trkpt lat="43.33838" lon="5.69697">
        <ele>642.5</ele>
        <time>2013-02-27T10:06:52Z</time>
      </trkpt>
      <trkpt lat="43.33839" lon="5.69699">
        <ele>642.7</ele>
        <time>2013-02-27T10:06:53Z</time>
      </trkpt>
      <trkpt lat="43.33847" lon="5.69718">
        <ele>645.4</ele>
        <time>2013-02-27T10:07:08Z</time>
      </trkpt>
      <trkpt lat="43.33852" lon="5.69728">
        <ele>646.7</ele>
        <time>2013-02-27T10:07:17Z</time>
      </trkpt>
      <trkpt lat="43.33856" lon="5.69739">
        <ele>646.9</ele>
        <time>2013-02-27T10:07:26Z</time>
      </trkpt>
      <trkpt lat="43.33859" lon="5.6975">
        <ele>647.7</ele>
        <time>2013-02-27T10:07:34Z</time>
      </trkpt>
      <trkpt lat="43.33863" lon="5.6976">
        <ele>647</ele>
        <time>2013-02-27T10:07:42Z</time>
      </trkpt>
      <trkpt lat="43.33867" lon="5.6977">
        <ele>648.7</ele>
        <time>2013-02-27T10:07:50Z</time>
      </trkpt>
      <trkpt lat="43.33872" lon="5.69779">
        <ele>649.7</ele>
        <time>2013-02-27T10:07:58Z</time>
      </trkpt>
      <trkpt lat="43.33873" lon="5.6978">
        <ele>649.7</ele>
        <time>2013-02-27T10:07:59Z</time>
      </trkpt>
      <trkpt lat="43.33883" lon="5.69795">
        <ele>650.7</ele>
        <time>2013-02-27T10:08:14Z</time>
      </trkpt>
      <trkpt lat="43.33889" lon="5.69805">
        <ele>651.2</ele>
        <time>2013-02-27T10:08:23Z</time>
      </trkpt>
      <trkpt lat="43.33895" lon="5.69813">
        <ele>651.2</ele>
        <time>2013-02-27T10:08:32Z</time>
      </trkpt>
      <trkpt lat="43.33899" lon="5.69824">
        <ele>652.4</ele>
        <time>2013-02-27T10:08:40Z</time>
      </trkpt>
      <trkpt lat="43.33905" lon="5.69832">
        <ele>652.4</ele>
        <time>2013-02-27T10:08:48Z</time>
      </trkpt>
      <trkpt lat="43.3391" lon="5.69842">
        <ele>652.5</ele>
        <time>2013-02-27T10:08:56Z</time>
      </trkpt>
      <trkpt lat="43.33915" lon="5.6985">
        <ele>652.9</ele>
        <time>2013-02-27T10:09:04Z</time>
      </trkpt>
      <trkpt lat="43.33915" lon="5.69851">
        <ele>653</ele>
        <time>2013-02-27T10:09:05Z</time>
      </trkpt>
      <trkpt lat="43.33923" lon="5.69869">
        <ele>654</ele>
        <time>2013-02-27T10:09:18Z</time>
      </trkpt>
      <trkpt lat="43.33926" lon="5.6988">
        <ele>655</ele>
        <time>2013-02-27T10:09:25Z</time>
      </trkpt>
      <trkpt lat="43.3393" lon="5.69891">
        <ele>654.9</ele>
        <time>2013-02-27T10:09:33Z</time>
      </trkpt>
      <trkpt lat="43.33935" lon="5.69901">
        <ele>655</ele>
        <time>2013-02-27T10:09:43Z</time>
      </trkpt>
      <trkpt lat="43.33942" lon="5.69908">
        <ele>657.5</ele>
        <time>2013-02-27T10:10:01Z</time>
      </trkpt>
      <trkpt lat="43.33947" lon="5.69918">
        <ele>658</ele>
        <time>2013-02-27T10:10:16Z</time>
      </trkpt>
      <trkpt lat="43.33948" lon="5.69919">
        <ele>658</ele>
        <time>2013-02-27T10:10:17Z</time>
      </trkpt>
      <trkpt lat="43.3396" lon="5.69927">
        <ele>658.5</ele>
        <time>2013-02-27T10:10:48Z</time>
      </trkpt>
      <trkpt lat="43.33966" lon="5.69935">
        <ele>658</ele>
        <time>2013-02-27T10:10:58Z</time>
      </trkpt>
      <trkpt lat="43.3397" lon="5.69945">
        <ele>656.7</ele>
        <time>2013-02-27T10:11:08Z</time>
      </trkpt>
      <trkpt lat="43.33976" lon="5.69954">
        <ele>655.7</ele>
        <time>2013-02-27T10:11:17Z</time>
      </trkpt>
      <trkpt lat="43.33977" lon="5.69955">
        <ele>655.5</ele>
        <time>2013-02-27T10:11:18Z</time>
      </trkpt>
      <trkpt lat="43.33991" lon="5.69961">
        <ele>655.7</ele>
        <time>2013-02-27T10:11:37Z</time>
      </trkpt>
      <trkpt lat="43.33997" lon="5.69953">
        <ele>655.7</ele>
        <time>2013-02-27T10:11:48Z</time>
      </trkpt>
      <trkpt lat="43.34" lon="5.69942">
        <ele>655</ele>
        <time>2013-02-27T10:11:57Z</time>
      </trkpt>
      <trkpt lat="43.34002" lon="5.69931">
        <ele>656.2</ele>
        <time>2013-02-27T10:12:05Z</time>
      </trkpt>
      <trkpt lat="43.34006" lon="5.69921">
        <ele>657.2</ele>
        <time>2013-02-27T10:12:15Z</time>
      </trkpt>
      <trkpt lat="43.3401" lon="5.69911">
        <ele>661</ele>
        <time>2013-02-27T10:12:25Z</time>
      </trkpt>
      <trkpt lat="43.3401" lon="5.6991">
        <ele>661.4</ele>
        <time>2013-02-27T10:12:26Z</time>
      </trkpt>
      <trkpt lat="43.34021" lon="5.69893">
        <ele>660</ele>
        <time>2013-02-27T10:12:43Z</time>
      </trkpt>
      <trkpt lat="43.34028" lon="5.69886">
        <ele>662.4</ele>
        <time>2013-02-27T10:12:51Z</time>
      </trkpt>
      <trkpt lat="43.34035" lon="5.6988">
        <ele>666</ele>
        <time>2013-02-27T10:13:21Z</time>
      </trkpt>
      <trkpt lat="43.34042" lon="5.69874">
        <ele>664.5</ele>
        <time>2013-02-27T10:13:31Z</time>
      </trkpt>
      <trkpt lat="43.34043" lon="5.69874">
        <ele>664.2</ele>
        <time>2013-02-27T10:13:32Z</time>
      </trkpt>
      <trkpt lat="43.34055" lon="5.69859">
        <ele>663.2</ele>
        <time>2013-02-27T10:13:52Z</time>
      </trkpt>
      <trkpt lat="43.34056" lon="5.69848">
        <ele>663.5</ele>
        <time>2013-02-27T10:14:03Z</time>
      </trkpt>
      <trkpt lat="43.34056" lon="5.69836">
        <ele>665.2</ele>
        <time>2013-02-27T10:14:11Z</time>
      </trkpt>
      <trkpt lat="43.34055" lon="5.69825">
        <ele>665.5</ele>
        <time>2013-02-27T10:14:20Z</time>
      </trkpt>
      <trkpt lat="43.34054" lon="5.69813">
        <ele>664.5</ele>
        <time>2013-02-27T10:14:30Z</time>
      </trkpt>
      <trkpt lat="43.34055" lon="5.69801">
        <ele>666.5</ele>
        <time>2013-02-27T10:14:39Z</time>
      </trkpt>
      <trkpt lat="43.34055" lon="5.69799">
        <ele>667</ele>
        <time>2013-02-27T10:14:40Z</time>
      </trkpt>
      <trkpt lat="43.34061" lon="5.69779">
        <ele>662</ele>
        <time>2013-02-27T10:15:03Z</time>
      </trkpt>
      <trkpt lat="43.34063" lon="5.69768">
        <ele>660.5</ele>
        <time>2013-02-27T10:15:14Z</time>
      </trkpt>
      <trkpt lat="43.34066" lon="5.69756">
        <ele>659.4</ele>
        <time>2013-02-27T10:15:26Z</time>
      </trkpt>
      <trkpt lat="43.34072" lon="5.69748">
        <ele>663.2</ele>
        <time>2013-02-27T10:15:34Z</time>
      </trkpt>
      <trkpt lat="43.3408" lon="5.69752">
        <ele>667.4</ele>
        <time>2013-02-27T10:15:42Z</time>
      </trkpt>
      <trkpt lat="43.3408" lon="5.69753">
        <ele>667.7</ele>
        <time>2013-02-27T10:15:43Z</time>
      </trkpt>
      <trkpt lat="43.34094" lon="5.69765">
        <ele>670</ele>
        <time>2013-02-27T10:16:02Z</time>
      </trkpt>
      <trkpt lat="43.34101" lon="5.69772">
        <ele>670.7</ele>
        <time>2013-02-27T10:16:11Z</time>
      </trkpt>
      <trkpt lat="43.34109" lon="5.69775">
        <ele>672</ele>
        <time>2013-02-27T10:16:20Z</time>
      </trkpt>
      <trkpt lat="43.34117" lon="5.69778">
        <ele>671</ele>
        <time>2013-02-27T10:16:30Z</time>
      </trkpt>
      <trkpt lat="43.34126" lon="5.69779">
        <ele>672.7</ele>
        <time>2013-02-27T10:16:40Z</time>
      </trkpt>
      <trkpt lat="43.34135" lon="5.69781">
        <ele>674</ele>
        <time>2013-02-27T10:16:51Z</time>
      </trkpt>
      <trkpt lat="43.34135" lon="5.69781">
        <ele>674</ele>
        <time>2013-02-27T10:16:52Z</time>
      </trkpt>
      <trkpt lat="43.34144" lon="5.69784">
        <ele>678.4</ele>
        <time>2013-02-27T10:18:58Z</time>
      </trkpt>
      <trkpt lat="43.34155" lon="5.69799">
        <ele>672.4</ele>
        <time>2013-02-27T10:19:16Z</time>
      </trkpt>
      <trkpt lat="43.34159" lon="5.69809">
        <ele>670.7</ele>
        <time>2013-02-27T10:19:24Z</time>
      </trkpt>
      <trkpt lat="43.34165" lon="5.69818">
        <ele>669.7</ele>
        <time>2013-02-27T10:19:32Z</time>
      </trkpt>
      <trkpt lat="43.34171" lon="5.69826">
        <ele>667.7</ele>
        <time>2013-02-27T10:19:39Z</time>
      </trkpt>
      <trkpt lat="43.34178" lon="5.69829">
        <ele>665</ele>
        <time>2013-02-27T10:19:47Z</time>
      </trkpt>
      <trkpt lat="43.34187" lon="5.69828">
        <ele>666.2</ele>
        <time>2013-02-27T10:19:55Z</time>
      </trkpt>
      <trkpt lat="43.34194" lon="5.69822">
        <ele>666.2</ele>
        <time>2013-02-27T10:20:02Z</time>
      </trkpt>
      <trkpt lat="43.34195" lon="5.69821">
        <ele>666.5</ele>
        <time>2013-02-27T10:20:03Z</time>
      </trkpt>
      <trkpt lat="43.34209" lon="5.69813">
        <ele>667.9</ele>
        <time>2013-02-27T10:20:17Z</time>
      </trkpt>
      <trkpt lat="43.34217" lon="5.69808">
        <ele>669.2</ele>
        <time>2013-02-27T10:20:24Z</time>
      </trkpt>
      <trkpt lat="43.34222" lon="5.698">
        <ele>671.5</ele>
        <time>2013-02-27T10:20:32Z</time>
      </trkpt>
      <trkpt lat="43.34224" lon="5.69788">
        <ele>669.5</ele>
        <time>2013-02-27T10:20:41Z</time>
      </trkpt>
      <trkpt lat="43.34224" lon="5.69777">
        <ele>668.9</ele>
        <time>2013-02-27T10:20:50Z</time>
      </trkpt>
      <trkpt lat="43.3422" lon="5.69766">
        <ele>666.5</ele>
        <time>2013-02-27T10:20:58Z</time>
      </trkpt>
      <trkpt lat="43.34216" lon="5.69755">
        <ele>667</ele>
        <time>2013-02-27T10:21:06Z</time>
      </trkpt>
      <trkpt lat="43.34216" lon="5.69754">
        <ele>667</ele>
        <time>2013-02-27T10:21:07Z</time>
      </trkpt>
      <trkpt lat="43.34211" lon="5.69733">
        <ele>665.5</ele>
        <time>2013-02-27T10:21:23Z</time>
      </trkpt>
      <trkpt lat="43.34209" lon="5.69721">
        <ele>663.2</ele>
        <time>2013-02-27T10:21:32Z</time>
      </trkpt>
      <trkpt lat="43.34205" lon="5.6971">
        <ele>663</ele>
        <time>2013-02-27T10:21:40Z</time>
      </trkpt>
      <trkpt lat="43.34203" lon="5.697">
        <ele>663.2</ele>
        <time>2013-02-27T10:21:48Z</time>
      </trkpt>
      <trkpt lat="43.34203" lon="5.69689">
        <ele>670</ele>
        <time>2013-02-27T10:21:54Z</time>
      </trkpt>
      <trkpt lat="43.34202" lon="5.69678">
        <ele>672.7</ele>
        <time>2013-02-27T10:22:01Z</time>
      </trkpt>
      <trkpt lat="43.342" lon="5.69666">
        <ele>674.4</ele>
        <time>2013-02-27T10:22:10Z</time>
      </trkpt>
      <trkpt lat="43.342" lon="5.69664">
        <ele>674.7</ele>
        <time>2013-02-27T10:22:11Z</time>
      </trkpt>
      <trkpt lat="43.34195" lon="5.69644">
        <ele>679.9</ele>
        <time>2013-02-27T10:22:24Z</time>
      </trkpt>
      <trkpt lat="43.34193" lon="5.69632">
        <ele>681.2</ele>
        <time>2013-02-27T10:22:32Z</time>
      </trkpt>
      <trkpt lat="43.34189" lon="5.69621">
        <ele>680.7</ele>
        <time>2013-02-27T10:22:41Z</time>
      </trkpt>
      <trkpt lat="43.34185" lon="5.69611">
        <ele>683</ele>
        <time>2013-02-27T10:22:54Z</time>
      </trkpt>
      <trkpt lat="43.34184" lon="5.69599">
        <ele>684</ele>
        <time>2013-02-27T10:23:06Z</time>
      </trkpt>
      <trkpt lat="43.34183" lon="5.69587">
        <ele>684</ele>
        <time>2013-02-27T10:23:14Z</time>
      </trkpt>
      <trkpt lat="43.34182" lon="5.69586">
        <ele>683.9</ele>
        <time>2013-02-27T10:23:15Z</time>
      </trkpt>
      <trkpt lat="43.34175" lon="5.69566">
        <ele>683.5</ele>
        <time>2013-02-27T10:23:31Z</time>
      </trkpt>
      <trkpt lat="43.3417" lon="5.69557">
        <ele>683.5</ele>
        <time>2013-02-27T10:23:40Z</time>
      </trkpt>
      <trkpt lat="43.34166" lon="5.69546">
        <ele>683.4</ele>
        <time>2013-02-27T10:23:49Z</time>
      </trkpt>
      <trkpt lat="43.34163" lon="5.69536">
        <ele>684</ele>
        <time>2013-02-27T10:23:58Z</time>
      </trkpt>
      <trkpt lat="43.34159" lon="5.69525">
        <ele>684</ele>
        <time>2013-02-27T10:24:07Z</time>
      </trkpt>
      <trkpt lat="43.34155" lon="5.69515">
        <ele>684.7</ele>
        <time>2013-02-27T10:24:15Z</time>
      </trkpt>
      <trkpt lat="43.34155" lon="5.69514">
        <ele>684.7</ele>
        <time>2013-02-27T10:24:16Z</time>
      </trkpt>
      <trkpt lat="43.34146" lon="5.69494">
        <ele>686.7</ele>
        <time>2013-02-27T10:24:33Z</time>
      </trkpt>
      <trkpt lat="43.34141" lon="5.69485">
        <ele>687.5</ele>
        <time>2013-02-27T10:24:42Z</time>
      </trkpt>
      <trkpt lat="43.34137" lon="5.69474">
        <ele>688.7</ele>
        <time>2013-02-27T10:24:51Z</time>
      </trkpt>
      <trkpt lat="43.34135" lon="5.69462">
        <ele>689.7</ele>
        <time>2013-02-27T10:25:09Z</time>
      </trkpt>
      <trkpt lat="43.34132" lon="5.69451">
        <ele>688.2</ele>
        <time>2013-02-27T10:25:16Z</time>
      </trkpt>
      <trkpt lat="43.34131" lon="5.6945">
        <ele>688.2</ele>
        <time>2013-02-27T10:25:17Z</time>
      </trkpt>
      <trkpt lat="43.34126" lon="5.6943">
        <ele>688.4</ele>
        <time>2013-02-27T10:25:32Z</time>
      </trkpt>
      <trkpt lat="43.34122" lon="5.6942">
        <ele>689</ele>
        <time>2013-02-27T10:25:39Z</time>
      </trkpt>
      <trkpt lat="43.34118" lon="5.69409">
        <ele>689</ele>
        <time>2013-02-27T10:25:47Z</time>
      </trkpt>
      <trkpt lat="43.34113" lon="5.69399">
        <ele>689</ele>
        <time>2013-02-27T10:25:55Z</time>
      </trkpt>
      <trkpt lat="43.34109" lon="5.69388">
        <ele>690</ele>
        <time>2013-02-27T10:26:03Z</time>
      </trkpt>
      <trkpt lat="43.34106" lon="5.69378">
        <ele>691.9</ele>
        <time>2013-02-27T10:26:10Z</time>
      </trkpt>
      <trkpt lat="43.34102" lon="5.69367">
        <ele>693</ele>
        <time>2013-02-27T10:26:18Z</time>
      </trkpt>
      <trkpt lat="43.34102" lon="5.69366">
        <ele>693.2</ele>
        <time>2013-02-27T10:26:19Z</time>
      </trkpt>
      <trkpt lat="43.34095" lon="5.69347">
        <ele>693.5</ele>
        <time>2013-02-27T10:26:33Z</time>
      </trkpt>
      <trkpt lat="43.34092" lon="5.69337">
        <ele>692</ele>
        <time>2013-02-27T10:26:41Z</time>
      </trkpt>
      <trkpt lat="43.3409" lon="5.69326">
        <ele>692.9</ele>
        <time>2013-02-27T10:26:48Z</time>
      </trkpt>
      <trkpt lat="43.34089" lon="5.69315">
        <ele>693.7</ele>
        <time>2013-02-27T10:26:55Z</time>
      </trkpt>
      <trkpt lat="43.34087" lon="5.69303">
        <ele>695.2</ele>
        <time>2013-02-27T10:27:03Z</time>
      </trkpt>
      <trkpt lat="43.34084" lon="5.69292">
        <ele>694.9</ele>
        <time>2013-02-27T10:27:11Z</time>
      </trkpt>
      <trkpt lat="43.34081" lon="5.69281">
        <ele>695.5</ele>
        <time>2013-02-27T10:27:19Z</time>
      </trkpt>
      <trkpt lat="43.3408" lon="5.6928">
        <ele>695.5</ele>
        <time>2013-02-27T10:27:20Z</time>
      </trkpt>
      <trkpt lat="43.34076" lon="5.69259">
        <ele>696</ele>
        <time>2013-02-27T10:27:37Z</time>
      </trkpt>
      <trkpt lat="43.34075" lon="5.69248">
        <ele>696</ele>
        <time>2013-02-27T10:27:45Z</time>
      </trkpt>
      <trkpt lat="43.34074" lon="5.69236">
        <ele>699.4</ele>
        <time>2013-02-27T10:27:53Z</time>
      </trkpt>
      <trkpt lat="43.34073" lon="5.69225">
        <ele>701.5</ele>
        <time>2013-02-27T10:28:02Z</time>
      </trkpt>
      <trkpt lat="43.34074" lon="5.69213">
        <ele>702.7</ele>
        <time>2013-02-27T10:28:10Z</time>
      </trkpt>
      <trkpt lat="43.34073" lon="5.69202">
        <ele>702.5</ele>
        <time>2013-02-27T10:28:18Z</time>
      </trkpt>
      <trkpt lat="43.34071" lon="5.6919">
        <ele>703.4</ele>
        <time>2013-02-27T10:28:26Z</time>
      </trkpt>
      <trkpt lat="43.34071" lon="5.69189">
        <ele>703.5</ele>
        <time>2013-02-27T10:28:27Z</time>
      </trkpt>
      <trkpt lat="43.34064" lon="5.69169">
        <ele>705.2</ele>
        <time>2013-02-27T10:28:42Z</time>
      </trkpt>
      <trkpt lat="43.34059" lon="5.69159">
        <ele>706.7</ele>
        <time>2013-02-27T10:28:51Z</time>
      </trkpt>
      <trkpt lat="43.34054" lon="5.6915">
        <ele>707.5</ele>
        <time>2013-02-27T10:29:00Z</time>
      </trkpt>
      <trkpt lat="43.3405" lon="5.69141">
        <ele>708.7</ele>
        <time>2013-02-27T10:29:08Z</time>
      </trkpt>
      <trkpt lat="43.34046" lon="5.6913">
        <ele>709.2</ele>
        <time>2013-02-27T10:29:17Z</time>
      </trkpt>
      <trkpt lat="43.34042" lon="5.6912">
        <ele>710</ele>
        <time>2013-02-27T10:29:26Z</time>
      </trkpt>
      <trkpt lat="43.34042" lon="5.69118">
        <ele>710.2</ele>
        <time>2013-02-27T10:29:27Z</time>
      </trkpt>
      <trkpt lat="43.34035" lon="5.69099">
        <ele>713</ele>
        <time>2013-02-27T10:30:17Z</time>
      </trkpt>
      <trkpt lat="43.34035" lon="5.69087">
        <ele>712.7</ele>
        <time>2013-02-27T10:31:36Z</time>
      </trkpt>
      <trkpt lat="43.34035" lon="5.69085">
        <ele>712.7</ele>
        <time>2013-02-27T10:31:37Z</time>
      </trkpt>
      <trkpt lat="43.34032" lon="5.69064">
        <ele>711.5</ele>
        <time>2013-02-27T10:31:56Z</time>
      </trkpt>
      <trkpt lat="43.34031" lon="5.69052">
        <ele>711.7</ele>
        <time>2013-02-27T10:32:07Z</time>
      </trkpt>
      <trkpt lat="43.3403" lon="5.69041">
        <ele>712.2</ele>
        <time>2013-02-27T10:32:16Z</time>
      </trkpt>
      <trkpt lat="43.34025" lon="5.69031">
        <ele>713.4</ele>
        <time>2013-02-27T10:32:24Z</time>
      </trkpt>
      <trkpt lat="43.3402" lon="5.69022">
        <ele>713.9</ele>
        <time>2013-02-27T10:32:33Z</time>
      </trkpt>
      <trkpt lat="43.34015" lon="5.69013">
        <ele>714.2</ele>
        <time>2013-02-27T10:32:41Z</time>
      </trkpt>
      <trkpt lat="43.34014" lon="5.69012">
        <ele>714.2</ele>
        <time>2013-02-27T10:32:42Z</time>
      </trkpt>
      <trkpt lat="43.34005" lon="5.68993">
        <ele>717</ele>
        <time>2013-02-27T10:32:59Z</time>
      </trkpt>
      <trkpt lat="43.34" lon="5.68983">
        <ele>717.4</ele>
        <time>2013-02-27T10:33:09Z</time>
      </trkpt>
      <trkpt lat="43.33996" lon="5.68973">
        <ele>716.4</ele>
        <time>2013-02-27T10:33:19Z</time>
      </trkpt>
      <trkpt lat="43.3399" lon="5.68964">
        <ele>717.2</ele>
        <time>2013-02-27T10:33:28Z</time>
      </trkpt>
      <trkpt lat="43.33984" lon="5.68956">
        <ele>715.5</ele>
        <time>2013-02-27T10:34:18Z</time>
      </trkpt>
      <trkpt lat="43.33984" lon="5.68955">
        <ele>715.2</ele>
        <time>2013-02-27T10:34:19Z</time>
      </trkpt>
      <trkpt lat="43.33975" lon="5.68936">
        <ele>714.7</ele>
        <time>2013-02-27T10:34:35Z</time>
      </trkpt>
      <trkpt lat="43.3397" lon="5.68928">
        <ele>715</ele>
        <time>2013-02-27T10:34:43Z</time>
      </trkpt>
      <trkpt lat="43.33966" lon="5.68917">
        <ele>716</ele>
        <time>2013-02-27T10:34:51Z</time>
      </trkpt>
      <trkpt lat="43.33963" lon="5.68907">
        <ele>715.9</ele>
        <time>2013-02-27T10:35:00Z</time>
      </trkpt>
      <trkpt lat="43.33959" lon="5.68897">
        <ele>715</ele>
        <time>2013-02-27T10:35:09Z</time>
      </trkpt>
      <trkpt lat="43.33955" lon="5.68886">
        <ele>715.9</ele>
        <time>2013-02-27T10:35:16Z</time>
      </trkpt>
      <trkpt lat="43.33953" lon="5.68875">
        <ele>717</ele>
        <time>2013-02-27T10:35:24Z</time>
      </trkpt>
      <trkpt lat="43.33953" lon="5.68874">
        <ele>717</ele>
        <time>2013-02-27T10:35:25Z</time>
      </trkpt>
      <trkpt lat="43.33947" lon="5.68854">
        <ele>718</ele>
        <time>2013-02-27T10:35:39Z</time>
      </trkpt>
      <trkpt lat="43.33944" lon="5.68844">
        <ele>718.2</ele>
        <time>2013-02-27T10:35:46Z</time>
      </trkpt>
      <trkpt lat="43.3394" lon="5.68833">
        <ele>716.7</ele>
        <time>2013-02-27T10:35:55Z</time>
      </trkpt>
      <trkpt lat="43.33937" lon="5.68822">
        <ele>717.5</ele>
        <time>2013-02-27T10:36:02Z</time>
      </trkpt>
      <trkpt lat="43.33934" lon="5.68811">
        <ele>719.2</ele>
        <time>2013-02-27T10:36:09Z</time>
      </trkpt>
      <trkpt lat="43.3393" lon="5.68801">
        <ele>719.9</ele>
        <time>2013-02-27T10:36:15Z</time>
      </trkpt>
      <trkpt lat="43.33925" lon="5.68791">
        <ele>720.4</ele>
        <time>2013-02-27T10:36:22Z</time>
      </trkpt>
      <trkpt lat="43.33921" lon="5.68781">
        <ele>720.5</ele>
        <time>2013-02-27T10:36:29Z</time>
      </trkpt>
      <trkpt lat="43.3392" lon="5.68779">
        <ele>720.7</ele>
        <time>2013-02-27T10:36:30Z</time>
      </trkpt>
      <trkpt lat="43.33913" lon="5.68762">
        <ele>721</ele>
        <time>2013-02-27T10:36:43Z</time>
      </trkpt>
      <trkpt lat="43.33908" lon="5.68751">
        <ele>720.2</ele>
        <time>2013-02-27T10:36:51Z</time>
      </trkpt>
      <trkpt lat="43.33904" lon="5.68741">
        <ele>719.9</ele>
        <time>2013-02-27T10:36:59Z</time>
      </trkpt>
      <trkpt lat="43.33901" lon="5.68729">
        <ele>720.5</ele>
        <time>2013-02-27T10:37:06Z</time>
      </trkpt>
      <trkpt lat="43.33899" lon="5.68719">
        <ele>721.4</ele>
        <time>2013-02-27T10:37:13Z</time>
      </trkpt>
      <trkpt lat="43.33898" lon="5.68707">
        <ele>721.2</ele>
        <time>2013-02-27T10:37:23Z</time>
      </trkpt>
      <trkpt lat="43.33899" lon="5.68695">
        <ele>720.2</ele>
        <time>2013-02-27T10:37:32Z</time>
      </trkpt>
      <trkpt lat="43.33899" lon="5.68694">
        <ele>720.2</ele>
        <time>2013-02-27T10:37:33Z</time>
      </trkpt>
      <trkpt lat="43.33906" lon="5.68674">
        <ele>721.5</ele>
        <time>2013-02-27T10:37:50Z</time>
      </trkpt>
      <trkpt lat="43.33909" lon="5.68663">
        <ele>724.4</ele>
        <time>2013-02-27T10:37:58Z</time>
      </trkpt>
      <trkpt lat="43.33914" lon="5.68653">
        <ele>724.2</ele>
        <time>2013-02-27T10:38:07Z</time>
      </trkpt>
      <trkpt lat="43.33917" lon="5.68642">
        <ele>724.9</ele>
        <time>2013-02-27T10:38:15Z</time>
      </trkpt>
      <trkpt lat="43.33919" lon="5.68631">
        <ele>724.5</ele>
        <time>2013-02-27T10:38:23Z</time>
      </trkpt>
      <trkpt lat="43.33921" lon="5.6862">
        <ele>723.5</ele>
        <time>2013-02-27T10:38:32Z</time>
      </trkpt>
      <trkpt lat="43.33923" lon="5.68609">
        <ele>723.2</ele>
        <time>2013-02-27T10:38:40Z</time>
      </trkpt>
      <trkpt lat="43.33923" lon="5.68607">
        <ele>723.2</ele>
        <time>2013-02-27T10:38:41Z</time>
      </trkpt>
      <trkpt lat="43.33925" lon="5.68585">
        <ele>727.7</ele>
        <time>2013-02-27T10:38:55Z</time>
      </trkpt>
      <trkpt lat="43.33928" lon="5.68574">
        <ele>729</ele>
        <time>2013-02-27T10:39:03Z</time>
      </trkpt>
      <trkpt lat="43.33932" lon="5.68564">
        <ele>729.2</ele>
        <time>2013-02-27T10:39:11Z</time>
      </trkpt>
      <trkpt lat="43.33936" lon="5.68555">
        <ele>728.7</ele>
        <time>2013-02-27T10:39:19Z</time>
      </trkpt>
      <trkpt lat="43.33939" lon="5.68544">
        <ele>727.2</ele>
        <time>2013-02-27T10:39:28Z</time>
      </trkpt>
      <trkpt lat="43.33942" lon="5.68532">
        <ele>727.5</ele>
        <time>2013-02-27T10:39:37Z</time>
      </trkpt>
      <trkpt lat="43.33944" lon="5.68521">
        <ele>728</ele>
        <time>2013-02-27T10:39:45Z</time>
      </trkpt>
      <trkpt lat="43.33944" lon="5.6852">
        <ele>728</ele>
        <time>2013-02-27T10:39:46Z</time>
      </trkpt>
      <trkpt lat="43.33949" lon="5.68498">
        <ele>731.7</ele>
        <time>2013-02-27T10:40:02Z</time>
      </trkpt>
      <trkpt lat="43.33954" lon="5.68489">
        <ele>731.9</ele>
        <time>2013-02-27T10:40:11Z</time>
      </trkpt>
      <trkpt lat="43.3396" lon="5.6848">
        <ele>733.4</ele>
        <time>2013-02-27T10:40:20Z</time>
      </trkpt>
      <trkpt lat="43.33967" lon="5.68473">
        <ele>732.9</ele>
        <time>2013-02-27T10:40:29Z</time>
      </trkpt>
      <trkpt lat="43.3397" lon="5.68461">
        <ele>734.2</ele>
        <time>2013-02-27T10:40:38Z</time>
      </trkpt>
      <trkpt lat="43.33972" lon="5.6845">
        <ele>736</ele>
        <time>2013-02-27T10:40:46Z</time>
      </trkpt>
      <trkpt lat="43.33972" lon="5.68449">
        <ele>736.2</ele>
        <time>2013-02-27T10:40:47Z</time>
      </trkpt>
      <trkpt lat="43.33969" lon="5.68427">
        <ele>739.7</ele>
        <time>2013-02-27T10:41:09Z</time>
      </trkpt>
      <trkpt lat="43.33968" lon="5.68415">
        <ele>739.4</ele>
        <time>2013-02-27T10:41:17Z</time>
      </trkpt>
      <trkpt lat="43.33967" lon="5.68404">
        <ele>739</ele>
        <time>2013-02-27T10:41:24Z</time>
      </trkpt>
      <trkpt lat="43.33965" lon="5.68393">
        <ele>739.5</ele>
        <time>2013-02-27T10:41:31Z</time>
      </trkpt>
      <trkpt lat="43.33963" lon="5.68381">
        <ele>739.7</ele>
        <time>2013-02-27T10:41:38Z</time>
      </trkpt>
      <trkpt lat="43.33964" lon="5.68369">
        <ele>738.7</ele>
        <time>2013-02-27T10:41:47Z</time>
      </trkpt>
      <trkpt lat="43.33964" lon="5.68368">
        <ele>738.7</ele>
        <time>2013-02-27T10:41:48Z</time>
      </trkpt>
      <trkpt lat="43.33962" lon="5.68356">
        <ele>742.2</ele>
        <time>2013-02-27T10:45:06Z</time>
      </trkpt>
      <trkpt lat="43.33965" lon="5.68356">
        <ele>741.5</ele>
        <time>2013-02-27T10:46:39Z</time>
      </trkpt>
      <trkpt lat="43.33965" lon="5.68357">
        <ele>741.5</ele>
        <time>2013-02-27T10:46:40Z</time>
      </trkpt>
      <trkpt lat="43.33978" lon="5.6837">
        <ele>742.4</ele>
        <time>2013-02-27T10:47:07Z</time>
      </trkpt>
      <trkpt lat="43.33986" lon="5.68376">
        <ele>742.9</ele>
        <time>2013-02-27T10:47:17Z</time>
      </trkpt>
      <trkpt lat="43.33994" lon="5.6838">
        <ele>743</ele>
        <time>2013-02-27T10:47:27Z</time>
      </trkpt>
      <trkpt lat="43.34001" lon="5.68383">
        <ele>744</ele>
        <time>2013-02-27T10:47:35Z</time>
      </trkpt>
      <trkpt lat="43.3401" lon="5.68386">
        <ele>743.7</ele>
        <time>2013-02-27T10:47:44Z</time>
      </trkpt>
      <trkpt lat="43.3401" lon="5.68387">
        <ele>743.5</ele>
        <time>2013-02-27T10:47:45Z</time>
      </trkpt>
      <trkpt lat="43.34024" lon="5.68399">
        <ele>741.7</ele>
        <time>2013-02-27T10:48:05Z</time>
      </trkpt>
      <trkpt lat="43.3403" lon="5.68407">
        <ele>740.5</ele>
        <time>2013-02-27T10:48:17Z</time>
      </trkpt>
      <trkpt lat="43.34036" lon="5.68415">
        <ele>740.5</ele>
        <time>2013-02-27T10:48:26Z</time>
      </trkpt>
      <trkpt lat="43.34043" lon="5.68423">
        <ele>742.2</ele>
        <time>2013-02-27T10:48:34Z</time>
      </trkpt>
      <trkpt lat="43.34048" lon="5.68432">
        <ele>741.7</ele>
        <time>2013-02-27T10:48:43Z</time>
      </trkpt>
      <trkpt lat="43.34054" lon="5.68441">
        <ele>739.7</ele>
        <time>2013-02-27T10:48:53Z</time>
      </trkpt>
      <trkpt lat="43.34054" lon="5.68442">
        <ele>740.2</ele>
        <time>2013-02-27T10:48:54Z</time>
      </trkpt>
      <trkpt lat="43.34065" lon="5.6846">
        <ele>740.2</ele>
        <time>2013-02-27T10:49:12Z</time>
      </trkpt>
      <trkpt lat="43.3407" lon="5.6847">
        <ele>742.5</ele>
        <time>2013-02-27T10:49:21Z</time>
      </trkpt>
      <trkpt lat="43.34076" lon="5.68477">
        <ele>741.9</ele>
        <time>2013-02-27T10:49:30Z</time>
      </trkpt>
      <trkpt lat="43.34083" lon="5.68485">
        <ele>743</ele>
        <time>2013-02-27T10:49:39Z</time>
      </trkpt>
      <trkpt lat="43.3409" lon="5.68491">
        <ele>746.7</ele>
        <time>2013-02-27T10:49:51Z</time>
      </trkpt>
      <trkpt lat="43.34097" lon="5.68499">
        <ele>750.2</ele>
        <time>2013-02-27T10:50:03Z</time>
      </trkpt>
      <trkpt lat="43.34097" lon="5.685">
        <ele>750.5</ele>
        <time>2013-02-27T10:50:04Z</time>
      </trkpt>
      <trkpt lat="43.34107" lon="5.68517">
        <ele>753.2</ele>
        <time>2013-02-27T10:50:33Z</time>
      </trkpt>
      <trkpt lat="43.3411" lon="5.68528">
        <ele>756</ele>
        <time>2013-02-27T10:50:46Z</time>
      </trkpt>
      <trkpt lat="43.34112" lon="5.68516">
        <ele>755.7</ele>
        <time>2013-02-27T10:51:40Z</time>
      </trkpt>
      <trkpt lat="43.34112" lon="5.68515">
        <ele>755.5</ele>
        <time>2013-02-27T10:51:41Z</time>
      </trkpt>
      <trkpt lat="43.341" lon="5.68499">
        <ele>752.5</ele>
        <time>2013-02-27T10:52:01Z</time>
      </trkpt>
      <trkpt lat="43.34093" lon="5.68493">
        <ele>751.2</ele>
        <time>2013-02-27T10:52:09Z</time>
      </trkpt>
      <trkpt lat="43.34086" lon="5.68486">
        <ele>748.4</ele>
        <time>2013-02-27T10:52:18Z</time>
      </trkpt>
      <trkpt lat="43.34081" lon="5.68478">
        <ele>747.2</ele>
        <time>2013-02-27T10:52:26Z</time>
      </trkpt>
      <trkpt lat="43.34075" lon="5.68469">
        <ele>746.5</ele>
        <time>2013-02-27T10:52:33Z</time>
      </trkpt>
      <trkpt lat="43.3407" lon="5.6846">
        <ele>746.2</ele>
        <time>2013-02-27T10:52:41Z</time>
      </trkpt>
      <trkpt lat="43.34069" lon="5.68459">
        <ele>746.2</ele>
        <time>2013-02-27T10:52:42Z</time>
      </trkpt>
      <trkpt lat="43.34059" lon="5.68442">
        <ele>744.2</ele>
        <time>2013-02-27T10:52:56Z</time>
      </trkpt>
      <trkpt lat="43.34053" lon="5.68434">
        <ele>742.2</ele>
        <time>2013-02-27T10:53:04Z</time>
      </trkpt>
      <trkpt lat="43.34047" lon="5.68426">
        <ele>741.7</ele>
        <time>2013-02-27T10:53:11Z</time>
      </trkpt>
      <trkpt lat="43.3404" lon="5.68419">
        <ele>741</ele>
        <time>2013-02-27T10:53:19Z</time>
      </trkpt>
      <trkpt lat="43.34033" lon="5.68412">
        <ele>740.7</ele>
        <time>2013-02-27T10:53:26Z</time>
      </trkpt>
      <trkpt lat="43.34027" lon="5.68403">
        <ele>740.2</ele>
        <time>2013-02-27T10:53:35Z</time>
      </trkpt>
      <trkpt lat="43.3402" lon="5.68398">
        <ele>740</ele>
        <time>2013-02-27T10:53:43Z</time>
      </trkpt>
      <trkpt lat="43.34019" lon="5.68397">
        <ele>739.9</ele>
        <time>2013-02-27T10:53:44Z</time>
      </trkpt>
      <trkpt lat="43.34005" lon="5.68388">
        <ele>740.4</ele>
        <time>2013-02-27T10:53:58Z</time>
      </trkpt>
      <trkpt lat="43.33997" lon="5.68382">
        <ele>741.5</ele>
        <time>2013-02-27T10:54:06Z</time>
      </trkpt>
      <trkpt lat="43.33989" lon="5.68378">
        <ele>741.4</ele>
        <time>2013-02-27T10:54:14Z</time>
      </trkpt>
      <trkpt lat="43.33981" lon="5.68373">
        <ele>741.2</ele>
        <time>2013-02-27T10:54:22Z</time>
      </trkpt>
      <trkpt lat="43.33974" lon="5.68368">
        <ele>740.7</ele>
        <time>2013-02-27T10:54:31Z</time>
      </trkpt>
      <trkpt lat="43.33966" lon="5.68363">
        <ele>740.7</ele>
        <time>2013-02-27T10:54:40Z</time>
      </trkpt>
      <trkpt lat="43.33959" lon="5.68356">
        <ele>740.9</ele>
        <time>2013-02-27T10:54:51Z</time>
      </trkpt>
      <trkpt lat="43.33959" lon="5.68355">
        <ele>740.7</ele>
        <time>2013-02-27T10:54:52Z</time>
      </trkpt>
      <trkpt lat="43.33966" lon="5.6834">
        <ele>740</ele>
        <time>2013-02-27T10:55:32Z</time>
      </trkpt>
      <trkpt lat="43.33974" lon="5.68339">
        <ele>738.7</ele>
        <time>2013-02-27T10:55:42Z</time>
      </trkpt>
      <trkpt lat="43.33982" lon="5.68344">
        <ele>738.9</ele>
        <time>2013-02-27T10:55:59Z</time>
      </trkpt>
      <trkpt lat="43.33983" lon="5.68345">
        <ele>738.9</ele>
        <time>2013-02-27T10:56:00Z</time>
      </trkpt>
      <trkpt lat="43.33994" lon="5.68353">
        <ele>743.4</ele>
        <time>2013-02-27T10:56:45Z</time>
      </trkpt>
      <trkpt lat="43.34002" lon="5.68345">
        <ele>759.5</ele>
        <time>2013-02-27T11:58:28Z</time>
      </trkpt>
      <trkpt lat="43.33996" lon="5.68354">
        <ele>750.7</ele>
        <time>2013-02-27T11:59:12Z</time>
      </trkpt>
      <trkpt lat="43.3399" lon="5.68345">
        <ele>740.9</ele>
        <time>2013-02-27T12:01:02Z</time>
      </trkpt>
      <trkpt lat="43.3399" lon="5.68345">
        <ele>740.5</ele>
        <time>2013-02-27T12:01:03Z</time>
      </trkpt>
      <trkpt lat="43.33999" lon="5.68343">
        <ele>737.2</ele>
        <time>2013-02-27T12:04:04Z</time>
      </trkpt>
      <trkpt lat="43.34015" lon="5.68345">
        <ele>732.2</ele>
        <time>2013-02-27T12:04:38Z</time>
      </trkpt>
      <trkpt lat="43.34024" lon="5.68341">
        <ele>729.7</ele>
        <time>2013-02-27T12:04:49Z</time>
      </trkpt>
      <trkpt lat="43.34032" lon="5.68338">
        <ele>728.7</ele>
        <time>2013-02-27T12:04:58Z</time>
      </trkpt>
      <trkpt lat="43.34041" lon="5.68334">
        <ele>726.4</ele>
        <time>2013-02-27T12:05:09Z</time>
      </trkpt>
      <trkpt lat="43.34041" lon="5.68334">
        <ele>726</ele>
        <time>2013-02-27T12:05:10Z</time>
      </trkpt>
      <trkpt lat="43.34057" lon="5.68339">
        <ele>725</ele>
        <time>2013-02-27T12:05:31Z</time>
      </trkpt>
      <trkpt lat="43.34064" lon="5.68345">
        <ele>725.5</ele>
        <time>2013-02-27T12:05:40Z</time>
      </trkpt>
      <trkpt lat="43.3407" lon="5.68353">
        <ele>725.5</ele>
        <time>2013-02-27T12:05:49Z</time>
      </trkpt>
      <trkpt lat="43.34079" lon="5.68351">
        <ele>724.2</ele>
        <time>2013-02-27T12:05:59Z</time>
      </trkpt>
      <trkpt lat="43.34079" lon="5.68339">
        <ele>726.4</ele>
        <time>2013-02-27T12:06:09Z</time>
      </trkpt>
      <trkpt lat="43.34074" lon="5.6833">
        <ele>726.5</ele>
        <time>2013-02-27T12:06:17Z</time>
      </trkpt>
      <trkpt lat="43.34074" lon="5.68329">
        <ele>726.4</ele>
        <time>2013-02-27T12:06:18Z</time>
      </trkpt>
      <trkpt lat="43.34063" lon="5.68312">
        <ele>726.5</ele>
        <time>2013-02-27T12:06:34Z</time>
      </trkpt>
      <trkpt lat="43.34056" lon="5.68305">
        <ele>726.4</ele>
        <time>2013-02-27T12:06:45Z</time>
      </trkpt>
      <trkpt lat="43.34048" lon="5.68303">
        <ele>725.7</ele>
        <time>2013-02-27T12:06:53Z</time>
      </trkpt>
      <trkpt lat="43.34039" lon="5.68305">
        <ele>725.9</ele>
        <time>2013-02-27T12:07:03Z</time>
      </trkpt>
      <trkpt lat="43.34031" lon="5.68309">
        <ele>726.5</ele>
        <time>2013-02-27T12:07:13Z</time>
      </trkpt>
      <trkpt lat="43.34023" lon="5.68312">
        <ele>727.7</ele>
        <time>2013-02-27T12:07:22Z</time>
      </trkpt>
      <trkpt lat="43.34022" lon="5.68312">
        <ele>727.7</ele>
        <time>2013-02-27T12:07:23Z</time>
      </trkpt>
      <trkpt lat="43.34007" lon="5.68311">
        <ele>728.4</ele>
        <time>2013-02-27T12:07:40Z</time>
      </trkpt>
      <trkpt lat="43.33998" lon="5.68307">
        <ele>728.9</ele>
        <time>2013-02-27T12:07:49Z</time>
      </trkpt>
      <trkpt lat="43.33991" lon="5.68301">
        <ele>728.5</ele>
        <time>2013-02-27T12:07:57Z</time>
      </trkpt>
      <trkpt lat="43.33984" lon="5.68296">
        <ele>728.2</ele>
        <time>2013-02-27T12:08:05Z</time>
      </trkpt>
      <trkpt lat="43.33976" lon="5.68293">
        <ele>727.2</ele>
        <time>2013-02-27T12:08:13Z</time>
      </trkpt>
      <trkpt lat="43.33968" lon="5.68291">
        <ele>726.4</ele>
        <time>2013-02-27T12:08:21Z</time>
      </trkpt>
      <trkpt lat="43.33959" lon="5.6829">
        <ele>725.9</ele>
        <time>2013-02-27T12:08:29Z</time>
      </trkpt>
      <trkpt lat="43.33959" lon="5.68291">
        <ele>725.9</ele>
        <time>2013-02-27T12:08:30Z</time>
      </trkpt>
      <trkpt lat="43.33943" lon="5.68289">
        <ele>724.2</ele>
        <time>2013-02-27T12:08:48Z</time>
      </trkpt>
      <trkpt lat="43.33946" lon="5.68278">
        <ele>721.2</ele>
        <time>2013-02-27T12:09:00Z</time>
      </trkpt>
      <trkpt lat="43.33954" lon="5.68274">
        <ele>719</ele>
        <time>2013-02-27T12:09:10Z</time>
      </trkpt>
      <trkpt lat="43.33962" lon="5.68273">
        <ele>718</ele>
        <time>2013-02-27T12:09:20Z</time>
      </trkpt>
      <trkpt lat="43.33971" lon="5.68272">
        <ele>717</ele>
        <time>2013-02-27T12:09:29Z</time>
      </trkpt>
      <trkpt lat="43.33979" lon="5.68271">
        <ele>715.7</ele>
        <time>2013-02-27T12:09:38Z</time>
      </trkpt>
      <trkpt lat="43.3398" lon="5.68271">
        <ele>715.7</ele>
        <time>2013-02-27T12:09:39Z</time>
      </trkpt>
      <trkpt lat="43.33996" lon="5.68276">
        <ele>714.2</ele>
        <time>2013-02-27T12:09:57Z</time>
      </trkpt>
      <trkpt lat="43.34004" lon="5.68278">
        <ele>714</ele>
        <time>2013-02-27T12:10:05Z</time>
      </trkpt>
      <trkpt lat="43.34013" lon="5.6828">
        <ele>714.2</ele>
        <time>2013-02-27T12:10:14Z</time>
      </trkpt>
      <trkpt lat="43.34022" lon="5.68277">
        <ele>713.5</ele>
        <time>2013-02-27T12:10:24Z</time>
      </trkpt>
      <trkpt lat="43.34027" lon="5.68269">
        <ele>711.7</ele>
        <time>2013-02-27T12:10:32Z</time>
      </trkpt>
      <trkpt lat="43.34033" lon="5.68261">
        <ele>710.7</ele>
        <time>2013-02-27T12:10:40Z</time>
      </trkpt>
      <trkpt lat="43.34034" lon="5.68259">
        <ele>710.4</ele>
        <time>2013-02-27T12:10:41Z</time>
      </trkpt>
      <trkpt lat="43.34043" lon="5.68242">
        <ele>708.4</ele>
        <time>2013-02-27T12:10:56Z</time>
      </trkpt>
      <trkpt lat="43.34047" lon="5.68231">
        <ele>707</ele>
        <time>2013-02-27T12:11:05Z</time>
      </trkpt>
      <trkpt lat="43.34051" lon="5.68221">
        <ele>706.5</ele>
        <time>2013-02-27T12:11:14Z</time>
      </trkpt>
      <trkpt lat="43.34055" lon="5.68211">
        <ele>706</ele>
        <time>2013-02-27T12:11:22Z</time>
      </trkpt>
      <trkpt lat="43.3406" lon="5.68202">
        <ele>706</ele>
        <time>2013-02-27T12:11:30Z</time>
      </trkpt>
      <trkpt lat="43.34065" lon="5.68193">
        <ele>704.7</ele>
        <time>2013-02-27T12:11:39Z</time>
      </trkpt>
      <trkpt lat="43.34072" lon="5.68185">
        <ele>704</ele>
        <time>2013-02-27T12:11:47Z</time>
      </trkpt>
      <trkpt lat="43.34072" lon="5.68184">
        <ele>704</ele>
        <time>2013-02-27T12:11:48Z</time>
      </trkpt>
      <trkpt lat="43.34083" lon="5.68169">
        <ele>701.7</ele>
        <time>2013-02-27T12:12:04Z</time>
      </trkpt>
      <trkpt lat="43.3409" lon="5.68162">
        <ele>699.2</ele>
        <time>2013-02-27T12:12:13Z</time>
      </trkpt>
      <trkpt lat="43.34097" lon="5.68155">
        <ele>697.7</ele>
        <time>2013-02-27T12:12:21Z</time>
      </trkpt>
      <trkpt lat="43.34104" lon="5.68147">
        <ele>695.7</ele>
        <time>2013-02-27T12:12:31Z</time>
      </trkpt>
      <trkpt lat="43.34111" lon="5.6814">
        <ele>694.7</ele>
        <time>2013-02-27T12:12:40Z</time>
      </trkpt>
      <trkpt lat="43.34118" lon="5.68135">
        <ele>694.2</ele>
        <time>2013-02-27T12:12:48Z</time>
      </trkpt>
      <trkpt lat="43.34125" lon="5.68128">
        <ele>693.9</ele>
        <time>2013-02-27T12:12:55Z</time>
      </trkpt>
      <trkpt lat="43.34126" lon="5.68127">
        <ele>693.9</ele>
        <time>2013-02-27T12:12:56Z</time>
      </trkpt>
      <trkpt lat="43.34134" lon="5.6811">
        <ele>693</ele>
        <time>2013-02-27T12:13:10Z</time>
      </trkpt>
      <trkpt lat="43.34139" lon="5.68099">
        <ele>691.9</ele>
        <time>2013-02-27T12:13:19Z</time>
      </trkpt>
      <trkpt lat="43.34144" lon="5.68089">
        <ele>691</ele>
        <time>2013-02-27T12:13:27Z</time>
      </trkpt>
      <trkpt lat="43.34148" lon="5.6808">
        <ele>690.2</ele>
        <time>2013-02-27T12:13:34Z</time>
      </trkpt>
      <trkpt lat="43.34153" lon="5.68071">
        <ele>689</ele>
        <time>2013-02-27T12:13:42Z</time>
      </trkpt>
      <trkpt lat="43.34158" lon="5.68061">
        <ele>688</ele>
        <time>2013-02-27T12:13:51Z</time>
      </trkpt>
      <trkpt lat="43.34163" lon="5.68052">
        <ele>687.5</ele>
        <time>2013-02-27T12:13:59Z</time>
      </trkpt>
      <trkpt lat="43.34164" lon="5.6805">
        <ele>687.5</ele>
        <time>2013-02-27T12:14:00Z</time>
      </trkpt>
      <trkpt lat="43.34173" lon="5.68032">
        <ele>686</ele>
        <time>2013-02-27T12:14:16Z</time>
      </trkpt>
      <trkpt lat="43.34178" lon="5.68023">
        <ele>686</ele>
        <time>2013-02-27T12:14:24Z</time>
      </trkpt>
      <trkpt lat="43.34183" lon="5.68013">
        <ele>686</ele>
        <time>2013-02-27T12:14:32Z</time>
      </trkpt>
      <trkpt lat="43.34188" lon="5.68004">
        <ele>684.9</ele>
        <time>2013-02-27T12:14:40Z</time>
      </trkpt>
      <trkpt lat="43.34194" lon="5.67997">
        <ele>683.4</ele>
        <time>2013-02-27T12:14:49Z</time>
      </trkpt>
      <trkpt lat="43.34201" lon="5.6799">
        <ele>682.5</ele>
        <time>2013-02-27T12:14:57Z</time>
      </trkpt>
      <trkpt lat="43.34207" lon="5.67982">
        <ele>681.5</ele>
        <time>2013-02-27T12:15:06Z</time>
      </trkpt>
      <trkpt lat="43.34208" lon="5.67981">
        <ele>681.5</ele>
        <time>2013-02-27T12:15:07Z</time>
      </trkpt>
      <trkpt lat="43.34221" lon="5.6797">
        <ele>680.2</ele>
        <time>2013-02-27T12:15:23Z</time>
      </trkpt>
      <trkpt lat="43.34229" lon="5.67964">
        <ele>679.5</ele>
        <time>2013-02-27T12:15:32Z</time>
      </trkpt>
      <trkpt lat="43.34235" lon="5.67958">
        <ele>679</ele>
        <time>2013-02-27T12:15:40Z</time>
      </trkpt>
      <trkpt lat="43.34242" lon="5.6795">
        <ele>677.9</ele>
        <time>2013-02-27T12:15:48Z</time>
      </trkpt>
      <trkpt lat="43.34247" lon="5.67941">
        <ele>676.9</ele>
        <time>2013-02-27T12:15:56Z</time>
      </trkpt>
      <trkpt lat="43.34252" lon="5.67931">
        <ele>676.2</ele>
        <time>2013-02-27T12:16:04Z</time>
      </trkpt>
      <trkpt lat="43.34256" lon="5.6792">
        <ele>675.5</ele>
        <time>2013-02-27T12:16:13Z</time>
      </trkpt>
      <trkpt lat="43.34256" lon="5.67919">
        <ele>675.4</ele>
        <time>2013-02-27T12:16:14Z</time>
      </trkpt>
      <trkpt lat="43.34245" lon="5.67906">
        <ele>674.2</ele>
        <time>2013-02-27T12:16:30Z</time>
      </trkpt>
      <trkpt lat="43.34236" lon="5.67906">
        <ele>673.4</ele>
        <time>2013-02-27T12:16:38Z</time>
      </trkpt>
      <trkpt lat="43.34228" lon="5.67908">
        <ele>673.9</ele>
        <time>2013-02-27T12:16:52Z</time>
      </trkpt>
      <trkpt lat="43.34221" lon="5.67914">
        <ele>672</ele>
        <time>2013-02-27T12:17:01Z</time>
      </trkpt>
      <trkpt lat="43.34214" lon="5.67921">
        <ele>670.7</ele>
        <time>2013-02-27T12:17:09Z</time>
      </trkpt>
      <trkpt lat="43.34206" lon="5.67925">
        <ele>670.5</ele>
        <time>2013-02-27T12:17:16Z</time>
      </trkpt>
      <trkpt lat="43.34205" lon="5.67925">
        <ele>670.5</ele>
        <time>2013-02-27T12:17:17Z</time>
      </trkpt>
      <trkpt lat="43.3419" lon="5.67932">
        <ele>671</ele>
        <time>2013-02-27T12:17:31Z</time>
      </trkpt>
      <trkpt lat="43.34182" lon="5.67936">
        <ele>670.2</ele>
        <time>2013-02-27T12:17:41Z</time>
      </trkpt>
      <trkpt lat="43.34179" lon="5.67925">
        <ele>668.9</ele>
        <time>2013-02-27T12:17:53Z</time>
      </trkpt>
      <trkpt lat="43.34186" lon="5.67918">
        <ele>666.7</ele>
        <time>2013-02-27T12:18:02Z</time>
      </trkpt>
      <trkpt lat="43.34192" lon="5.6791">
        <ele>665.2</ele>
        <time>2013-02-27T12:18:11Z</time>
      </trkpt>
      <trkpt lat="43.342" lon="5.67903">
        <ele>664</ele>
        <time>2013-02-27T12:18:21Z</time>
      </trkpt>
      <trkpt lat="43.342" lon="5.67902">
        <ele>664</ele>
        <time>2013-02-27T12:18:22Z</time>
      </trkpt>
      <trkpt lat="43.34214" lon="5.6789">
        <ele>662</ele>
        <time>2013-02-27T12:18:38Z</time>
      </trkpt>
      <trkpt lat="43.34221" lon="5.67882">
        <ele>661</ele>
        <time>2013-02-27T12:18:47Z</time>
      </trkpt>
      <trkpt lat="43.34226" lon="5.67872">
        <ele>659.2</ele>
        <time>2013-02-27T12:18:56Z</time>
      </trkpt>
      <trkpt lat="43.3423" lon="5.67863">
        <ele>659.4</ele>
        <time>2013-02-27T12:19:03Z</time>
      </trkpt>
      <trkpt lat="43.34237" lon="5.67856">
        <ele>659.5</ele>
        <time>2013-02-27T12:19:11Z</time>
      </trkpt>
      <trkpt lat="43.34245" lon="5.67853">
        <ele>659</ele>
        <time>2013-02-27T12:19:19Z</time>
      </trkpt>
      <trkpt lat="43.34253" lon="5.67852">
        <ele>658.5</ele>
        <time>2013-02-27T12:19:26Z</time>
      </trkpt>
      <trkpt lat="43.34254" lon="5.67851">
        <ele>658.4</ele>
        <time>2013-02-27T12:19:27Z</time>
      </trkpt>
      <trkpt lat="43.34268" lon="5.67846">
        <ele>656.9</ele>
        <time>2013-02-27T12:19:42Z</time>
      </trkpt>
      <trkpt lat="43.34276" lon="5.67841">
        <ele>656.2</ele>
        <time>2013-02-27T12:19:51Z</time>
      </trkpt>
      <trkpt lat="43.34284" lon="5.67836">
        <ele>655.5</ele>
        <time>2013-02-27T12:20:00Z</time>
      </trkpt>
      <trkpt lat="43.34291" lon="5.67829">
        <ele>654.5</ele>
        <time>2013-02-27T12:20:09Z</time>
      </trkpt>
      <trkpt lat="43.34297" lon="5.67822">
        <ele>653.9</ele>
        <time>2013-02-27T12:20:17Z</time>
      </trkpt>
      <trkpt lat="43.34303" lon="5.67814">
        <ele>653</ele>
        <time>2013-02-27T12:20:25Z</time>
      </trkpt>
      <trkpt lat="43.3431" lon="5.67807">
        <ele>651.5</ele>
        <time>2013-02-27T12:20:33Z</time>
      </trkpt>
      <trkpt lat="43.3431" lon="5.67806">
        <ele>651.4</ele>
        <time>2013-02-27T12:20:34Z</time>
      </trkpt>
      <trkpt lat="43.34324" lon="5.67796">
        <ele>648.9</ele>
        <time>2013-02-27T12:20:50Z</time>
      </trkpt>
      <trkpt lat="43.34332" lon="5.67791">
        <ele>647</ele>
        <time>2013-02-27T12:21:00Z</time>
      </trkpt>
      <trkpt lat="43.34341" lon="5.67789">
        <ele>646.2</ele>
        <time>2013-02-27T12:21:09Z</time>
      </trkpt>
      <trkpt lat="43.34349" lon="5.67787">
        <ele>645</ele>
        <time>2013-02-27T12:21:18Z</time>
      </trkpt>
      <trkpt lat="43.34357" lon="5.67785">
        <ele>643.7</ele>
        <time>2013-02-27T12:21:27Z</time>
      </trkpt>
      <trkpt lat="43.34366" lon="5.67784">
        <ele>642.2</ele>
        <time>2013-02-27T12:21:37Z</time>
      </trkpt>
      <trkpt lat="43.34367" lon="5.67783">
        <ele>642</ele>
        <time>2013-02-27T12:21:38Z</time>
      </trkpt>
      <trkpt lat="43.34382" lon="5.67782">
        <ele>640.2</ele>
        <time>2013-02-27T12:21:54Z</time>
      </trkpt>
      <trkpt lat="43.3439" lon="5.67788">
        <ele>640</ele>
        <time>2013-02-27T12:22:02Z</time>
      </trkpt>
      <trkpt lat="43.34398" lon="5.67793">
        <ele>638.2</ele>
        <time>2013-02-27T12:22:12Z</time>
      </trkpt>
      <trkpt lat="43.34403" lon="5.67783">
        <ele>637.5</ele>
        <time>2013-02-27T12:22:20Z</time>
      </trkpt>
      <trkpt lat="43.34403" lon="5.67772">
        <ele>637.7</ele>
        <time>2013-02-27T12:22:29Z</time>
      </trkpt>
      <trkpt lat="43.34397" lon="5.67764">
        <ele>636.9</ele>
        <time>2013-02-27T12:22:38Z</time>
      </trkpt>
      <trkpt lat="43.34396" lon="5.67763">
        <ele>637</ele>
        <time>2013-02-27T12:22:39Z</time>
      </trkpt>
      <trkpt lat="43.34384" lon="5.6775">
        <ele>636</ele>
        <time>2013-02-27T12:22:52Z</time>
      </trkpt>
      <trkpt lat="43.34376" lon="5.67744">
        <ele>635.7</ele>
        <time>2013-02-27T12:23:00Z</time>
      </trkpt>
      <trkpt lat="43.34367" lon="5.67743">
        <ele>635.5</ele>
        <time>2013-02-27T12:23:08Z</time>
      </trkpt>
      <trkpt lat="43.34359" lon="5.67742">
        <ele>635.5</ele>
        <time>2013-02-27T12:23:16Z</time>
      </trkpt>
      <trkpt lat="43.34351" lon="5.6774">
        <ele>635.5</ele>
        <time>2013-02-27T12:23:23Z</time>
      </trkpt>
      <trkpt lat="43.34343" lon="5.67735">
        <ele>633.7</ele>
        <time>2013-02-27T12:23:32Z</time>
      </trkpt>
      <trkpt lat="43.34347" lon="5.67725">
        <ele>630</ele>
        <time>2013-02-27T12:23:44Z</time>
      </trkpt>
      <trkpt lat="43.34348" lon="5.67725">
        <ele>629.7</ele>
        <time>2013-02-27T12:23:45Z</time>
      </trkpt>
      <trkpt lat="43.34364" lon="5.67726">
        <ele>627</ele>
        <time>2013-02-27T12:24:02Z</time>
      </trkpt>
      <trkpt lat="43.34372" lon="5.67724">
        <ele>626</ele>
        <time>2013-02-27T12:24:12Z</time>
      </trkpt>
      <trkpt lat="43.3438" lon="5.67722">
        <ele>624.5</ele>
        <time>2013-02-27T12:24:20Z</time>
      </trkpt>
      <trkpt lat="43.34389" lon="5.67721">
        <ele>623.4</ele>
        <time>2013-02-27T12:24:29Z</time>
      </trkpt>
      <trkpt lat="43.34397" lon="5.6772">
        <ele>622.7</ele>
        <time>2013-02-27T12:24:36Z</time>
      </trkpt>
      <trkpt lat="43.34406" lon="5.67721">
        <ele>621.7</ele>
        <time>2013-02-27T12:24:44Z</time>
      </trkpt>
      <trkpt lat="43.34415" lon="5.67721">
        <ele>621</ele>
        <time>2013-02-27T12:24:52Z</time>
      </trkpt>
      <trkpt lat="43.34416" lon="5.67721">
        <ele>620.9</ele>
        <time>2013-02-27T12:24:53Z</time>
      </trkpt>
      <trkpt lat="43.34432" lon="5.67721">
        <ele>620.2</ele>
        <time>2013-02-27T12:25:07Z</time>
      </trkpt>
      <trkpt lat="43.34441" lon="5.67721">
        <ele>619</ele>
        <time>2013-02-27T12:25:16Z</time>
      </trkpt>
      <trkpt lat="43.3445" lon="5.6772">
        <ele>617.5</ele>
        <time>2013-02-27T12:25:24Z</time>
      </trkpt>
      <trkpt lat="43.34458" lon="5.67719">
        <ele>616</ele>
        <time>2013-02-27T12:25:32Z</time>
      </trkpt>
      <trkpt lat="43.34467" lon="5.67718">
        <ele>614.9</ele>
        <time>2013-02-27T12:25:40Z</time>
      </trkpt>
      <trkpt lat="43.34474" lon="5.67717">
        <ele>613.5</ele>
        <time>2013-02-27T12:25:48Z</time>
      </trkpt>
      <trkpt lat="43.34483" lon="5.67716">
        <ele>612</ele>
        <time>2013-02-27T12:25:56Z</time>
      </trkpt>
      <trkpt lat="43.34483" lon="5.67716">
        <ele>611.9</ele>
        <time>2013-02-27T12:25:57Z</time>
      </trkpt>
      <trkpt lat="43.34499" lon="5.67714">
        <ele>608.7</ele>
        <time>2013-02-27T12:26:13Z</time>
      </trkpt>
      <trkpt lat="43.34507" lon="5.67712">
        <ele>607</ele>
        <time>2013-02-27T12:26:21Z</time>
      </trkpt>
      <trkpt lat="43.34515" lon="5.67709">
        <ele>606.7</ele>
        <time>2013-02-27T12:26:26Z</time>
      </trkpt>
      <trkpt lat="43.34524" lon="5.67705">
        <ele>606.5</ele>
        <time>2013-02-27T12:26:32Z</time>
      </trkpt>
      <trkpt lat="43.34532" lon="5.67701">
        <ele>606</ele>
        <time>2013-02-27T12:26:39Z</time>
      </trkpt>
      <trkpt lat="43.3454" lon="5.67697">
        <ele>604.7</ele>
        <time>2013-02-27T12:26:47Z</time>
      </trkpt>
      <trkpt lat="43.34549" lon="5.67694">
        <ele>604.2</ele>
        <time>2013-02-27T12:26:54Z</time>
      </trkpt>
      <trkpt lat="43.34556" lon="5.6769">
        <ele>603.2</ele>
        <time>2013-02-27T12:27:02Z</time>
      </trkpt>
      <trkpt lat="43.34557" lon="5.6769">
        <ele>603.2</ele>
        <time>2013-02-27T12:27:03Z</time>
      </trkpt>
      <trkpt lat="43.34573" lon="5.67682">
        <ele>602</ele>
        <time>2013-02-27T12:27:18Z</time>
      </trkpt>
      <trkpt lat="43.34581" lon="5.67677">
        <ele>601.5</ele>
        <time>2013-02-27T12:27:26Z</time>
      </trkpt>
      <trkpt lat="43.34589" lon="5.67672">
        <ele>601.7</ele>
        <time>2013-02-27T12:27:38Z</time>
      </trkpt>
      <trkpt lat="43.34598" lon="5.67669">
        <ele>601.7</ele>
        <time>2013-02-27T12:27:57Z</time>
      </trkpt>
      <trkpt lat="43.34606" lon="5.67665">
        <ele>601.2</ele>
        <time>2013-02-27T12:28:05Z</time>
      </trkpt>
      <trkpt lat="43.34607" lon="5.67665">
        <ele>601.2</ele>
        <time>2013-02-27T12:28:06Z</time>
      </trkpt>
      <trkpt lat="43.34622" lon="5.67663">
        <ele>600</ele>
        <time>2013-02-27T12:28:21Z</time>
      </trkpt>
      <trkpt lat="43.3463" lon="5.67662">
        <ele>599.2</ele>
        <time>2013-02-27T12:28:29Z</time>
      </trkpt>
      <trkpt lat="43.34639" lon="5.67664">
        <ele>598.2</ele>
        <time>2013-02-27T12:28:38Z</time>
      </trkpt>
      <trkpt lat="43.34647" lon="5.67666">
        <ele>596.4</ele>
        <time>2013-02-27T12:28:47Z</time>
      </trkpt>
      <trkpt lat="43.34655" lon="5.67668">
        <ele>594.7</ele>
        <time>2013-02-27T12:28:55Z</time>
      </trkpt>
      <trkpt lat="43.34664" lon="5.6767">
        <ele>594.2</ele>
        <time>2013-02-27T12:29:03Z</time>
      </trkpt>
      <trkpt lat="43.34672" lon="5.67671">
        <ele>594</ele>
        <time>2013-02-27T12:29:10Z</time>
      </trkpt>
      <trkpt lat="43.34673" lon="5.67671">
        <ele>593.9</ele>
        <time>2013-02-27T12:29:11Z</time>
      </trkpt>
      <trkpt lat="43.34688" lon="5.67674">
        <ele>593.7</ele>
        <time>2013-02-27T12:29:24Z</time>
      </trkpt>
      <trkpt lat="43.34697" lon="5.67676">
        <ele>592.7</ele>
        <time>2013-02-27T12:29:34Z</time>
      </trkpt>
      <trkpt lat="43.34705" lon="5.67678">
        <ele>592.2</ele>
        <time>2013-02-27T12:29:42Z</time>
      </trkpt>
      <trkpt lat="43.34713" lon="5.6768">
        <ele>591.9</ele>
        <time>2013-02-27T12:29:49Z</time>
      </trkpt>
      <trkpt lat="43.34722" lon="5.67681">
        <ele>591.2</ele>
        <time>2013-02-27T12:29:56Z</time>
      </trkpt>
      <trkpt lat="43.34731" lon="5.67682">
        <ele>590.2</ele>
        <time>2013-02-27T12:30:04Z</time>
      </trkpt>
      <trkpt lat="43.34739" lon="5.67684">
        <ele>589.2</ele>
        <time>2013-02-27T12:30:12Z</time>
      </trkpt>
      <trkpt lat="43.3474" lon="5.67684">
        <ele>589.2</ele>
        <time>2013-02-27T12:30:13Z</time>
      </trkpt>
      <trkpt lat="43.34756" lon="5.67685">
        <ele>589.4</ele>
        <time>2013-02-27T12:30:26Z</time>
      </trkpt>
      <trkpt lat="43.34764" lon="5.67685">
        <ele>588.5</ele>
        <time>2013-02-27T12:30:32Z</time>
      </trkpt>
      <trkpt lat="43.34772" lon="5.67684">
        <ele>588</ele>
        <time>2013-02-27T12:30:39Z</time>
      </trkpt>
      <trkpt lat="43.3478" lon="5.67684">
        <ele>588.2</ele>
        <time>2013-02-27T12:30:46Z</time>
      </trkpt>
      <trkpt lat="43.34789" lon="5.67683">
        <ele>588.5</ele>
        <time>2013-02-27T12:30:53Z</time>
      </trkpt>
      <trkpt lat="43.34797" lon="5.67683">
        <ele>588.2</ele>
        <time>2013-02-27T12:31:00Z</time>
      </trkpt>
      <trkpt lat="43.34805" lon="5.67682">
        <ele>587.7</ele>
        <time>2013-02-27T12:31:08Z</time>
      </trkpt>
      <trkpt lat="43.34813" lon="5.67681">
        <ele>587.5</ele>
        <time>2013-02-27T12:31:15Z</time>
      </trkpt>
      <trkpt lat="43.34815" lon="5.6768">
        <ele>587.2</ele>
        <time>2013-02-27T12:31:16Z</time>
      </trkpt>
      <trkpt lat="43.34829" lon="5.67674">
        <ele>587.7</ele>
        <time>2013-02-27T12:31:28Z</time>
      </trkpt>
      <trkpt lat="43.34837" lon="5.67671">
        <ele>588</ele>
        <time>2013-02-27T12:31:35Z</time>
      </trkpt>
      <trkpt lat="43.34845" lon="5.67669">
        <ele>588</ele>
        <time>2013-02-27T12:31:41Z</time>
      </trkpt>
      <trkpt lat="43.34853" lon="5.67667">
        <ele>588</ele>
        <time>2013-02-27T12:31:48Z</time>
      </trkpt>
      <trkpt lat="43.34862" lon="5.67667">
        <ele>588.2</ele>
        <time>2013-02-27T12:31:55Z</time>
      </trkpt>
      <trkpt lat="43.34869" lon="5.67664">
        <ele>587.7</ele>
        <time>2013-02-27T12:32:02Z</time>
      </trkpt>
      <trkpt lat="43.34876" lon="5.67657">
        <ele>587</ele>
        <time>2013-02-27T12:32:09Z</time>
      </trkpt>
      <trkpt lat="43.34882" lon="5.67649">
        <ele>586</ele>
        <time>2013-02-27T12:32:16Z</time>
      </trkpt>
      <trkpt lat="43.34883" lon="5.67647">
        <ele>585.7</ele>
        <time>2013-02-27T12:32:17Z</time>
      </trkpt>
      <trkpt lat="43.34892" lon="5.67631">
        <ele>583.5</ele>
        <time>2013-02-27T12:32:30Z</time>
      </trkpt>
      <trkpt lat="43.34897" lon="5.67621">
        <ele>582.5</ele>
        <time>2013-02-27T12:32:37Z</time>
      </trkpt>
      <trkpt lat="43.34899" lon="5.67611">
        <ele>581.9</ele>
        <time>2013-02-27T12:32:44Z</time>
      </trkpt>
      <trkpt lat="43.34898" lon="5.676">
        <ele>580.7</ele>
        <time>2013-02-27T12:32:51Z</time>
      </trkpt>
      <trkpt lat="43.34894" lon="5.67589">
        <ele>580</ele>
        <time>2013-02-27T12:32:59Z</time>
      </trkpt>
      <trkpt lat="43.34889" lon="5.6758">
        <ele>579</ele>
        <time>2013-02-27T12:33:06Z</time>
      </trkpt>
      <trkpt lat="43.34883" lon="5.67571">
        <ele>578.2</ele>
        <time>2013-02-27T12:33:13Z</time>
      </trkpt>
      <trkpt lat="43.34877" lon="5.67562">
        <ele>577.4</ele>
        <time>2013-02-27T12:33:20Z</time>
      </trkpt>
      <trkpt lat="43.34877" lon="5.67561">
        <ele>577.2</ele>
        <time>2013-02-27T12:33:21Z</time>
      </trkpt>
      <trkpt lat="43.34865" lon="5.67547">
        <ele>575.2</ele>
        <time>2013-02-27T12:33:34Z</time>
      </trkpt>
      <trkpt lat="43.34859" lon="5.67538">
        <ele>574.5</ele>
        <time>2013-02-27T12:33:41Z</time>
      </trkpt>
      <trkpt lat="43.34852" lon="5.67531">
        <ele>574.4</ele>
        <time>2013-02-27T12:33:48Z</time>
      </trkpt>
      <trkpt lat="43.34846" lon="5.67524">
        <ele>573.7</ele>
        <time>2013-02-27T12:33:55Z</time>
      </trkpt>
      <trkpt lat="43.34839" lon="5.67517">
        <ele>573.7</ele>
        <time>2013-02-27T12:34:03Z</time>
      </trkpt>
      <trkpt lat="43.34832" lon="5.6751">
        <ele>574.5</ele>
        <time>2013-02-27T12:34:12Z</time>
      </trkpt>
      <trkpt lat="43.34825" lon="5.67504">
        <ele>573.5</ele>
        <time>2013-02-27T12:34:19Z</time>
      </trkpt>
      <trkpt lat="43.34817" lon="5.675">
        <ele>573</ele>
        <time>2013-02-27T12:34:26Z</time>
      </trkpt>
      <trkpt lat="43.34816" lon="5.675">
        <ele>573</ele>
        <time>2013-02-27T12:34:27Z</time>
      </trkpt>
      <trkpt lat="43.34801" lon="5.675">
        <ele>570.7</ele>
        <time>2013-02-27T12:34:41Z</time>
      </trkpt>
      <trkpt lat="43.34793" lon="5.67502">
        <ele>569.2</ele>
        <time>2013-02-27T12:34:48Z</time>
      </trkpt>
      <trkpt lat="43.34785" lon="5.67502">
        <ele>568.5</ele>
        <time>2013-02-27T12:34:55Z</time>
      </trkpt>
      <trkpt lat="43.34776" lon="5.67504">
        <ele>568.4</ele>
        <time>2013-02-27T12:35:03Z</time>
      </trkpt>
      <trkpt lat="43.34768" lon="5.67506">
        <ele>568.2</ele>
        <time>2013-02-27T12:35:10Z</time>
      </trkpt>
      <trkpt lat="43.34759" lon="5.67508">
        <ele>567.7</ele>
        <time>2013-02-27T12:35:18Z</time>
      </trkpt>
      <trkpt lat="43.34751" lon="5.6751">
        <ele>567.2</ele>
        <time>2013-02-27T12:35:25Z</time>
      </trkpt>
      <trkpt lat="43.34743" lon="5.67512">
        <ele>566.5</ele>
        <time>2013-02-27T12:35:32Z</time>
      </trkpt>
      <trkpt lat="43.34742" lon="5.67513">
        <ele>566.2</ele>
        <time>2013-02-27T12:35:33Z</time>
      </trkpt>
      <trkpt lat="43.34727" lon="5.67518">
        <ele>563.7</ele>
        <time>2013-02-27T12:35:47Z</time>
      </trkpt>
      <trkpt lat="43.34719" lon="5.67522">
        <ele>563.9</ele>
        <time>2013-02-27T12:35:54Z</time>
      </trkpt>
      <trkpt lat="43.3471" lon="5.67523">
        <ele>563.2</ele>
        <time>2013-02-27T12:36:04Z</time>
      </trkpt>
      <trkpt lat="43.34716" lon="5.67515">
        <ele>561.5</ele>
        <time>2013-02-27T12:36:19Z</time>
      </trkpt>
      <trkpt lat="43.34724" lon="5.6751">
        <ele>559.7</ele>
        <time>2013-02-27T12:36:30Z</time>
      </trkpt>
      <trkpt lat="43.34731" lon="5.67504">
        <ele>558.4</ele>
        <time>2013-02-27T12:36:39Z</time>
      </trkpt>
      <trkpt lat="43.34732" lon="5.67503">
        <ele>558.2</ele>
        <time>2013-02-27T12:36:40Z</time>
      </trkpt>
      <trkpt lat="43.34746" lon="5.67493">
        <ele>555.4</ele>
        <time>2013-02-27T12:36:55Z</time>
      </trkpt>
      <trkpt lat="43.34754" lon="5.67488">
        <ele>555.7</ele>
        <time>2013-02-27T12:37:02Z</time>
      </trkpt>
      <trkpt lat="43.34761" lon="5.67482">
        <ele>555</ele>
        <time>2013-02-27T12:37:10Z</time>
      </trkpt>
      <trkpt lat="43.34768" lon="5.67477">
        <ele>554.4</ele>
        <time>2013-02-27T12:37:17Z</time>
      </trkpt>
      <trkpt lat="43.34775" lon="5.6747">
        <ele>553.4</ele>
        <time>2013-02-27T12:37:25Z</time>
      </trkpt>
      <trkpt lat="43.34782" lon="5.67463">
        <ele>553</ele>
        <time>2013-02-27T12:37:32Z</time>
      </trkpt>
      <trkpt lat="43.34788" lon="5.67455">
        <ele>553.7</ele>
        <time>2013-02-27T12:37:39Z</time>
      </trkpt>
      <trkpt lat="43.34794" lon="5.67447">
        <ele>554.2</ele>
        <time>2013-02-27T12:37:46Z</time>
      </trkpt>
      <trkpt lat="43.34795" lon="5.67446">
        <ele>554.2</ele>
        <time>2013-02-27T12:37:47Z</time>
      </trkpt>
      <trkpt lat="43.34807" lon="5.67431">
        <ele>554.4</ele>
        <time>2013-02-27T12:38:00Z</time>
      </trkpt>
      <trkpt lat="43.34814" lon="5.67425">
        <ele>553.5</ele>
        <time>2013-02-27T12:38:08Z</time>
      </trkpt>
      <trkpt lat="43.34822" lon="5.67422">
        <ele>552.2</ele>
        <time>2013-02-27T12:38:16Z</time>
      </trkpt>
      <trkpt lat="43.3483" lon="5.67422">
        <ele>550.5</ele>
        <time>2013-02-27T12:38:25Z</time>
      </trkpt>
      <trkpt lat="43.34839" lon="5.67425">
        <ele>549.9</ele>
        <time>2013-02-27T12:38:33Z</time>
      </trkpt>
      <trkpt lat="43.34846" lon="5.67428">
        <ele>549.2</ele>
        <time>2013-02-27T12:38:41Z</time>
      </trkpt>
      <trkpt lat="43.34855" lon="5.67431">
        <ele>549.2</ele>
        <time>2013-02-27T12:38:48Z</time>
      </trkpt>
      <trkpt lat="43.34855" lon="5.67431">
        <ele>549</ele>
        <time>2013-02-27T12:38:49Z</time>
      </trkpt>
      <trkpt lat="43.34871" lon="5.67436">
        <ele>546.9</ele>
        <time>2013-02-27T12:39:04Z</time>
      </trkpt>
      <trkpt lat="43.34879" lon="5.6744">
        <ele>545.7</ele>
        <time>2013-02-27T12:39:12Z</time>
      </trkpt>
      <trkpt lat="43.34888" lon="5.67443">
        <ele>544.5</ele>
        <time>2013-02-27T12:39:20Z</time>
      </trkpt>
      <trkpt lat="43.34896" lon="5.67447">
        <ele>543.5</ele>
        <time>2013-02-27T12:39:28Z</time>
      </trkpt>
      <trkpt lat="43.34904" lon="5.6745">
        <ele>542.5</ele>
        <time>2013-02-27T12:39:36Z</time>
      </trkpt>
      <trkpt lat="43.34913" lon="5.6745">
        <ele>540.5</ele>
        <time>2013-02-27T12:39:44Z</time>
      </trkpt>
      <trkpt lat="43.34921" lon="5.67451">
        <ele>539.7</ele>
        <time>2013-02-27T12:39:51Z</time>
      </trkpt>
      <trkpt lat="43.34922" lon="5.67451">
        <ele>539.5</ele>
        <time>2013-02-27T12:39:52Z</time>
      </trkpt>
      <trkpt lat="43.34937" lon="5.67453">
        <ele>540</ele>
        <time>2013-02-27T12:40:04Z</time>
      </trkpt>
      <trkpt lat="43.34944" lon="5.67454">
        <ele>539.5</ele>
        <time>2013-02-27T12:40:11Z</time>
      </trkpt>
      <trkpt lat="43.34952" lon="5.67454">
        <ele>537.7</ele>
        <time>2013-02-27T12:40:19Z</time>
      </trkpt>
      <trkpt lat="43.34961" lon="5.67451">
        <ele>535.9</ele>
        <time>2013-02-27T12:40:27Z</time>
      </trkpt>
      <trkpt lat="43.34969" lon="5.67448">
        <ele>533</ele>
        <time>2013-02-27T12:40:36Z</time>
      </trkpt>
      <trkpt lat="43.34977" lon="5.67445">
        <ele>532</ele>
        <time>2013-02-27T12:40:43Z</time>
      </trkpt>
      <trkpt lat="43.34985" lon="5.6744">
        <ele>530</ele>
        <time>2013-02-27T12:40:52Z</time>
      </trkpt>
      <trkpt lat="43.34993" lon="5.67435">
        <ele>527.7</ele>
        <time>2013-02-27T12:41:00Z</time>
      </trkpt>
      <trkpt lat="43.34994" lon="5.67434">
        <ele>527.2</ele>
        <time>2013-02-27T12:41:01Z</time>
      </trkpt>
      <trkpt lat="43.35009" lon="5.67428">
        <ele>524.7</ele>
        <time>2013-02-27T12:41:14Z</time>
      </trkpt>
      <trkpt lat="43.35017" lon="5.67425">
        <ele>524.2</ele>
        <time>2013-02-27T12:41:20Z</time>
      </trkpt>
      <trkpt lat="43.35025" lon="5.67424">
        <ele>524.5</ele>
        <time>2013-02-27T12:41:26Z</time>
      </trkpt>
      <trkpt lat="43.35033" lon="5.67422">
        <ele>524.2</ele>
        <time>2013-02-27T12:41:32Z</time>
      </trkpt>
      <trkpt lat="43.35042" lon="5.67419">
        <ele>523.9</ele>
        <time>2013-02-27T12:41:39Z</time>
      </trkpt>
      <trkpt lat="43.3505" lon="5.67416">
        <ele>523.9</ele>
        <time>2013-02-27T12:41:45Z</time>
      </trkpt>
      <trkpt lat="43.35058" lon="5.67414">
        <ele>524.7</ele>
        <time>2013-02-27T12:41:51Z</time>
      </trkpt>
      <trkpt lat="43.35066" lon="5.67412">
        <ele>524.7</ele>
        <time>2013-02-27T12:41:57Z</time>
      </trkpt>
      <trkpt lat="43.35074" lon="5.67409">
        <ele>524.5</ele>
        <time>2013-02-27T12:42:03Z</time>
      </trkpt>
      <trkpt lat="43.35075" lon="5.67409">
        <ele>524.4</ele>
        <time>2013-02-27T12:42:04Z</time>
      </trkpt>
      <trkpt lat="43.35092" lon="5.67408">
        <ele>522.4</ele>
        <time>2013-02-27T12:42:18Z</time>
      </trkpt>
      <trkpt lat="43.351" lon="5.67408">
        <ele>518.5</ele>
        <time>2013-02-27T12:42:29Z</time>
      </trkpt>
      <trkpt lat="43.35108" lon="5.67409">
        <ele>517</ele>
        <time>2013-02-27T12:42:37Z</time>
      </trkpt>
      <trkpt lat="43.35117" lon="5.67408">
        <ele>517.4</ele>
        <time>2013-02-27T12:42:43Z</time>
      </trkpt>
      <trkpt lat="43.35125" lon="5.6741">
        <ele>515.5</ele>
        <time>2013-02-27T12:42:51Z</time>
      </trkpt>
      <trkpt lat="43.35133" lon="5.67411">
        <ele>514.4</ele>
        <time>2013-02-27T12:42:58Z</time>
      </trkpt>
      <trkpt lat="43.35141" lon="5.67414">
        <ele>513.9</ele>
        <time>2013-02-27T12:43:04Z</time>
      </trkpt>
      <trkpt lat="43.35149" lon="5.67417">
        <ele>513.5</ele>
        <time>2013-02-27T12:43:10Z</time>
      </trkpt>
      <trkpt lat="43.3515" lon="5.67418">
        <ele>513.5</ele>
        <time>2013-02-27T12:43:11Z</time>
      </trkpt>
      <trkpt lat="43.35164" lon="5.67427">
        <ele>510.2</ele>
        <time>2013-02-27T12:43:25Z</time>
      </trkpt>
      <trkpt lat="43.35171" lon="5.67431">
        <ele>509.7</ele>
        <time>2013-02-27T12:43:32Z</time>
      </trkpt>
      <trkpt lat="43.35179" lon="5.67434">
        <ele>509.2</ele>
        <time>2013-02-27T12:43:38Z</time>
      </trkpt>
      <trkpt lat="43.35187" lon="5.67437">
        <ele>509.2</ele>
        <time>2013-02-27T12:43:44Z</time>
      </trkpt>
      <trkpt lat="43.35182" lon="5.67446">
        <ele>509.3</ele>
        <time>2013-02-27T12:45:03Z</time>
      </trkpt>
      <trkpt lat="43.35181" lon="5.67447">
        <ele>509.8</ele>
        <time>2013-02-27T12:45:04Z</time>
      </trkpt>
      <trkpt lat="43.35198" lon="5.67437">
        <ele>509.7</ele>
        <time>2013-02-27T12:45:59Z</time>
      </trkpt>
      <trkpt lat="43.35205" lon="5.67444">
        <ele>510.1</ele>
        <time>2013-02-27T12:51:05Z</time>
      </trkpt>
      <trkpt lat="43.35205" lon="5.67444">
        <ele>510</ele>
        <time>2013-02-27T12:51:06Z</time>
      </trkpt>
      <trkpt lat="43.35219" lon="5.67455">
        <ele>507.3</ele>
        <time>2013-02-27T12:51:23Z</time>
      </trkpt>
      <trkpt lat="43.35227" lon="5.67459">
        <ele>506.5</ele>
        <time>2013-02-27T12:51:31Z</time>
      </trkpt>
      <trkpt lat="43.35235" lon="5.67458">
        <ele>505.5</ele>
        <time>2013-02-27T12:51:39Z</time>
      </trkpt>
      <trkpt lat="43.35242" lon="5.67453">
        <ele>504.2</ele>
        <time>2013-02-27T12:51:46Z</time>
      </trkpt>
      <trkpt lat="43.3525" lon="5.67449">
        <ele>504.2</ele>
        <time>2013-02-27T12:51:52Z</time>
      </trkpt>
      <trkpt lat="43.35258" lon="5.67445">
        <ele>504.7</ele>
        <time>2013-02-27T12:51:58Z</time>
      </trkpt>
      <trkpt lat="43.35266" lon="5.67443">
        <ele>503.2</ele>
        <time>2013-02-27T12:52:06Z</time>
      </trkpt>
      <trkpt lat="43.35267" lon="5.67442">
        <ele>503</ele>
        <time>2013-02-27T12:52:07Z</time>
      </trkpt>
      <trkpt lat="43.35283" lon="5.6744">
        <ele>500.7</ele>
        <time>2013-02-27T12:52:22Z</time>
      </trkpt>
      <trkpt lat="43.3529" lon="5.67439">
        <ele>500.7</ele>
        <time>2013-02-27T12:52:28Z</time>
      </trkpt>
      <trkpt lat="43.35299" lon="5.67437">
        <ele>499.7</ele>
        <time>2013-02-27T12:52:35Z</time>
      </trkpt>
      <trkpt lat="43.35307" lon="5.67434">
        <ele>499</ele>
        <time>2013-02-27T12:52:42Z</time>
      </trkpt>
      <trkpt lat="43.35315" lon="5.67428">
        <ele>499.6</ele>
        <time>2013-02-27T12:52:48Z</time>
      </trkpt>
      <trkpt lat="43.3532" lon="5.67419">
        <ele>499.7</ele>
        <time>2013-02-27T12:52:54Z</time>
      </trkpt>
      <trkpt lat="43.35324" lon="5.67409">
        <ele>499.3</ele>
        <time>2013-02-27T12:53:00Z</time>
      </trkpt>
      <trkpt lat="43.35326" lon="5.67399">
        <ele>499.2</ele>
        <time>2013-02-27T12:53:06Z</time>
      </trkpt>
      <trkpt lat="43.35329" lon="5.67387">
        <ele>498.3</ele>
        <time>2013-02-27T12:53:13Z</time>
      </trkpt>
      <trkpt lat="43.35329" lon="5.67386">
        <ele>498.2</ele>
        <time>2013-02-27T12:53:14Z</time>
      </trkpt>
      <trkpt lat="43.3533" lon="5.67364">
        <ele>497.5</ele>
        <time>2013-02-27T12:53:28Z</time>
      </trkpt>
      <trkpt lat="43.35327" lon="5.67353">
        <ele>497.2</ele>
        <time>2013-02-27T12:53:35Z</time>
      </trkpt>
      <trkpt lat="43.35324" lon="5.67342">
        <ele>496.2</ele>
        <time>2013-02-27T12:53:42Z</time>
      </trkpt>
      <trkpt lat="43.35325" lon="5.6733">
        <ele>494.5</ele>
        <time>2013-02-27T12:53:52Z</time>
      </trkpt>
      <trkpt lat="43.35333" lon="5.67332">
        <ele>492.2</ele>
        <time>2013-02-27T12:54:02Z</time>
      </trkpt>
      <trkpt lat="43.35341" lon="5.67334">
        <ele>492.3</ele>
        <time>2013-02-27T12:54:15Z</time>
      </trkpt>
      <trkpt lat="43.35342" lon="5.67334">
        <ele>492.2</ele>
        <time>2013-02-27T12:54:16Z</time>
      </trkpt>
      <trkpt lat="43.35357" lon="5.67335">
        <ele>489.5</ele>
        <time>2013-02-27T12:54:31Z</time>
      </trkpt>
      <trkpt lat="43.35365" lon="5.67336">
        <ele>488.1</ele>
        <time>2013-02-27T12:54:39Z</time>
      </trkpt>
      <trkpt lat="43.35373" lon="5.67341">
        <ele>487.3</ele>
        <time>2013-02-27T12:54:46Z</time>
      </trkpt>
      <trkpt lat="43.3538" lon="5.67347">
        <ele>487.1</ele>
        <time>2013-02-27T12:54:54Z</time>
      </trkpt>
      <trkpt lat="43.35388" lon="5.67352">
        <ele>485.8</ele>
        <time>2013-02-27T12:55:01Z</time>
      </trkpt>
      <trkpt lat="43.35394" lon="5.67358">
        <ele>484.2</ele>
        <time>2013-02-27T12:55:08Z</time>
      </trkpt>
      <trkpt lat="43.35402" lon="5.67363">
        <ele>485.3</ele>
        <time>2013-02-27T12:55:14Z</time>
      </trkpt>
      <trkpt lat="43.35409" lon="5.6737">
        <ele>485.1</ele>
        <time>2013-02-27T12:55:21Z</time>
      </trkpt>
      <trkpt lat="43.3541" lon="5.67371">
        <ele>485.2</ele>
        <time>2013-02-27T12:55:22Z</time>
      </trkpt>
      <trkpt lat="43.35422" lon="5.67384">
        <ele>484</ele>
        <time>2013-02-27T12:55:35Z</time>
      </trkpt>
      <trkpt lat="43.35427" lon="5.67394">
        <ele>482.5</ele>
        <time>2013-02-27T12:55:43Z</time>
      </trkpt>
      <trkpt lat="43.35431" lon="5.67404">
        <ele>480.5</ele>
        <time>2013-02-27T12:55:51Z</time>
      </trkpt>
      <trkpt lat="43.35439" lon="5.67408">
        <ele>481</ele>
        <time>2013-02-27T12:55:57Z</time>
      </trkpt>
      <trkpt lat="43.35448" lon="5.6741">
        <ele>478.2</ele>
        <time>2013-02-27T12:56:06Z</time>
      </trkpt>
      <trkpt lat="43.35456" lon="5.67408">
        <ele>477</ele>
        <time>2013-02-27T12:56:13Z</time>
      </trkpt>
      <trkpt lat="43.35464" lon="5.67406">
        <ele>475.1</ele>
        <time>2013-02-27T12:56:20Z</time>
      </trkpt>
      <trkpt lat="43.35472" lon="5.67404">
        <ele>475.2</ele>
        <time>2013-02-27T12:56:26Z</time>
      </trkpt>
      <trkpt lat="43.35474" lon="5.67404">
        <ele>475</ele>
        <time>2013-02-27T12:56:27Z</time>
      </trkpt>
      <trkpt lat="43.35489" lon="5.67399">
        <ele>475.7</ele>
        <time>2013-02-27T12:56:37Z</time>
      </trkpt>
      <trkpt lat="43.35497" lon="5.67396">
        <ele>476</ele>
        <time>2013-02-27T12:56:43Z</time>
      </trkpt>
      <trkpt lat="43.35505" lon="5.67392">
        <ele>476.5</ele>
        <time>2013-02-27T12:56:50Z</time>
      </trkpt>
      <trkpt lat="43.35512" lon="5.67387">
        <ele>476</ele>
        <time>2013-02-27T12:56:57Z</time>
      </trkpt>
      <trkpt lat="43.3552" lon="5.67383">
        <ele>476.1</ele>
        <time>2013-02-27T12:57:04Z</time>
      </trkpt>
      <trkpt lat="43.35528" lon="5.67377">
        <ele>475.7</ele>
        <time>2013-02-27T12:57:16Z</time>
      </trkpt>
      <trkpt lat="43.35536" lon="5.67378">
        <ele>474.1</ele>
        <time>2013-02-27T12:57:28Z</time>
      </trkpt>
      <trkpt lat="43.35537" lon="5.67379">
        <ele>474</ele>
        <time>2013-02-27T12:57:29Z</time>
      </trkpt>
      <trkpt lat="43.35537" lon="5.67378">
        <ele>475.6</ele>
        <time>2013-02-27T12:58:46Z</time>
      </trkpt>
      <trkpt lat="43.35537" lon="5.67376">
        <ele>475.3</ele>
        <time>2013-02-27T12:58:47Z</time>
      </trkpt>
      <trkpt lat="43.35529" lon="5.67358">
        <ele>472.7</ele>
        <time>2013-02-27T12:59:00Z</time>
      </trkpt>
      <trkpt lat="43.35525" lon="5.67348">
        <ele>471.1</ele>
        <time>2013-02-27T12:59:07Z</time>
      </trkpt>
      <trkpt lat="43.35521" lon="5.67338">
        <ele>469.7</ele>
        <time>2013-02-27T12:59:14Z</time>
      </trkpt>
      <trkpt lat="43.35516" lon="5.67329">
        <ele>468.2</ele>
        <time>2013-02-27T12:59:21Z</time>
      </trkpt>
      <trkpt lat="43.35511" lon="5.6732">
        <ele>467</ele>
        <time>2013-02-27T12:59:27Z</time>
      </trkpt>
      <trkpt lat="43.35508" lon="5.6731">
        <ele>465.7</ele>
        <time>2013-02-27T12:59:33Z</time>
      </trkpt>
      <trkpt lat="43.35504" lon="5.67299">
        <ele>463.7</ele>
        <time>2013-02-27T12:59:40Z</time>
      </trkpt>
      <trkpt lat="43.35502" lon="5.67289">
        <ele>462.8</ele>
        <time>2013-02-27T12:59:46Z</time>
      </trkpt>
      <trkpt lat="43.35499" lon="5.67279">
        <ele>465.2</ele>
        <time>2013-02-27T12:59:50Z</time>
      </trkpt>
      <trkpt lat="43.35499" lon="5.67277">
        <ele>465.2</ele>
        <time>2013-02-27T12:59:51Z</time>
      </trkpt>
      <trkpt lat="43.35495" lon="5.67256">
        <ele>465.3</ele>
        <time>2013-02-27T13:00:02Z</time>
      </trkpt>
      <trkpt lat="43.35493" lon="5.67246">
        <ele>466.5</ele>
        <time>2013-02-27T13:00:07Z</time>
      </trkpt>
      <trkpt lat="43.35491" lon="5.67234">
        <ele>468.6</ele>
        <time>2013-02-27T13:00:12Z</time>
      </trkpt>
      <trkpt lat="43.35491" lon="5.67223">
        <ele>468.8</ele>
        <time>2013-02-27T13:00:18Z</time>
      </trkpt>
      <trkpt lat="43.35491" lon="5.67211">
        <ele>469.1</ele>
        <time>2013-02-27T13:00:24Z</time>
      </trkpt>
      <trkpt lat="43.35493" lon="5.672">
        <ele>468.7</ele>
        <time>2013-02-27T13:00:31Z</time>
      </trkpt>
      <trkpt lat="43.35494" lon="5.67189">
        <ele>466.2</ele>
        <time>2013-02-27T13:00:39Z</time>
      </trkpt>
      <trkpt lat="43.35494" lon="5.67178">
        <ele>465.8</ele>
        <time>2013-02-27T13:00:46Z</time>
      </trkpt>
      <trkpt lat="43.3549" lon="5.67168">
        <ele>464.6</ele>
        <time>2013-02-27T13:00:54Z</time>
      </trkpt>
      <trkpt lat="43.35489" lon="5.67167">
        <ele>464.3</ele>
        <time>2013-02-27T13:00:55Z</time>
      </trkpt>
      <trkpt lat="43.35478" lon="5.67153">
        <ele>462.7</ele>
        <time>2013-02-27T13:01:08Z</time>
      </trkpt>
      <trkpt lat="43.35471" lon="5.67148">
        <ele>462.2</ele>
        <time>2013-02-27T13:01:15Z</time>
      </trkpt>
      <trkpt lat="43.35463" lon="5.67145">
        <ele>459.7</ele>
        <time>2013-02-27T13:01:24Z</time>
      </trkpt>
      <trkpt lat="43.35455" lon="5.67144">
        <ele>458.1</ele>
        <time>2013-02-27T13:01:33Z</time>
      </trkpt>
      <trkpt lat="43.35447" lon="5.67146">
        <ele>454.6</ele>
        <time>2013-02-27T13:01:42Z</time>
      </trkpt>
      <trkpt lat="43.35439" lon="5.67144">
        <ele>457.6</ele>
        <time>2013-02-27T13:01:48Z</time>
      </trkpt>
      <trkpt lat="43.3543" lon="5.67143">
        <ele>459.7</ele>
        <time>2013-02-27T13:01:55Z</time>
      </trkpt>
      <trkpt lat="43.35429" lon="5.67143">
        <ele>459.6</ele>
        <time>2013-02-27T13:01:56Z</time>
      </trkpt>
      <trkpt lat="43.35413" lon="5.67144">
        <ele>459.1</ele>
        <time>2013-02-27T13:02:11Z</time>
      </trkpt>
      <trkpt lat="43.35405" lon="5.67145">
        <ele>457.3</ele>
        <time>2013-02-27T13:02:18Z</time>
      </trkpt>
      <trkpt lat="43.35396" lon="5.67147">
        <ele>455.3</ele>
        <time>2013-02-27T13:02:26Z</time>
      </trkpt>
      <trkpt lat="43.35388" lon="5.67151">
        <ele>454.7</ele>
        <time>2013-02-27T13:02:34Z</time>
      </trkpt>
      <trkpt lat="43.35379" lon="5.67153">
        <ele>454.7</ele>
        <time>2013-02-27T13:02:42Z</time>
      </trkpt>
      <trkpt lat="43.3537" lon="5.67155">
        <ele>452.6</ele>
        <time>2013-02-27T13:02:51Z</time>
      </trkpt>
      <trkpt lat="43.35362" lon="5.67156">
        <ele>453.3</ele>
        <time>2013-02-27T13:02:59Z</time>
      </trkpt>
      <trkpt lat="43.35361" lon="5.67156">
        <ele>453.2</ele>
        <time>2013-02-27T13:03:00Z</time>
      </trkpt>
      <trkpt lat="43.35345" lon="5.67157">
        <ele>449.2</ele>
        <time>2013-02-27T13:03:15Z</time>
      </trkpt>
      <trkpt lat="43.35337" lon="5.67157">
        <ele>448.7</ele>
        <time>2013-02-27T13:03:22Z</time>
      </trkpt>
      <trkpt lat="43.35329" lon="5.67157">
        <ele>448.3</ele>
        <time>2013-02-27T13:03:29Z</time>
      </trkpt>
      <trkpt lat="43.35321" lon="5.67157">
        <ele>446.7</ele>
        <time>2013-02-27T13:03:37Z</time>
      </trkpt>
      <trkpt lat="43.35312" lon="5.67156">
        <ele>447.3</ele>
        <time>2013-02-27T13:03:44Z</time>
      </trkpt>
      <trkpt lat="43.35304" lon="5.67157">
        <ele>445.7</ele>
        <time>2013-02-27T13:03:52Z</time>
      </trkpt>
      <trkpt lat="43.35296" lon="5.67155">
        <ele>445.2</ele>
        <time>2013-02-27T13:03:59Z</time>
      </trkpt>
      <trkpt lat="43.35288" lon="5.67154">
        <ele>445</ele>
        <time>2013-02-27T13:04:06Z</time>
      </trkpt>
      <trkpt lat="43.35286" lon="5.67152">
        <ele>446.3</ele>
        <time>2013-02-27T13:04:07Z</time>
      </trkpt>
      <trkpt lat="43.35271" lon="5.67156">
        <ele>440.2</ele>
        <time>2013-02-27T13:04:22Z</time>
      </trkpt>
      <trkpt lat="43.35264" lon="5.6716">
        <ele>437</ele>
        <time>2013-02-27T13:04:30Z</time>
      </trkpt>
      <trkpt lat="43.35255" lon="5.67163">
        <ele>436.8</ele>
        <time>2013-02-27T13:04:38Z</time>
      </trkpt>
      <trkpt lat="43.35247" lon="5.6716">
        <ele>441.1</ele>
        <time>2013-02-27T13:04:46Z</time>
      </trkpt>
      <trkpt lat="43.35242" lon="5.67152">
        <ele>441.7</ele>
        <time>2013-02-27T13:04:56Z</time>
      </trkpt>
      <trkpt lat="43.3524" lon="5.67141">
        <ele>444.6</ele>
        <time>2013-02-27T13:05:01Z</time>
      </trkpt>
      <trkpt lat="43.35238" lon="5.6713">
        <ele>443.8</ele>
        <time>2013-02-27T13:05:08Z</time>
      </trkpt>
      <trkpt lat="43.35238" lon="5.67128">
        <ele>443.7</ele>
        <time>2013-02-27T13:05:09Z</time>
      </trkpt>
      <trkpt lat="43.35234" lon="5.67108">
        <ele>442</ele>
        <time>2013-02-27T13:05:22Z</time>
      </trkpt>
      <trkpt lat="43.35232" lon="5.67097">
        <ele>440.5</ele>
        <time>2013-02-27T13:05:30Z</time>
      </trkpt>
      <trkpt lat="43.35231" lon="5.67086">
        <ele>440.6</ele>
        <time>2013-02-27T13:05:36Z</time>
      </trkpt>
      <trkpt lat="43.35229" lon="5.67074">
        <ele>440.1</ele>
        <time>2013-02-27T13:05:43Z</time>
      </trkpt>
      <trkpt lat="43.35227" lon="5.67062">
        <ele>439.1</ele>
        <time>2013-02-27T13:05:50Z</time>
      </trkpt>
      <trkpt lat="43.35226" lon="5.6705">
        <ele>437.7</ele>
        <time>2013-02-27T13:05:57Z</time>
      </trkpt>
      <trkpt lat="43.35225" lon="5.67038">
        <ele>437.7</ele>
        <time>2013-02-27T13:06:04Z</time>
      </trkpt>
      <trkpt lat="43.3522" lon="5.67029">
        <ele>436</ele>
        <time>2013-02-27T13:06:11Z</time>
      </trkpt>
      <trkpt lat="43.35219" lon="5.67028">
        <ele>435.5</ele>
        <time>2013-02-27T13:06:12Z</time>
      </trkpt>
      <trkpt lat="43.35206" lon="5.67022">
        <ele>430.1</ele>
        <time>2013-02-27T13:06:28Z</time>
      </trkpt>
      <trkpt lat="43.35198" lon="5.67022">
        <ele>429.7</ele>
        <time>2013-02-27T13:06:35Z</time>
      </trkpt>
      <trkpt lat="43.3519" lon="5.67027">
        <ele>427.5</ele>
        <time>2013-02-27T13:06:42Z</time>
      </trkpt>
      <trkpt lat="43.35183" lon="5.67031">
        <ele>425.7</ele>
        <time>2013-02-27T13:06:48Z</time>
      </trkpt>
      <trkpt lat="43.35174" lon="5.67035">
        <ele>424.6</ele>
        <time>2013-02-27T13:06:55Z</time>
      </trkpt>
      <trkpt lat="43.35165" lon="5.67038">
        <ele>425.6</ele>
        <time>2013-02-27T13:07:02Z</time>
      </trkpt>
      <trkpt lat="43.35157" lon="5.67042">
        <ele>423.7</ele>
        <time>2013-02-27T13:07:09Z</time>
      </trkpt>
      <trkpt lat="43.35149" lon="5.67046">
        <ele>423.2</ele>
        <time>2013-02-27T13:07:15Z</time>
      </trkpt>
      <trkpt lat="43.35148" lon="5.67047">
        <ele>423.1</ele>
        <time>2013-02-27T13:07:16Z</time>
      </trkpt>
      <trkpt lat="43.35134" lon="5.67054">
        <ele>421.7</ele>
        <time>2013-02-27T13:07:27Z</time>
      </trkpt>
      <trkpt lat="43.35127" lon="5.67059">
        <ele>419.8</ele>
        <time>2013-02-27T13:07:34Z</time>
      </trkpt>
      <trkpt lat="43.3512" lon="5.67064">
        <ele>418.5</ele>
        <time>2013-02-27T13:07:41Z</time>
      </trkpt>
      <trkpt lat="43.35112" lon="5.67066">
        <ele>421.7</ele>
        <time>2013-02-27T13:07:47Z</time>
      </trkpt>
      <trkpt lat="43.35104" lon="5.67071">
        <ele>420.2</ele>
        <time>2013-02-27T13:07:54Z</time>
      </trkpt>
      <trkpt lat="43.35096" lon="5.67074">
        <ele>420.6</ele>
        <time>2013-02-27T13:08:01Z</time>
      </trkpt>
      <trkpt lat="43.35087" lon="5.67076">
        <ele>416.2</ele>
        <time>2013-02-27T13:08:09Z</time>
      </trkpt>
      <trkpt lat="43.35079" lon="5.67076">
        <ele>414.7</ele>
        <time>2013-02-27T13:08:16Z</time>
      </trkpt>
      <trkpt lat="43.3507" lon="5.67078">
        <ele>409.2</ele>
        <time>2013-02-27T13:08:24Z</time>
      </trkpt>
      <trkpt lat="43.35069" lon="5.67078">
        <ele>408.7</ele>
        <time>2013-02-27T13:08:25Z</time>
      </trkpt>
      <trkpt lat="43.35053" lon="5.67077">
        <ele>405.1</ele>
        <time>2013-02-27T13:08:38Z</time>
      </trkpt>
      <trkpt lat="43.35045" lon="5.67075">
        <ele>407.3</ele>
        <time>2013-02-27T13:08:44Z</time>
      </trkpt>
      <trkpt lat="43.35036" lon="5.67074">
        <ele>409.8</ele>
        <time>2013-02-27T13:08:50Z</time>
      </trkpt>
      <trkpt lat="43.35028" lon="5.67074">
        <ele>410.6</ele>
        <time>2013-02-27T13:08:56Z</time>
      </trkpt>
      <trkpt lat="43.35019" lon="5.67073">
        <ele>413.6</ele>
        <time>2013-02-27T13:09:02Z</time>
      </trkpt>
      <trkpt lat="43.3501" lon="5.67072">
        <ele>411.3</ele>
        <time>2013-02-27T13:09:10Z</time>
      </trkpt>
      <trkpt lat="43.35017" lon="5.67063">
        <ele>406.2</ele>
        <time>2013-02-27T13:09:29Z</time>
      </trkpt>
      <trkpt lat="43.35018" lon="5.67064">
        <ele>405.8</ele>
        <time>2013-02-27T13:09:30Z</time>
      </trkpt>
      <trkpt lat="43.35033" lon="5.67061">
        <ele>404.7</ele>
        <time>2013-02-27T13:09:44Z</time>
      </trkpt>
      <trkpt lat="43.35042" lon="5.6706">
        <ele>405.3</ele>
        <time>2013-02-27T13:09:50Z</time>
      </trkpt>
      <trkpt lat="43.3505" lon="5.67057">
        <ele>405.7</ele>
        <time>2013-02-27T13:09:56Z</time>
      </trkpt>
      <trkpt lat="43.35058" lon="5.67054">
        <ele>404.8</ele>
        <time>2013-02-27T13:10:04Z</time>
      </trkpt>
      <trkpt lat="43.35066" lon="5.67049">
        <ele>402.3</ele>
        <time>2013-02-27T13:10:15Z</time>
      </trkpt>
      <trkpt lat="43.35073" lon="5.67044">
        <ele>402.7</ele>
        <time>2013-02-27T13:10:24Z</time>
      </trkpt>
      <trkpt lat="43.35081" lon="5.6704">
        <ele>404.1</ele>
        <time>2013-02-27T13:10:31Z</time>
      </trkpt>
      <trkpt lat="43.35081" lon="5.6704">
        <ele>403.5</ele>
        <time>2013-02-27T13:10:32Z</time>
      </trkpt>
      <trkpt lat="43.35093" lon="5.67024">
        <ele>401.7</ele>
        <time>2013-02-27T13:10:49Z</time>
      </trkpt>
      <trkpt lat="43.35099" lon="5.67016">
        <ele>400.2</ele>
        <time>2013-02-27T13:10:57Z</time>
      </trkpt>
      <trkpt lat="43.35106" lon="5.67009">
        <ele>397.1</ele>
        <time>2013-02-27T13:11:05Z</time>
      </trkpt>
      <trkpt lat="43.35109" lon="5.66999">
        <ele>400.2</ele>
        <time>2013-02-27T13:11:11Z</time>
      </trkpt>
      <trkpt lat="43.35114" lon="5.66989">
        <ele>399.7</ele>
        <time>2013-02-27T13:11:19Z</time>
      </trkpt>
      <trkpt lat="43.35119" lon="5.6698">
        <ele>399.7</ele>
        <time>2013-02-27T13:11:27Z</time>
      </trkpt>
      <trkpt lat="43.35123" lon="5.6697">
        <ele>399.1</ele>
        <time>2013-02-27T13:11:35Z</time>
      </trkpt>
      <trkpt lat="43.35124" lon="5.66969">
        <ele>399.1</ele>
        <time>2013-02-27T13:11:36Z</time>
      </trkpt>
      <trkpt lat="43.35133" lon="5.66952">
        <ele>396.2</ele>
        <time>2013-02-27T13:11:52Z</time>
      </trkpt>
      <trkpt lat="43.3514" lon="5.66944">
        <ele>395.5</ele>
        <time>2013-02-27T13:12:01Z</time>
      </trkpt>
      <trkpt lat="43.35147" lon="5.66937">
        <ele>394.2</ele>
        <time>2013-02-27T13:12:09Z</time>
      </trkpt>
      <trkpt lat="43.35154" lon="5.66931">
        <ele>395.6</ele>
        <time>2013-02-27T13:12:17Z</time>
      </trkpt>
      <trkpt lat="43.35161" lon="5.66925">
        <ele>394.7</ele>
        <time>2013-02-27T13:12:25Z</time>
      </trkpt>
      <trkpt lat="43.35168" lon="5.66918">
        <ele>392.7</ele>
        <time>2013-02-27T13:12:34Z</time>
      </trkpt>
      <trkpt lat="43.35175" lon="5.66913">
        <ele>393</ele>
        <time>2013-02-27T13:12:42Z</time>
      </trkpt>
      <trkpt lat="43.35176" lon="5.66912">
        <ele>392.5</ele>
        <time>2013-02-27T13:12:43Z</time>
      </trkpt>
      <trkpt lat="43.35191" lon="5.66903">
        <ele>386.3</ele>
        <time>2013-02-27T13:13:04Z</time>
      </trkpt>
      <trkpt lat="43.352" lon="5.669">
        <ele>385.3</ele>
        <time>2013-02-27T13:13:11Z</time>
      </trkpt>
      <trkpt lat="43.35207" lon="5.66896">
        <ele>384</ele>
        <time>2013-02-27T13:13:19Z</time>
      </trkpt>
      <trkpt lat="43.35215" lon="5.66893">
        <ele>385</ele>
        <time>2013-02-27T13:13:26Z</time>
      </trkpt>
      <trkpt lat="43.3522" lon="5.66884">
        <ele>383.1</ele>
        <time>2013-02-27T13:13:38Z</time>
      </trkpt>
      <trkpt lat="43.3522" lon="5.66872">
        <ele>381.2</ele>
        <time>2013-02-27T13:13:49Z</time>
      </trkpt>
      <trkpt lat="43.3522" lon="5.6687">
        <ele>381.6</ele>
        <time>2013-02-27T13:13:50Z</time>
      </trkpt>
      <trkpt lat="43.35215" lon="5.66854">
        <ele>374.5</ele>
        <time>2013-02-27T13:14:11Z</time>
      </trkpt>
      <trkpt lat="43.35208" lon="5.66848">
        <ele>370</ele>
        <time>2013-02-27T13:14:26Z</time>
      </trkpt>
      <trkpt lat="43.35199" lon="5.66844">
        <ele>365.3</ele>
        <time>2013-02-27T13:14:47Z</time>
      </trkpt>
      <trkpt lat="43.35191" lon="5.66839">
        <ele>363.3</ele>
        <time>2013-02-27T13:14:57Z</time>
      </trkpt>
      <trkpt lat="43.3519" lon="5.66839">
        <ele>363.2</ele>
        <time>2013-02-27T13:14:58Z</time>
      </trkpt>
      <trkpt lat="43.35175" lon="5.66838">
        <ele>361.2</ele>
        <time>2013-02-27T13:15:11Z</time>
      </trkpt>
      <trkpt lat="43.35166" lon="5.6684">
        <ele>361.2</ele>
        <time>2013-02-27T13:15:18Z</time>
      </trkpt>
      <trkpt lat="43.35158" lon="5.6684">
        <ele>359.7</ele>
        <time>2013-02-27T13:15:25Z</time>
      </trkpt>
      <trkpt lat="43.35149" lon="5.66842">
        <ele>359.7</ele>
        <time>2013-02-27T13:15:33Z</time>
      </trkpt>
      <trkpt lat="43.35142" lon="5.66845">
        <ele>358.1</ele>
        <time>2013-02-27T13:15:41Z</time>
      </trkpt>
      <trkpt lat="43.35133" lon="5.66846">
        <ele>358.1</ele>
        <time>2013-02-27T13:15:48Z</time>
      </trkpt>
      <trkpt lat="43.35125" lon="5.66847">
        <ele>360.2</ele>
        <time>2013-02-27T13:15:54Z</time>
      </trkpt>
      <trkpt lat="43.35117" lon="5.6685">
        <ele>361.6</ele>
        <time>2013-02-27T13:16:01Z</time>
      </trkpt>
      <trkpt lat="43.35116" lon="5.66851">
        <ele>361.3</ele>
        <time>2013-02-27T13:16:02Z</time>
      </trkpt>
      <trkpt lat="43.35102" lon="5.66854">
        <ele>360.2</ele>
        <time>2013-02-27T13:16:15Z</time>
      </trkpt>
      <trkpt lat="43.35098" lon="5.66844">
        <ele>365.8</ele>
        <time>2013-02-27T13:16:21Z</time>
      </trkpt>
      <trkpt lat="43.35103" lon="5.66834">
        <ele>360.7</ele>
        <time>2013-02-27T13:16:34Z</time>
      </trkpt>
      <trkpt lat="43.35109" lon="5.66827">
        <ele>355.6</ele>
        <time>2013-02-27T13:16:43Z</time>
      </trkpt>
      <trkpt lat="43.35114" lon="5.66818">
        <ele>354.1</ele>
        <time>2013-02-27T13:16:51Z</time>
      </trkpt>
      <trkpt lat="43.35117" lon="5.66808">
        <ele>353.2</ele>
        <time>2013-02-27T13:16:58Z</time>
      </trkpt>
      <trkpt lat="43.3512" lon="5.66799">
        <ele>355.2</ele>
        <time>2013-02-27T13:17:04Z</time>
      </trkpt>
      <trkpt lat="43.35121" lon="5.66797">
        <ele>356.2</ele>
        <time>2013-02-27T13:17:05Z</time>
      </trkpt>
      <trkpt lat="43.35126" lon="5.66778">
        <ele>359.1</ele>
        <time>2013-02-27T13:17:16Z</time>
      </trkpt>
      <trkpt lat="43.3513" lon="5.66767">
        <ele>358.7</ele>
        <time>2013-02-27T13:17:23Z</time>
      </trkpt>
      <trkpt lat="43.35133" lon="5.66757">
        <ele>358.5</ele>
        <time>2013-02-27T13:17:29Z</time>
      </trkpt>
      <trkpt lat="43.35138" lon="5.66747">
        <ele>352.7</ele>
        <time>2013-02-27T13:17:38Z</time>
      </trkpt>
      <trkpt lat="43.35142" lon="5.66737">
        <ele>350.2</ele>
        <time>2013-02-27T13:17:46Z</time>
      </trkpt>
      <trkpt lat="43.35144" lon="5.66726">
        <ele>348.2</ele>
        <time>2013-02-27T13:17:53Z</time>
      </trkpt>
      <trkpt lat="43.35149" lon="5.66717">
        <ele>345.8</ele>
        <time>2013-02-27T13:18:00Z</time>
      </trkpt>
      <trkpt lat="43.35152" lon="5.66706">
        <ele>346.1</ele>
        <time>2013-02-27T13:18:07Z</time>
      </trkpt>
      <trkpt lat="43.35153" lon="5.66705">
        <ele>346.3</ele>
        <time>2013-02-27T13:18:08Z</time>
      </trkpt>
      <trkpt lat="43.35159" lon="5.66686">
        <ele>345.2</ele>
        <time>2013-02-27T13:18:22Z</time>
      </trkpt>
      <trkpt lat="43.3516" lon="5.66674">
        <ele>343.5</ele>
        <time>2013-02-27T13:18:29Z</time>
      </trkpt>
      <trkpt lat="43.35161" lon="5.66663">
        <ele>340.7</ele>
        <time>2013-02-27T13:18:37Z</time>
      </trkpt>
      <trkpt lat="43.35162" lon="5.66652">
        <ele>338.7</ele>
        <time>2013-02-27T13:18:45Z</time>
      </trkpt>
      <trkpt lat="43.35163" lon="5.66641">
        <ele>338.2</ele>
        <time>2013-02-27T13:18:54Z</time>
      </trkpt>
      <trkpt lat="43.35165" lon="5.66629">
        <ele>339</ele>
        <time>2013-02-27T13:19:02Z</time>
      </trkpt>
      <trkpt lat="43.35168" lon="5.66617">
        <ele>339</ele>
        <time>2013-02-27T13:19:11Z</time>
      </trkpt>
      <trkpt lat="43.35168" lon="5.66616">
        <ele>338.7</ele>
        <time>2013-02-27T13:19:12Z</time>
      </trkpt>
      <trkpt lat="43.35171" lon="5.66595">
        <ele>335.7</ele>
        <time>2013-02-27T13:19:28Z</time>
      </trkpt>
      <trkpt lat="43.3517" lon="5.66583">
        <ele>336.7</ele>
        <time>2013-02-27T13:19:36Z</time>
      </trkpt>
      <trkpt lat="43.3517" lon="5.66572">
        <ele>330.8</ele>
        <time>2013-02-27T13:19:46Z</time>
      </trkpt>
      <trkpt lat="43.35171" lon="5.66561">
        <ele>327.3</ele>
        <time>2013-02-27T13:19:57Z</time>
      </trkpt>
      <trkpt lat="43.35172" lon="5.66549">
        <ele>330</ele>
        <time>2013-02-27T13:20:08Z</time>
      </trkpt>
      <trkpt lat="43.35168" lon="5.66538">
        <ele>328.2</ele>
        <time>2013-02-27T13:20:17Z</time>
      </trkpt>
      <trkpt lat="43.35167" lon="5.66538">
        <ele>327.7</ele>
        <time>2013-02-27T13:20:18Z</time>
      </trkpt>
      <trkpt lat="43.3517" lon="5.66527">
        <ele>320.1</ele>
        <time>2013-02-27T13:20:42Z</time>
      </trkpt>
      <trkpt lat="43.35174" lon="5.66539">
        <ele>318.2</ele>
        <time>2013-02-27T13:20:50Z</time>
      </trkpt>
      <trkpt lat="43.35178" lon="5.66548">
        <ele>318.7</ele>
        <time>2013-02-27T13:20:58Z</time>
      </trkpt>
      <trkpt lat="43.3518" lon="5.6656">
        <ele>318.8</ele>
        <time>2013-02-27T13:21:06Z</time>
      </trkpt>
      <trkpt lat="43.35181" lon="5.66571">
        <ele>317.1</ele>
        <time>2013-02-27T13:21:16Z</time>
      </trkpt>
      <trkpt lat="43.35185" lon="5.66581">
        <ele>321.1</ele>
        <time>2013-02-27T13:21:24Z</time>
      </trkpt>
      <trkpt lat="43.35185" lon="5.66583">
        <ele>320.8</ele>
        <time>2013-02-27T13:21:25Z</time>
      </trkpt>
      <trkpt lat="43.35182" lon="5.66605">
        <ele>317.2</ele>
        <time>2013-02-27T13:21:40Z</time>
      </trkpt>
      <trkpt lat="43.35182" lon="5.66617">
        <ele>316.2</ele>
        <time>2013-02-27T13:21:49Z</time>
      </trkpt>
      <trkpt lat="43.35187" lon="5.66627">
        <ele>320.1</ele>
        <time>2013-02-27T13:22:00Z</time>
      </trkpt>
      <trkpt lat="43.35186" lon="5.66638">
        <ele>319.2</ele>
        <time>2013-02-27T13:22:09Z</time>
      </trkpt>
      <trkpt lat="43.35188" lon="5.66649">
        <ele>318.5</ele>
        <time>2013-02-27T13:22:18Z</time>
      </trkpt>
      <trkpt lat="43.35188" lon="5.66661">
        <ele>321.7</ele>
        <time>2013-02-27T13:22:25Z</time>
      </trkpt>
      <trkpt lat="43.35189" lon="5.66662">
        <ele>322.1</ele>
        <time>2013-02-27T13:22:26Z</time>
      </trkpt>
      <trkpt lat="43.35182" lon="5.66682">
        <ele>322.2</ele>
        <time>2013-02-27T13:22:35Z</time>
      </trkpt>
      <trkpt lat="43.3518" lon="5.66693">
        <ele>321</ele>
        <time>2013-02-27T13:22:42Z</time>
      </trkpt>
      <trkpt lat="43.3518" lon="5.66704">
        <ele>317.7</ele>
        <time>2013-02-27T13:22:50Z</time>
      </trkpt>
      <trkpt lat="43.35188" lon="5.66703">
        <ele>313.2</ele>
        <time>2013-02-27T13:23:04Z</time>
      </trkpt>
      <trkpt lat="43.35196" lon="5.66698">
        <ele>313.2</ele>
        <time>2013-02-27T13:23:10Z</time>
      </trkpt>
      <trkpt lat="43.35203" lon="5.66694">
        <ele>310.3</ele>
        <time>2013-02-27T13:23:16Z</time>
      </trkpt>
      <trkpt lat="43.35209" lon="5.66685">
        <ele>310.7</ele>
        <time>2013-02-27T13:23:22Z</time>
      </trkpt>
      <trkpt lat="43.35214" lon="5.66677">
        <ele>310.7</ele>
        <time>2013-02-27T13:23:30Z</time>
      </trkpt>
      <trkpt lat="43.35215" lon="5.66676">
        <ele>310.3</ele>
        <time>2013-02-27T13:23:31Z</time>
      </trkpt>
      <trkpt lat="43.35227" lon="5.66665">
        <ele>306.5</ele>
        <time>2013-02-27T13:23:45Z</time>
      </trkpt>
      <trkpt lat="43.35233" lon="5.66657">
        <ele>306.1</ele>
        <time>2013-02-27T13:23:52Z</time>
      </trkpt>
      <trkpt lat="43.35238" lon="5.66647">
        <ele>303.5</ele>
        <time>2013-02-27T13:24:00Z</time>
      </trkpt>
      <trkpt lat="43.35244" lon="5.66639">
        <ele>301.8</ele>
        <time>2013-02-27T13:24:07Z</time>
      </trkpt>
      <trkpt lat="43.35251" lon="5.66632">
        <ele>298.6</ele>
        <time>2013-02-27T13:24:15Z</time>
      </trkpt>
      <trkpt lat="43.35253" lon="5.66621">
        <ele>308.7</ele>
        <time>2013-02-27T13:24:20Z</time>
      </trkpt>
      <trkpt lat="43.35256" lon="5.6661">
        <ele>314.8</ele>
        <time>2013-02-27T13:24:25Z</time>
      </trkpt>
      <trkpt lat="43.35261" lon="5.66601">
        <ele>315.6</ele>
        <time>2013-02-27T13:24:33Z</time>
      </trkpt>
      <trkpt lat="43.35262" lon="5.666">
        <ele>316.3</ele>
        <time>2013-02-27T13:24:34Z</time>
      </trkpt>
      <trkpt lat="43.35276" lon="5.6659">
        <ele>312.1</ele>
        <time>2013-02-27T13:24:50Z</time>
      </trkpt>
      <trkpt lat="43.35283" lon="5.66586">
        <ele>310.7</ele>
        <time>2013-02-27T13:24:56Z</time>
      </trkpt>
      <trkpt lat="43.35291" lon="5.66585">
        <ele>310.3</ele>
        <time>2013-02-27T13:25:04Z</time>
      </trkpt>
      <trkpt lat="43.353" lon="5.66584">
        <ele>311.6</ele>
        <time>2013-02-27T13:25:11Z</time>
      </trkpt>
      <trkpt lat="43.35309" lon="5.66585">
        <ele>309.6</ele>
        <time>2013-02-27T13:25:19Z</time>
      </trkpt>
      <trkpt lat="43.35317" lon="5.66587">
        <ele>309.2</ele>
        <time>2013-02-27T13:25:25Z</time>
      </trkpt>
      <trkpt lat="43.35325" lon="5.66588">
        <ele>307.6</ele>
        <time>2013-02-27T13:25:32Z</time>
      </trkpt>
      <trkpt lat="43.35333" lon="5.66591">
        <ele>306.6</ele>
        <time>2013-02-27T13:25:40Z</time>
      </trkpt>
      <trkpt lat="43.35334" lon="5.66592">
        <ele>306.3</ele>
        <time>2013-02-27T13:25:41Z</time>
      </trkpt>
      <trkpt lat="43.35349" lon="5.66595">
        <ele>303.2</ele>
        <time>2013-02-27T13:25:57Z</time>
      </trkpt>
      <trkpt lat="43.35357" lon="5.666">
        <ele>300.6</ele>
        <time>2013-02-27T13:26:07Z</time>
      </trkpt>
      <trkpt lat="43.35365" lon="5.66601">
        <ele>300.7</ele>
        <time>2013-02-27T13:26:13Z</time>
      </trkpt>
      <trkpt lat="43.35373" lon="5.66604">
        <ele>299.7</ele>
        <time>2013-02-27T13:26:21Z</time>
      </trkpt>
      <trkpt lat="43.35382" lon="5.66606">
        <ele>301.7</ele>
        <time>2013-02-27T13:26:26Z</time>
      </trkpt>
      <trkpt lat="43.35389" lon="5.66612">
        <ele>300.7</ele>
        <time>2013-02-27T13:26:35Z</time>
      </trkpt>
      <trkpt lat="43.35396" lon="5.66618">
        <ele>301.2</ele>
        <time>2013-02-27T13:26:43Z</time>
      </trkpt>
      <trkpt lat="43.35397" lon="5.66619">
        <ele>301.2</ele>
        <time>2013-02-27T13:26:44Z</time>
      </trkpt>
      <trkpt lat="43.3541" lon="5.66629">
        <ele>302</ele>
        <time>2013-02-27T13:26:58Z</time>
      </trkpt>
      <trkpt lat="43.35417" lon="5.66635">
        <ele>300.8</ele>
        <time>2013-02-27T13:27:06Z</time>
      </trkpt>
      <trkpt lat="43.35423" lon="5.66644">
        <ele>299.1</ele>
        <time>2013-02-27T13:27:14Z</time>
      </trkpt>
      <trkpt lat="43.35431" lon="5.66645">
        <ele>299.2</ele>
        <time>2013-02-27T13:27:21Z</time>
      </trkpt>
      <trkpt lat="43.35438" lon="5.66643">
        <ele>300.8</ele>
        <time>2013-02-27T13:27:27Z</time>
      </trkpt>
      <trkpt lat="43.35446" lon="5.6664">
        <ele>302.7</ele>
        <time>2013-02-27T13:27:33Z</time>
      </trkpt>
      <trkpt lat="43.35455" lon="5.66642">
        <ele>303.1</ele>
        <time>2013-02-27T13:27:40Z</time>
      </trkpt>
      <trkpt lat="43.35462" lon="5.66644">
        <ele>305.5</ele>
        <time>2013-02-27T13:27:44Z</time>
      </trkpt>
      <trkpt lat="43.35465" lon="5.66643">
        <ele>307.2</ele>
        <time>2013-02-27T13:27:45Z</time>
      </trkpt>
      <trkpt lat="43.35478" lon="5.66652">
        <ele>304.1</ele>
        <time>2013-02-27T13:28:00Z</time>
      </trkpt>
      <trkpt lat="43.35486" lon="5.66658">
        <ele>302.5</ele>
        <time>2013-02-27T13:28:09Z</time>
      </trkpt>
      <trkpt lat="43.35494" lon="5.66662">
        <ele>300.6</ele>
        <time>2013-02-27T13:28:18Z</time>
      </trkpt>
      <trkpt lat="43.35502" lon="5.66666">
        <ele>300.7</ele>
        <time>2013-02-27T13:28:24Z</time>
      </trkpt>
      <trkpt lat="43.3551" lon="5.66668">
        <ele>301.8</ele>
        <time>2013-02-27T13:28:29Z</time>
      </trkpt>
      <trkpt lat="43.35517" lon="5.66672">
        <ele>301.7</ele>
        <time>2013-02-27T13:28:36Z</time>
      </trkpt>
      <trkpt lat="43.35526" lon="5.66675">
        <ele>300.2</ele>
        <time>2013-02-27T13:28:44Z</time>
      </trkpt>
      <trkpt lat="43.35527" lon="5.66675">
        <ele>299.7</ele>
        <time>2013-02-27T13:28:45Z</time>
      </trkpt>
      <trkpt lat="43.35542" lon="5.66683">
        <ele>306.5</ele>
        <time>2013-02-27T13:34:29Z</time>
      </trkpt>
      <trkpt lat="43.35543" lon="5.66683">
        <ele>306</ele>
        <time>2013-02-27T13:34:30Z</time>
      </trkpt>
      <trkpt lat="43.35555" lon="5.66696">
        <ele>295.8</ele>
        <time>2013-02-27T13:34:48Z</time>
      </trkpt>
      <trkpt lat="43.35562" lon="5.66702">
        <ele>294.5</ele>
        <time>2013-02-27T13:34:54Z</time>
      </trkpt>
      <trkpt lat="43.35569" lon="5.66707">
        <ele>294.7</ele>
        <time>2013-02-27T13:35:01Z</time>
      </trkpt>
      <trkpt lat="43.35578" lon="5.66707">
        <ele>295.7</ele>
        <time>2013-02-27T13:35:08Z</time>
      </trkpt>
      <trkpt lat="43.35587" lon="5.66708">
        <ele>297.2</ele>
        <time>2013-02-27T13:35:14Z</time>
      </trkpt>
      <trkpt lat="43.35594" lon="5.66708">
        <ele>298.1</ele>
        <time>2013-02-27T13:35:19Z</time>
      </trkpt>
      <trkpt lat="43.35603" lon="5.6671">
        <ele>298.5</ele>
        <time>2013-02-27T13:35:25Z</time>
      </trkpt>
      <trkpt lat="43.35611" lon="5.66713">
        <ele>295.6</ele>
        <time>2013-02-27T13:35:35Z</time>
      </trkpt>
      <trkpt lat="43.35612" lon="5.66713">
        <ele>295.5</ele>
        <time>2013-02-27T13:35:36Z</time>
      </trkpt>
      <trkpt lat="43.35628" lon="5.66715">
        <ele>292.5</ele>
        <time>2013-02-27T13:35:49Z</time>
      </trkpt>
      <trkpt lat="43.35636" lon="5.66712">
        <ele>293.7</ele>
        <time>2013-02-27T13:35:55Z</time>
      </trkpt>
      <trkpt lat="43.35644" lon="5.66708">
        <ele>293.7</ele>
        <time>2013-02-27T13:36:02Z</time>
      </trkpt>
      <trkpt lat="43.35652" lon="5.66702">
        <ele>291.2</ele>
        <time>2013-02-27T13:36:10Z</time>
      </trkpt>
      <trkpt lat="43.35658" lon="5.66696">
        <ele>288.3</ele>
        <time>2013-02-27T13:36:18Z</time>
      </trkpt>
      <trkpt lat="43.35666" lon="5.6669">
        <ele>286.7</ele>
        <time>2013-02-27T13:36:26Z</time>
      </trkpt>
      <trkpt lat="43.35673" lon="5.66686">
        <ele>285.8</ele>
        <time>2013-02-27T13:36:33Z</time>
      </trkpt>
      <trkpt lat="43.3568" lon="5.66681">
        <ele>284.8</ele>
        <time>2013-02-27T13:36:41Z</time>
      </trkpt>
      <trkpt lat="43.35681" lon="5.6668">
        <ele>284.7</ele>
        <time>2013-02-27T13:36:42Z</time>
      </trkpt>
      <trkpt lat="43.35694" lon="5.66666">
        <ele>281.6</ele>
        <time>2013-02-27T13:36:59Z</time>
      </trkpt>
      <trkpt lat="43.357" lon="5.66658">
        <ele>279.1</ele>
        <time>2013-02-27T13:37:08Z</time>
      </trkpt>
      <trkpt lat="43.35707" lon="5.66651">
        <ele>277.6</ele>
        <time>2013-02-27T13:37:18Z</time>
      </trkpt>
      <trkpt lat="43.35714" lon="5.66644">
        <ele>277.6</ele>
        <time>2013-02-27T13:37:27Z</time>
      </trkpt>
      <trkpt lat="43.35719" lon="5.66634">
        <ele>280.3</ele>
        <time>2013-02-27T13:37:41Z</time>
      </trkpt>
      <trkpt lat="43.35724" lon="5.66625">
        <ele>281.6</ele>
        <time>2013-02-27T13:37:54Z</time>
      </trkpt>
      <trkpt lat="43.35725" lon="5.66624">
        <ele>280.8</ele>
        <time>2013-02-27T13:37:55Z</time>
      </trkpt>
      <trkpt lat="43.35735" lon="5.66606">
        <ele>268.7</ele>
        <time>2013-02-27T13:38:14Z</time>
      </trkpt>
      <trkpt lat="43.35739" lon="5.66597">
        <ele>269.2</ele>
        <time>2013-02-27T13:38:21Z</time>
      </trkpt>
      <trkpt lat="43.35745" lon="5.66588">
        <ele>264.5</ele>
        <time>2013-02-27T13:38:29Z</time>
      </trkpt>
      <trkpt lat="43.35749" lon="5.66578">
        <ele>265.2</ele>
        <time>2013-02-27T13:38:38Z</time>
      </trkpt>
      <trkpt lat="43.35753" lon="5.66567">
        <ele>266</ele>
        <time>2013-02-27T13:38:48Z</time>
      </trkpt>
      <trkpt lat="43.35757" lon="5.66557">
        <ele>261.7</ele>
        <time>2013-02-27T13:38:56Z</time>
      </trkpt>
      <trkpt lat="43.35757" lon="5.66556">
        <ele>261.5</ele>
        <time>2013-02-27T13:38:57Z</time>
      </trkpt>
      <trkpt lat="43.35762" lon="5.66534">
        <ele>256.7</ele>
        <time>2013-02-27T13:39:13Z</time>
      </trkpt>
      <trkpt lat="43.35765" lon="5.66524">
        <ele>254.3</ele>
        <time>2013-02-27T13:39:21Z</time>
      </trkpt>
      <trkpt lat="43.3577" lon="5.66514">
        <ele>251.8</ele>
        <time>2013-02-27T13:39:30Z</time>
      </trkpt>
      <trkpt lat="43.35771" lon="5.66503">
        <ele>253.8</ele>
        <time>2013-02-27T13:39:37Z</time>
      </trkpt>
      <trkpt lat="43.35774" lon="5.66492">
        <ele>255.1</ele>
        <time>2013-02-27T13:39:44Z</time>
      </trkpt>
      <trkpt lat="43.35778" lon="5.66482">
        <ele>252.6</ele>
        <time>2013-02-27T13:39:52Z</time>
      </trkpt>
      <trkpt lat="43.35782" lon="5.66471">
        <ele>249.3</ele>
        <time>2013-02-27T13:40:00Z</time>
      </trkpt>
      <trkpt lat="43.35782" lon="5.6647">
        <ele>249.1</ele>
        <time>2013-02-27T13:40:01Z</time>
      </trkpt>
      <trkpt lat="43.35789" lon="5.6645">
        <ele>246.8</ele>
        <time>2013-02-27T13:40:16Z</time>
      </trkpt>
      <trkpt lat="43.35793" lon="5.6644">
        <ele>244.1</ele>
        <time>2013-02-27T13:40:24Z</time>
      </trkpt>
      <trkpt lat="43.35797" lon="5.6643">
        <ele>241.5</ele>
        <time>2013-02-27T13:40:33Z</time>
      </trkpt>
      <trkpt lat="43.35801" lon="5.6642">
        <ele>240</ele>
        <time>2013-02-27T13:40:42Z</time>
      </trkpt>
      <trkpt lat="43.35806" lon="5.66411">
        <ele>240.1</ele>
        <time>2013-02-27T13:40:51Z</time>
      </trkpt>
      <trkpt lat="43.35811" lon="5.66402">
        <ele>240</ele>
        <time>2013-02-27T13:40:59Z</time>
      </trkpt>
      <trkpt lat="43.35815" lon="5.66391">
        <ele>240.3</ele>
        <time>2013-02-27T13:41:07Z</time>
      </trkpt>
      <trkpt lat="43.35816" lon="5.6639">
        <ele>240.1</ele>
        <time>2013-02-27T13:41:08Z</time>
      </trkpt>
      <trkpt lat="43.35823" lon="5.6637">
        <ele>241.8</ele>
        <time>2013-02-27T13:41:25Z</time>
      </trkpt>
      <trkpt lat="43.35827" lon="5.66359">
        <ele>238.8</ele>
        <time>2013-02-27T13:41:35Z</time>
      </trkpt>
      <trkpt lat="43.3583" lon="5.66348">
        <ele>236.8</ele>
        <time>2013-02-27T13:41:44Z</time>
      </trkpt>
      <trkpt lat="43.35832" lon="5.66338">
        <ele>234.6</ele>
        <time>2013-02-27T13:41:53Z</time>
      </trkpt>
      <trkpt lat="43.35836" lon="5.66327">
        <ele>238.5</ele>
        <time>2013-02-27T13:42:03Z</time>
      </trkpt>
      <trkpt lat="43.35839" lon="5.66316">
        <ele>237.3</ele>
        <time>2013-02-27T13:42:13Z</time>
      </trkpt>
      <trkpt lat="43.35839" lon="5.66314">
        <ele>236.8</ele>
        <time>2013-02-27T13:42:14Z</time>
      </trkpt>
      <trkpt lat="43.35837" lon="5.66296">
        <ele>238</ele>
        <time>2013-02-27T13:42:48Z</time>
      </trkpt>
      <trkpt lat="43.35837" lon="5.66296">
        <ele>238</ele>
        <time>2013-02-27T13:42:48Z</time>
      </trkpt>
    </trkseg>
  </trk>
</gpx>